[[{"header":{"parameterUnit":"m.s-1","parameterCategory":1,"la1":30.6,"la2":29.2853,"lo1":-89.7004,"lo2":-87.6739,"dy":0.0162,"dx":0.0183,"nx":112,"ny":82,"refTime":"2024-03-06T06:00:00:Z","depth":0,"parameterNumber":2,"parameterNumberName":"U-component_of_WINDS"},"data":[0.0,0.0,0.0,0.0,0.0,0.0,0.0,0.0,0.0,0.0,0.0,0.0,0.0,0.0,0.0,0.0,0.0,0.0,0.0,0.0,0.0,0.0,0.0,0.0,0.0,0.0,0.0,0.0,0.0,0.0,0.0,0.0,0.0,0.0,0.0,0.0,0.0,0.0,0.0,0.0,0.0,0.0,0.0,0.0,0.0,0.0,0.0,0.0,0.0,0.0,0.0,0.0,0.0,0.0,0.0,0.0,0.0,0.0,0.0,0.0,0.0,0.0,0.0,0.0,0.0,0.0,0.0,0.0,0.0,0.0,0.0,0.0,0.0,0.0,0.0,0.0,0.0,0.0,0.0,0.0,0.0,0.0,0.0,0.0,0.0,0.0,0.0,0.0,0.0,0.0,4.4075,4.4227,4.4045,4.3908,4.3908,4.3643,4.3506,4.3506,0.0,0.0,0.0,0.0,0.0,0.0,0.0,0.0,0.0,0.0,0.0,0.0,0.0,0.0,0.0,0.0,0.0,0.0,0.0,0.0,0.0,0.0,0.0,0.0,0.0,0.0,0.0,0.0,0.0,0.0,0.0,0.0,0.0,0.0,0.0,0.0,0.0,0.0,0.0,0.0,0.0,0.0,0.0,0.0,0.0,0.0,0.0,0.0,0.0,0.0,0.0,0.0,0.0,0.0,0.0,0.0,0.0,0.0,0.0,0.0,0.0,0.0,0.0,0.0,0.0,0.0,0.0,0.0,0.0,0.0,0.0,0.0,0.0,0.0,0.0,0.0,0.0,0.0,0.0,0.0,0.0,0.0,0.0,0.0,0.0,0.0,0.0,0.0,0.0,0.0,0.0,0.0,0.0,0.0,0.0,0.0,0.0,0.0,0.0,0.0,0.0,0.0,0.0,0.0,4.39,4.366,4.3584,4.3592,4.3592,4.354,4.3506,4.3506,0.0,0.0,0.0,0.0,0.0,0.0,0.0,0.0,0.0,0.0,0.0,0.0,0.0,0.0,0.0,0.0,0.0,0.0,0.0,0.0,0.0,0.0,0.0,0.0,0.0,0.0,0.0,0.0,0.0,0.0,0.0,0.0,0.0,0.0,0.0,0.0,0.0,0.0,0.0,0.0,0.0,0.0,0.0,0.0,0.0,0.0,0.0,0.0,0.0,0.0,0.0,0.0,0.0,0.0,0.0,0.0,0.0,0.0,0.0,0.0,0.0,0.0,0.0,0.0,0.0,0.0,0.0,0.0,0.0,0.0,0.0,0.0,0.0,0.0,0.0,0.0,0.0,0.0,0.0,0.0,0.0,0.0,0.0,0.0,0.0,0.0,0.0,0.0,0.0,0.0,0.0,0.0,0.0,0.0,0.0,0.0,0.0,0.0,0.0,0.0,0.0,0.0,0.0,4.3812,4.3652,4.3528,4.3506,4.3506,4.3506,4.3506,4.3506,4.3506,4.3506,0.0,0.0,0.0,0.0,0.0,0.0,0.0,0.0,0.0,0.0,0.0,0.0,0.0,0.0,0.0,0.0,0.0,0.0,0.0,0.0,0.0,0.0,0.0,0.0,0.0,0.0,0.0,0.0,0.0,0.0,0.0,0.0,0.0,0.0,0.0,0.0,0.0,0.0,0.0,0.0,0.0,0.0,0.0,0.0,0.0,0.0,0.0,0.0,0.0,0.0,0.0,0.0,0.0,0.0,0.0,0.0,0.0,0.0,0.0,0.0,0.0,0.0,0.0,0.0,0.0,0.0,0.0,0.0,0.0,0.0,0.0,0.0,0.0,0.0,0.0,0.0,0.0,0.0,0.0,0.0,0.0,0.0,0.0,0.0,0.0,0.0,0.0,0.0,0.0,0.0,0.0,0.0,0.0,0.0,0.0,0.0,0.0,0.0,0.0,0.0,0.0,0.0,4.3506,4.3506,4.3506,4.3506,4.3506,4.3506,4.3506,4.3506,4.3506,4.3506,0.0,0.0,0.0,0.0,0.0,0.0,0.0,0.0,0.0,0.0,0.0,0.0,0.0,0.0,0.0,0.0,0.0,0.0,0.0,0.0,0.0,0.0,0.0,0.0,0.0,0.0,0.0,0.0,0.0,0.0,0.0,0.0,0.0,0.0,0.0,0.0,0.0,0.0,0.0,0.0,0.0,0.0,0.0,0.0,0.0,0.0,0.0,0.0,0.0,0.0,0.0,0.0,0.0,0.0,0.0,0.0,0.0,0.0,0.0,0.0,0.0,0.0,0.0,0.0,0.0,0.0,0.0,0.0,0.0,0.0,0.0,0.0,0.0,0.0,0.0,0.0,0.0,0.0,0.0,0.0,0.0,0.0,0.0,0.0,0.0,0.0,0.0,0.0,0.0,0.0,0.0,0.0,0.0,0.0,0.0,0.0,0.0,0.0,0.0,0.0,0.0,0.0,4.3506,4.3506,4.3506,4.3506,4.3506,4.3506,4.3506,4.3506,4.3506,4.3506,0.0,0.0,0.0,0.0,0.0,0.0,0.0,0.0,0.0,0.0,0.0,0.0,0.0,0.0,0.0,0.0,0.0,0.0,0.0,0.0,0.0,0.0,0.0,0.0,0.0,0.0,0.0,0.0,0.0,0.0,0.0,0.0,0.0,0.0,0.0,0.0,0.0,0.0,0.0,0.0,0.0,0.0,0.0,0.0,0.0,0.0,0.0,0.0,0.0,0.0,0.0,0.0,0.0,0.0,0.0,0.0,0.0,0.0,0.0,0.0,0.0,0.0,0.0,0.0,0.0,0.0,0.0,0.0,0.0,0.0,0.0,0.0,0.0,0.0,0.0,0.0,0.0,0.0,0.0,0.0,0.0,0.0,0.0,0.0,0.0,0.0,0.0,0.0,0.0,0.0,0.0,0.0,0.0,0.0,0.0,0.0,0.0,0.0,0.0,0.0,0.0,0.0,4.3506,4.3506,0.0,4.3506,4.369,4.4195,4.4268,4.4452,4.497,0.0,0.0,0.0,0.0,0.0,0.0,0.0,0.0,0.0,0.0,0.0,0.0,0.0,0.0,0.0,0.0,0.0,0.0,0.0,0.0,0.0,0.0,0.0,0.0,0.0,0.0,0.0,0.0,0.0,0.0,0.0,0.0,0.0,0.0,0.0,0.0,0.0,0.0,0.0,0.0,0.0,0.0,0.0,0.0,0.0,0.0,0.0,0.0,0.0,0.0,0.0,0.0,0.0,0.0,0.0,0.0,0.0,0.0,0.0,0.0,0.0,0.0,0.0,0.0,0.0,0.0,0.0,0.0,0.0,0.0,0.0,0.0,0.0,0.0,0.0,0.0,0.0,0.0,0.0,0.0,0.0,0.0,0.0,0.0,0.0,0.0,0.0,0.0,0.0,0.0,0.0,0.0,0.0,0.0,0.0,0.0,0.0,0.0,0.0,0.0,0.0,0.0,4.3506,4.3696,4.3875,0.0,4.4093,4.448,4.499,4.5063,4.5265,4.5782,0.0,0.0,0.0,0.0,0.0,0.0,0.0,0.0,0.0,0.0,0.0,0.0,0.0,0.0,0.0,0.0,0.0,0.0,0.0,0.0,0.0,0.0,0.0,0.0,0.0,0.0,0.0,0.0,0.0,0.0,0.0,0.0,0.0,0.0,0.0,0.0,0.0,0.0,0.0,0.0,0.0,0.0,0.0,0.0,0.0,0.0,0.0,0.0,0.0,0.0,0.0,0.0,0.0,0.0,0.0,0.0,0.0,0.0,0.0,0.0,0.0,0.0,0.0,0.0,0.0,0.0,0.0,0.0,0.0,0.0,0.0,0.0,0.0,0.0,0.0,0.0,0.0,0.0,0.0,0.0,0.0,0.0,0.0,0.0,0.0,0.0,0.0,0.0,0.0,0.0,0.0,0.0,0.0,0.0,0.0,0.0,0.0,0.0,0.0,0.0,0.0,0.0,4.353,4.4143,4.4629,4.4686,4.5438,4.5879,4.5823,4.5814,4.5762,0.0,0.0,0.0,0.0,0.0,0.0,0.0,0.0,0.0,0.0,0.0,0.0,0.0,0.0,0.0,0.0,0.0,0.0,0.0,0.0,0.0,0.0,0.0,0.0,0.0,0.0,0.0,0.0,0.0,0.0,0.0,0.0,0.0,0.0,0.0,0.0,0.0,0.0,0.0,0.0,0.0,0.0,0.0,0.0,0.0,0.0,0.0,0.0,0.0,0.0,0.0,0.0,0.0,0.0,0.0,0.0,0.0,0.0,0.0,0.0,0.0,0.0,0.0,0.0,0.0,0.0,0.0,0.0,0.0,0.0,0.0,0.0,0.0,0.0,0.0,0.0,0.0,0.0,0.0,0.0,0.0,0.0,0.0,0.0,0.0,0.0,0.0,0.0,0.0,0.0,0.0,0.0,0.0,0.0,0.0,0.0,0.0,0.0,0.0,0.0,0.0,0.0,0.0,4.5041,4.5241,4.5326,4.5313,4.5542,4.5902,4.6467,4.6499,4.674,4.7257,0.0,0.0,0.0,0.0,0.0,0.0,0.0,0.0,0.0,0.0,0.0,0.0,0.0,0.0,0.0,0.0,0.0,0.0,0.0,0.0,0.0,0.0,0.0,0.0,0.0,0.0,0.0,0.0,0.0,0.0,0.0,0.0,0.0,0.0,0.0,0.0,0.0,0.0,0.0,0.0,0.0,0.0,0.0,0.0,0.0,0.0,0.0,0.0,0.0,0.0,0.0,0.0,0.0,0.0,0.0,0.0,0.0,0.0,0.0,0.0,0.0,0.0,0.0,0.0,0.0,0.0,0.0,0.0,0.0,0.0,0.0,0.0,0.0,0.0,0.0,0.0,0.0,0.0,0.0,0.0,0.0,0.0,0.0,0.0,0.0,0.0,0.0,0.0,0.0,0.0,0.0,0.0,0.0,0.0,0.0,0.0,0.0,0.0,0.0,0.0,0.0,0.0,4.5656,4.5899,4.6064,4.6066,4.6368,4.6754,4.7193,4.7224,4.7428,4.7865,0.0,0.0,0.0,0.0,0.0,0.0,0.0,0.0,0.0,0.0,0.0,0.0,0.0,0.0,0.0,0.0,0.0,0.0,0.0,0.0,0.0,0.0,0.0,0.0,0.0,0.0,0.0,0.0,0.0,0.0,0.0,0.0,0.0,0.0,0.0,0.0,0.0,0.0,0.0,0.0,0.0,0.0,0.0,0.0,0.0,0.0,0.0,0.0,0.0,0.0,0.0,0.0,0.0,0.0,0.0,0.0,0.0,0.0,0.0,0.0,0.0,0.0,0.0,0.0,0.0,0.0,0.0,0.0,0.0,0.0,0.0,0.0,0.0,0.0,0.0,0.0,0.0,0.0,0.0,0.0,0.0,0.0,0.0,0.0,0.0,0.0,0.0,0.0,0.0,0.0,0.0,0.0,0.0,0.0,0.0,0.0,0.0,0.0,0.0,0.0,0.0,0.0,4.5787,4.6374,4.6832,4.688,4.7524,4.7957,4.7886,4.7876,4.7835,4.7699,0.0,0.0,0.0,0.0,0.0,0.0,0.0,0.0,0.0,0.0,0.0,0.0,0.0,0.0,0.0,0.0,0.0,0.0,0.0,0.0,0.0,0.0,0.0,0.0,0.0,0.0,0.0,0.0,0.0,0.0,0.0,0.0,0.0,0.0,0.0,0.0,0.0,0.0,0.0,0.0,0.0,0.0,0.0,0.0,0.0,0.0,0.0,0.0,0.0,0.0,0.0,0.0,0.0,0.0,0.0,0.0,0.0,0.0,0.0,0.0,3.9591,0.0,0.0,0.0,0.0,0.0,0.0,0.0,0.0,0.0,0.0,0.0,0.0,0.0,0.0,0.0,0.0,0.0,0.0,0.0,0.0,0.0,0.0,0.0,0.0,0.0,0.0,0.0,0.0,0.0,0.0,0.0,0.0,0.0,0.0,0.0,0.0,0.0,0.0,0.0,0.0,0.0,4.7325,4.7461,4.7477,4.7503,4.7653,4.7752,4.7725,4.7725,4.7715,4.7689,4.7746,0.0,0.0,0.0,0.0,0.0,0.0,0.0,0.0,0.0,0.0,0.0,0.0,0.0,0.0,0.0,0.0,0.0,0.0,0.0,0.0,0.0,0.0,0.0,0.0,0.0,0.0,0.0,0.0,0.0,0.0,0.0,0.0,0.0,0.0,0.0,0.0,0.0,0.0,0.0,0.0,0.0,0.0,0.0,0.0,0.0,0.0,0.0,0.0,0.0,0.0,0.0,0.0,0.0,0.0,0.0,0.0,0.0,0.0,0.0,0.0,4.0184,0.0,0.0,0.0,0.0,0.0,0.0,0.0,0.0,0.0,0.0,0.0,0.0,0.0,0.0,0.0,0.0,0.0,0.0,0.0,0.0,0.0,0.0,0.0,0.0,0.0,0.0,0.0,0.0,0.0,0.0,0.0,0.0,0.0,0.0,0.0,0.0,0.0,0.0,0.0,0.0,4.8311,4.8673,4.8858,4.8858,4.8858,4.8858,4.8858,4.8598,4.8417,4.8417,4.8184,0.0,0.0,0.0,0.0,0.0,0.0,0.0,0.0,0.0,0.0,0.0,0.0,0.0,0.0,0.0,0.0,0.0,0.0,0.0,0.0,0.0,0.0,0.0,0.0,0.0,0.0,0.0,0.0,0.0,0.0,0.0,0.0,0.0,0.0,0.0,0.0,0.0,0.0,0.0,0.0,0.0,0.0,0.0,0.0,0.0,0.0,0.0,0.0,0.0,0.0,0.0,0.0,0.0,4.0171,4.0434,4.0873,4.0396,4.0319,4.06,4.0968,4.0873,4.0492,0.0,0.0,0.0,0.0,0.0,0.0,0.0,0.0,0.0,0.0,0.0,0.0,0.0,0.0,0.0,0.0,0.0,0.0,0.0,0.0,0.0,0.0,0.0,0.0,0.0,4.3829,4.4118,0.0,0.0,0.0,0.0,0.0,0.0,0.0,0.0,0.0,0.0,0.0,0.0,4.9101,4.9697,5.0073,4.9948,4.9937,4.9903,4.9813,4.9365,4.9071,4.9071,4.8636,4.8408,0.0,0.0,0.0,0.0,0.0,0.0,0.0,0.0,0.0,0.0,0.0,0.0,0.0,0.0,0.0,0.0,0.0,0.0,0.0,0.0,0.0,0.0,0.0,0.0,0.0,0.0,0.0,0.0,0.0,0.0,0.0,0.0,3.7385,3.7751,0.0,0.0,0.0,0.0,0.0,0.0,0.0,0.0,0.0,0.0,0.0,0.0,0.0,3.9528,4.0097,4.0258,4.0644,4.1187,4.1187,4.1229,4.1319,4.1229,4.1215,4.1271,4.1347,0.0,4.0577,4.0732,0.0,0.0,0.0,0.0,0.0,0.0,0.0,0.0,0.0,0.0,0.0,0.0,0.0,0.0,0.0,0.0,0.0,0.0,0.0,0.0,0.0,0.0,4.4983,4.4983,4.5055,4.5091,0.0,4.4983,4.5019,4.5128,4.5133,0.0,0.0,0.0,0.0,0.0,0.0,0.0,4.9956,5.0028,4.9897,4.937,4.9317,4.9125,4.8642,4.8534,4.8524,4.8524,4.8453,4.8408,4.8408,4.8479,0.0,0.0,0.0,0.0,0.0,0.0,0.0,0.0,0.0,0.0,0.0,0.0,0.0,0.0,0.0,0.0,0.0,0.0,0.0,0.0,0.0,0.0,0.0,0.0,0.0,0.0,0.0,0.0,0.0,3.7475,3.758,3.7526,3.7774,3.794,0.0,0.0,0.0,0.0,0.0,0.0,0.0,0.0,0.0,4.0455,4.0481,4.0647,4.0945,4.0945,4.1302,4.2024,4.2024,4.2255,4.2645,4.2645,4.2645,4.2645,4.2645,4.2555,4.2362,4.1837,4.1816,4.2136,0.0,0.0,0.0,0.0,4.3367,4.3807,4.3807,4.4015,0.0,0.0,0.0,0.0,0.0,0.0,0.0,0.0,0.0,0.0,0.0,0.0,0.0,4.5883,4.6075,4.6343,4.716,4.7403,4.732,0.0,4.6644,4.7042,4.832,0.0,0.0,0.0,0.0,5.014,4.9797,5.0164,5.0338,5.0085,5.0024,4.9963,4.9708,4.9421,4.9222,4.9222,4.8935,4.8736,4.8736,4.9076,4.9042,0.0,0.0,0.0,0.0,0.0,0.0,0.0,0.0,0.0,0.0,0.0,0.0,0.0,0.0,0.0,0.0,0.0,0.0,0.0,0.0,0.0,0.0,0.0,0.0,0.0,0.0,0.0,0.0,3.7747,3.7928,3.7704,3.8162,3.8493,0.0,0.0,0.0,0.0,0.0,0.0,4.0627,4.0826,4.1177,4.1659,4.1851,4.2057,4.2229,4.2229,4.262,4.3348,4.3348,4.3613,4.4176,4.4176,4.4176,4.4176,4.4176,4.4211,4.4219,4.3188,4.2881,4.3074,4.3519,4.3732,4.3789,4.3789,4.4021,4.4316,4.4316,4.4551,4.4884,4.4884,0.0,4.492,4.5125,0.0,0.0,0.0,0.0,4.5987,4.5987,4.6037,4.6223,4.6839,4.7086,4.7488,4.8561,4.8883,4.8799,0.0,4.8224,4.8596,4.9506,0.0,0.0,0.0,0.0,5.0297,4.9868,5.0333,5.065,5.05,5.0487,5.0418,5.0272,4.9909,4.9674,4.9674,4.926,4.9011,4.9011,4.9421,4.9392,4.8772,0.0,0.0,0.0,0.0,0.0,0.0,0.0,0.0,0.0,0.0,0.0,0.0,0.0,0.0,0.0,0.0,0.0,0.0,0.0,0.0,0.0,0.0,0.0,0.0,0.0,0.0,0.0,0.0,0.0,3.9183,3.9209,0.0,0.0,0.0,0.0,4.0336,4.0945,4.1295,4.1368,4.2024,4.2421,4.2447,4.3109,4.3819,4.4538,4.4538,4.4902,4.5623,4.5623,4.5657,4.569,4.569,4.569,4.569,4.569,4.569,4.5614,4.4279,4.3934,4.4228,4.4263,4.4204,4.4094,4.4094,4.3936,4.3746,4.3746,4.3769,4.3787,4.3787,4.3787,4.3921,4.4699,4.5281,0.0,0.0,4.7266,4.7842,4.7842,4.8071,4.824,4.8281,4.8326,4.8355,4.8415,4.8438,4.8591,0.0,4.9589,4.9654,4.8649,0.0,5.0186,4.9576,5.0156,5.0668,5.0641,5.0669,5.0493,4.9995,4.993,4.9725,4.913,4.9054,4.9065,4.9065,4.9034,4.9011,4.9011,4.9015,4.9031,4.8997,4.9568,0.0,0.0,0.0,0.0,0.0,0.0,0.0,0.0,0.0,0.0,0.0,0.0,0.0,0.0,0.0,0.0,0.0,0.0,0.0,0.0,0.0,0.0,0.0,0.0,0.0,0.0,0.0,0.0,3.9315,3.9706,0.0,4.0004,4.0654,4.1236,4.1733,4.1957,4.252,4.3462,4.3761,4.4125,4.4622,4.4887,4.5384,4.612,4.612,4.6709,4.7934,4.7934,4.8158,4.8622,4.8622,4.8622,4.8622,4.8622,4.8622,4.8597,4.8116,4.6907,4.5403,4.5548,4.5604,4.565,4.5783,4.6014,4.6206,4.6206,4.6434,4.6725,4.6725,4.6725,4.6796,4.7063,4.7272,4.7504,4.7744,4.8026,4.8244,4.8244,4.8345,4.852,4.9017,4.8843,4.8965,5.0352,5.0342,5.0264,5.0927,5.0317,4.9753,4.9866,5.0295,5.0411,4.9855,4.9986,5.0032,4.9654,4.9603,4.9521,4.9324,4.9335,4.9237,4.9034,4.9011,4.9011,4.9011,4.9011,4.9011,4.9011,4.9011,4.9011,4.9011,4.9214,4.9359,0.0,0.0,0.0,0.0,0.0,0.0,0.0,0.0,0.0,0.0,0.0,0.0,0.0,0.0,0.0,0.0,0.0,0.0,0.0,0.0,0.0,0.0,0.0,0.0,0.0,0.0,3.9673,3.9673,4.0528,4.1117,4.1117,4.1972,4.2734,4.3223,4.3481,4.415,4.5399,4.569,4.6153,4.6882,4.7139,4.7504,4.7993,4.7993,4.8489,4.9483,4.9483,4.9748,5.0203,5.0203,5.0203,5.0203,5.0203,5.0203,5.0203,5.0203,4.9119,4.7448,4.7623,4.7621,4.7567,4.7682,4.7676,4.7559,4.7384,4.7555,4.7864,4.7864,4.7864,4.7968,4.8432,4.875,4.9017,4.9519,4.9659,4.9659,4.9659,4.9507,4.9457,4.9949,4.9793,4.9933,5.136,5.1365,5.1199,5.1713,5.1207,5.0731,5.0848,5.1052,5.098,5.0436,5.0339,5.018,4.9776,4.9755,4.9755,4.9755,4.9755,4.9755,4.9755,4.9755,4.9755,4.9755,4.9755,4.9619,4.939,4.9357,4.9357,4.9357,4.9357,4.9437,4.96,0.0,0.0,0.0,0.0,0.0,0.0,0.0,0.0,0.0,0.0,0.0,0.0,0.0,0.0,0.0,0.0,0.0,0.0,0.0,0.0,0.0,0.0,0.0,3.9448,4.0004,4.0468,4.0468,4.1707,4.2587,4.2587,4.3893,4.4736,4.4803,4.5458,4.6187,4.6974,4.7669,4.8398,4.9119,4.9847,5.0203,5.0236,5.0236,5.0236,5.0278,5.0278,5.0278,5.0278,5.0278,5.0278,5.0278,5.0278,5.0278,5.0278,5.0278,5.0278,5.0295,5.0383,5.0076,4.964,4.9648,4.8823,4.7625,4.7106,4.6928,4.6928,4.6928,4.6928,4.7199,4.8646,4.9467,5.023,5.1675,5.2073,5.2073,5.2073,5.1652,5.1201,5.1201,5.1201,5.1201,5.1235,5.1235,5.1235,5.1269,5.2226,5.263,5.1426,5.1665,5.1867,5.1298,5.1201,0.0,5.1201,5.1201,5.1201,5.1201,5.1201,5.1201,5.1201,5.1201,5.1201,5.1201,5.1201,5.0871,5.0143,5.0143,5.0143,5.0143,5.0109,4.9737,4.9044,0.0,0.0,0.0,0.0,0.0,0.0,0.0,0.0,0.0,0.0,0.0,0.0,0.0,0.0,0.0,0.0,0.0,0.0,0.0,0.0,0.0,0.0,4.0878,4.0203,4.115,4.1924,4.1924,4.3197,4.4099,4.4099,4.4961,4.5955,4.7007,4.7272,4.7968,4.9218,4.9483,4.9682,4.988,5.0071,5.0452,5.1,5.0991,5.1256,5.1786,5.1786,5.1786,5.1786,5.1786,5.1786,5.1786,5.1786,5.1786,5.1786,5.1786,5.1786,5.1704,5.0782,5.0309,5.0201,5.0351,5.0256,5.0047,5.0004,4.9984,4.9984,4.9984,4.9984,5.0059,5.0457,5.0727,5.0937,5.1337,5.1439,5.1439,5.1439,5.1304,5.1201,5.1201,5.1201,5.1336,5.1886,5.1987,5.2156,5.2765,5.313,5.2885,5.1435,5.1354,5.1376,5.1225,5.1201,0.0,5.1201,5.1201,5.1201,5.1201,5.1201,5.1201,5.1201,5.1201,5.1201,5.1201,5.1201,5.11,5.0905,5.0905,5.0905,5.0905,5.0379,5.0007,0.0,0.0,0.0,0.0,0.0,0.0,0.0,0.0,0.0,0.0,0.0,0.0,0.0,0.0,0.0,0.0,0.0,0.0,0.0,0.0,0.0,0.0,4.1865,4.2289,4.2218,4.2627,4.3083,4.3389,4.4994,4.6087,4.6087,4.704,4.8001,4.8854,4.892,4.9417,5.0585,5.0651,5.0783,5.1115,5.1115,5.1322,5.1771,5.1771,5.1969,5.2391,5.2391,5.2391,5.2391,5.2391,5.2391,0.0,5.2391,5.2391,5.2391,5.2391,5.2391,0.0,0.0,0.0,0.0,0.0,5.1103,5.1195,5.1025,5.0982,5.0982,5.0982,5.0982,5.1065,5.1442,5.1568,5.1636,5.1948,5.2049,5.2049,5.2049,5.2049,5.2066,5.2131,5.2156,5.2291,5.2706,5.2807,5.2942,5.3408,5.3509,0.0,5.2325,5.2156,5.2156,5.2156,5.2156,5.2156,5.2156,5.2156,5.2156,5.2156,5.2156,5.2156,5.2156,5.2156,0.0,0.0,0.0,5.2013,5.1674,5.1649,0.0,0.0,0.0,5.0887,5.0574,0.0,0.0,0.0,4.9078,4.8774,0.0,0.0,0.0,0.0,0.0,0.0,0.0,0.0,0.0,0.0,0.0,0.0,0.0,0.0,0.0,0.0,4.3308,4.4143,4.4961,4.4515,4.4342,4.4994,4.6874,4.8166,4.8233,4.9417,5.0236,5.0311,5.0311,5.0651,5.1364,0.0,0.0,0.0,0.0,5.2391,5.2391,5.2391,5.2391,5.2391,5.2391,5.2391,5.2391,5.2391,5.2391,5.2391,5.2391,5.2391,5.2391,5.2391,5.2391,5.2391,5.2391,5.2391,5.2343,5.1813,5.1607,5.1567,5.112,0.0,0.0,5.0944,5.0944,5.1112,5.195,5.2203,5.2337,5.2985,5.3161,5.3161,5.3161,5.3161,5.3196,5.3382,5.3416,5.3416,5.3416,5.3433,5.3484,5.3484,5.3467,5.3509,5.3509,5.3509,5.3509,5.3509,5.3509,5.3509,5.3509,5.3509,5.3509,5.3509,0.0,0.0,5.3509,5.3509,5.3509,5.3509,5.3509,5.3179,5.2461,5.2435,5.2122,5.1472,5.2021,5.1995,5.1336,5.1235,5.1201,5.1167,4.9856,4.9247,0.0,0.0,0.0,0.0,0.0,0.0,0.0,0.0,0.0,0.0,0.0,0.0,0.0,0.0,0.0,4.3333,4.4515,4.5847,4.7173,4.7231,4.7198,4.7338,4.8258,4.9119,4.9715,5.0046,5.0452,5.1033,5.1099,5.1397,5.2159,5.2201,5.2259,5.2391,5.2391,5.2391,5.2391,5.2391,5.2391,5.2391,0.0,0.0,5.2391,5.2391,5.2391,5.2391,5.2391,5.2391,5.2391,5.2391,5.2391,5.2391,5.2391,5.2391,5.2409,5.2403,5.2398,5.2391,5.2457,5.2459,5.2459,5.2459,5.2459,5.2501,5.2703,5.2745,0.0,5.2922,5.2955,5.2955,5.2955,5.2955,5.2964,5.2998,5.3007,5.3007,5.3007,5.3127,5.3247,5.3247,5.3382,5.3509,5.3509,5.3509,5.3509,5.3509,5.3509,5.3509,5.3509,5.3509,5.3509,5.3509,5.3509,5.3509,5.3509,5.3509,5.3509,5.3509,5.3509,5.3441,5.3272,5.3281,5.3205,5.3069,5.257,5.2232,5.2097,5.1472,5.1201,5.1201,5.0897,5.0761,0.0,0.0,0.0,0.0,0.0,0.0,0.0,0.0,0.0,0.0,0.0,4.2057,4.2414,0.0,4.4382,4.5144,4.6179,4.7305,4.839,4.8854,4.9086,4.9086,4.9756,5.0361,5.0717,5.1082,5.1455,5.1828,5.187,5.2003,5.2391,5.2391,5.2391,5.2391,5.2391,5.2391,5.2391,5.2391,5.2391,5.2391,5.2391,5.2391,5.2391,5.2391,5.2391,5.2391,5.2391,5.2391,5.2391,5.2391,5.2391,5.2391,5.2391,5.2391,5.24,5.248,5.2507,5.2525,5.2622,5.2666,5.2666,5.2666,5.2666,5.2675,5.272,5.2746,5.2746,5.2746,5.2746,5.2746,5.2746,5.2746,5.2773,5.2877,5.2894,5.2894,5.2894,5.2972,5.305,5.305,5.3119,5.3204,5.3204,5.3289,5.3382,5.3467,5.3509,5.3509,5.3509,5.3509,5.3509,5.3509,5.3509,5.3509,5.3509,5.3509,5.3509,5.3509,5.3509,5.3509,5.3509,5.3509,5.3509,5.3509,5.3112,5.2909,5.2909,5.2528,5.2359,5.2359,5.2359,5.1945,0.0,0.0,0.0,0.0,0.0,0.0,0.0,0.0,4.1173,4.1713,4.237,4.3076,4.3896,4.4622,4.5557,4.6908,4.7736,4.8522,4.9384,5.0046,5.0477,5.0609,5.1024,5.1373,5.1505,5.206,5.2391,5.2391,5.2391,5.2391,5.2391,5.2391,5.2458,5.259,5.2581,5.2714,5.3012,5.3012,5.3078,5.3253,5.3253,5.3253,5.3253,5.3253,5.3253,5.322,5.3078,5.3012,5.3012,5.2879,5.2813,5.2813,5.2813,5.2714,5.259,5.2458,5.2391,5.2391,5.2391,5.2391,5.2391,5.2391,5.2391,5.2418,5.2542,5.2544,5.2544,5.2544,5.2544,5.2544,5.2544,5.2544,5.2589,5.2755,5.2799,5.2799,5.2799,5.2816,5.2834,5.2834,5.3002,5.3129,5.3129,5.336,5.3515,5.3391,5.3467,5.3501,5.3433,5.3433,5.3433,5.3433,5.3399,5.3374,5.3374,5.3408,5.3433,5.3433,5.3433,5.3433,5.3433,5.3391,5.3391,5.3433,5.3433,5.345,5.3509,5.3509,5.3509,5.3509,5.3509,5.2833,3.9022,3.9304,3.9413,3.9841,3.9973,4.0205,0.0,0.0,4.1804,4.3082,4.371,4.4342,4.5363,4.6153,4.6908,4.7736,4.8489,4.9458,5.0867,5.1132,5.143,5.2093,5.1662,5.1572,5.2192,5.2358,5.2391,5.2391,5.2391,5.2391,5.2391,5.2391,5.2681,5.3259,5.3292,5.3921,5.5237,5.5237,5.5577,5.6226,5.6226,5.6226,5.6226,5.6226,5.6226,5.6193,5.5544,5.5237,5.5204,5.4541,5.4286,5.4286,5.4286,5.3846,5.3226,5.2623,5.2391,5.2391,5.2391,5.2391,5.2391,5.2391,5.2391,5.24,5.2418,5.2418,5.2418,5.2418,5.2418,5.2418,5.2418,5.2418,5.2427,5.2445,5.2454,5.2454,5.2454,5.2569,5.2633,5.2633,5.3298,5.389,5.389,5.4434,5.4452,5.3156,5.3272,5.3425,5.3247,5.3221,5.3221,5.3221,5.3067,5.2955,5.2955,5.3119,5.3221,5.3221,5.3221,5.3221,5.3221,5.305,5.3041,5.3221,5.3221,5.3331,5.3509,5.3509,5.3509,5.3509,5.3509,5.3408,3.9267,3.9819,4.0159,4.0325,4.0642,4.1151,4.2035,4.2365,4.2895,4.4289,4.4876,4.553,4.6844,4.7317,4.7888,0.0,4.9701,5.0142,5.051,5.0908,5.1301,5.1604,5.0927,5.0955,5.2278,5.1935,5.1628,5.1628,5.2048,5.2286,5.2286,5.3129,5.3954,5.4674,5.4674,5.517,5.6216,5.58,5.5767,5.6041,5.561,5.5421,5.5421,5.5421,5.5421,5.5412,5.5104,5.4972,5.4939,5.4641,5.4508,5.4508,5.4508,5.4574,5.4541,5.3391,5.2747,5.2391,5.2391,5.2391,5.2391,5.2391,5.2391,5.2391,5.2391,5.2391,5.2391,5.2391,5.2391,5.2491,5.287,5.297,5.3102,5.3533,5.3632,5.3632,5.3632,5.3678,5.369,5.369,5.4029,5.4283,5.4283,5.465,5.4686,5.3935,5.4173,5.4386,5.4315,5.4306,5.4306,5.4306,5.4236,5.4182,5.4182,5.4368,5.4482,5.4482,5.4482,5.4281,5.3852,5.3774,5.3538,5.3229,5.3323,5.3408,5.3509,5.3509,5.3509,5.3509,5.3509,5.3509,3.9968,4.0482,4.0925,4.1114,4.1533,4.2162,4.3226,4.3402,4.3752,4.5163,4.5697,4.6352,4.7719,4.7959,4.847,5.0092,5.0267,5.0259,5.0316,5.0666,5.0895,5.0771,5.0199,5.037,5.1815,5.1384,5.1032,5.1032,5.1917,5.243,5.237,5.392,5.491,5.5126,5.5617,5.6134,5.6613,5.6323,5.6296,5.6495,5.5965,5.571,5.571,5.571,5.571,5.57,5.5511,5.5412,5.5379,5.518,5.5114,5.5114,5.5114,5.5303,5.5459,5.4409,5.3831,5.3584,5.3584,5.3584,5.3584,5.3584,5.3443,5.3277,5.3277,5.3144,5.2979,5.2979,5.2979,5.3078,5.359,5.3713,5.3846,5.4376,5.4508,5.4508,5.4508,5.4508,5.4508,5.4508,5.4674,5.4806,5.4806,5.5103,5.5282,5.5132,5.5347,5.5408,5.5062,5.5038,5.5011,5.4956,5.4913,5.4913,5.4913,5.5104,5.5221,5.5221,5.5221,5.5013,5.4538,5.446,5.4225,5.3715,5.387,5.3956,5.4032,5.4032,5.4067,5.4118,5.4118,5.4118,4.1533,4.1565,4.1723,4.2459,4.264,4.2923,4.3928,4.3918,4.4083,4.5495,4.6035,4.6635,4.7696,4.7933,4.8582,5.0382,4.9761,4.9525,5.0879,5.0739,5.0355,4.9884,4.9815,5.0089,0.0,5.0826,5.0816,5.0816,5.2286,5.3052,5.2807,5.4564,5.508,5.3998,5.5728,5.6596,5.6421,5.7277,5.8071,5.88,5.8767,5.8767,5.8767,5.8767,5.8767,5.8734,5.8005,5.7717,5.765,5.6922,5.6623,5.6623,5.6623,5.6216,5.5591,5.5558,5.5975,5.6557,5.6557,5.6557,5.6557,5.6557,5.6084,5.5492,5.5492,5.4995,5.4442,5.4442,5.4442,5.4442,5.4475,5.4475,5.4475,5.4508,5.4508,5.4508,5.4508,5.4508,5.4508,5.4508,5.5071,5.5558,5.5558,5.615,5.6633,5.6623,5.6633,5.6212,5.4961,5.4822,5.4749,5.4545,5.4527,5.4527,5.4527,5.4712,5.4831,5.4831,5.4831,5.4889,5.508,5.4898,5.4856,5.5055,5.5064,5.5145,5.534,5.534,5.5446,5.5631,5.5631,5.5631,4.2161,4.2084,4.1883,4.2606,4.2753,4.2975,4.3769,4.3863,4.4356,4.6429,4.6729,4.7176,4.9023,4.859,4.8437,5.0051,4.975,4.9225,4.8942,4.9317,4.9358,4.8574,4.867,0.0,0.0,0.0,0.0,5.1208,5.2223,5.2776,5.2667,5.4285,5.5059,5.4693,5.5859,5.67,5.7125,5.7596,5.7916,5.8181,5.7684,5.7452,5.7452,5.7452,5.7452,5.7419,5.7187,5.7054,5.7054,5.6789,5.669,5.669,5.669,5.6855,5.7077,5.7077,5.7541,5.7873,5.5918,5.5246,5.5246,5.5246,5.5071,5.4863,5.4863,5.4707,5.4508,5.4508,5.4508,5.4607,5.5104,5.5237,5.5336,5.5852,5.5951,5.5951,5.5951,5.5951,5.5951,5.5951,5.615,5.6316,5.6316,5.6524,5.669,5.669,5.669,5.6553,5.6113,5.6056,5.6027,5.5961,5.5951,5.5951,5.5951,5.6141,5.6264,5.6264,5.6264,5.6082,5.5638,5.5583,5.534,5.4913,5.5023,5.5113,5.521,5.521,5.5246,5.5309,5.5309,5.5309,4.2213,4.2139,4.1972,4.267,4.2824,4.3073,4.3963,4.4173,4.4699,4.6474,4.6843,4.7276,4.8696,4.8387,4.8244,4.9355,4.9186,4.8656,4.7906,4.8283,4.8427,4.7897,4.8022,4.8625,0.0,0.0,0.0,5.0983,5.2228,5.2817,5.2463,5.4117,5.4888,5.4558,5.5772,5.6353,5.6241,5.6705,5.704,5.7303,5.7446,5.7485,5.7485,5.7485,5.7485,5.7485,5.7485,5.7485,5.7485,5.7485,5.7485,5.7485,5.7485,5.7783,5.8181,5.8181,5.8502,5.8634,5.6737,5.6074,5.6074,5.6074,5.5909,5.5677,5.5677,5.5511,5.5279,5.5279,5.5279,5.5412,5.5875,5.5975,5.6107,5.659,5.669,5.669,5.669,5.669,5.6789,5.7054,5.7087,5.7187,5.7452,5.7485,5.7485,5.7485,5.7485,5.7385,5.712,5.7319,5.7485,5.7485,5.7485,5.7485,5.7485,5.7602,5.758,5.7281,5.729,5.6987,5.6311,5.6278,5.6088,5.5588,5.569,5.5788,5.5788,5.5788,5.5825,5.5898,5.5898,5.5898,4.1847,4.1856,4.1987,4.2709,4.294,4.3275,4.4484,4.4825,4.5089,4.5717,4.6405,4.6922,0.0,0.0,4.7988,4.8356,4.8095,4.7819,4.7705,4.7649,4.767,0.0,0.0,0.0,0.0,0.0,0.0,5.0232,0.0,5.3127,5.2234,5.3962,5.4502,5.3564,5.5291,5.5568,5.4112,5.5043,5.5863,5.6564,5.8231,5.8999,5.8999,5.8999,5.8999,5.8999,5.8999,5.8999,5.8999,5.8999,5.8999,5.8999,5.8999,5.8999,5.8999,5.8999,5.8999,5.8999,5.8999,5.8966,5.8899,5.8899,5.8446,5.7849,5.7849,5.7352,5.6822,5.6822,5.6822,5.6822,5.6822,5.6822,5.6822,5.6822,5.6822,5.6822,5.6822,5.6822,5.7021,5.7717,5.7849,5.8081,5.8767,5.8899,5.8899,5.8899,5.8933,5.8701,5.7949,5.8479,5.8899,5.8899,5.8899,5.8899,5.8899,5.8899,5.8601,5.7916,5.7849,5.7639,5.7111,5.712,5.712,5.712,5.712,5.712,5.712,5.712,5.7182,5.7371,5.7371,5.7371,4.2414,4.2315,4.2106,4.2792,4.332,4.3718,4.4068,4.4526,4.5237,4.6376,4.6782,4.7043,0.0,0.0,0.0,4.7284,4.7228,0.0,4.6451,4.7339,0.0,4.7161,0.0,4.9728,4.9634,5.11,0.0,0.0,5.1838,5.246,5.2199,5.2655,5.2819,5.2579,5.3693,5.4595,5.5198,5.7324,5.8529,5.8734,5.9944,6.0556,6.0556,6.0556,6.0556,6.0556,6.0556,6.0556,6.0556,6.0556,6.0556,6.0556,6.0556,6.0556,6.0556,6.0556,6.0556,6.0556,6.0556,5.9827,5.8899,5.8899,5.8767,5.8601,5.8601,5.8502,5.8346,5.8346,5.8346,5.8346,5.8346,5.8346,5.8346,5.8346,5.8346,5.8346,5.8346,5.8346,5.8403,5.8568,5.8601,5.8668,5.8866,5.8899,5.8899,5.8899,5.9363,5.9463,5.8701,5.8767,5.8899,5.8899,5.8899,5.8899,5.8899,5.8899,5.8833,5.8634,5.8601,5.8565,5.8416,5.8416,5.8416,5.8416,5.8416,5.8416,5.8416,5.8416,5.8445,5.8495,5.8495,5.8495,4.241,4.2322,4.2194,4.2851,4.3253,4.3658,4.4214,4.4619,4.521,4.6235,4.6469,4.6575,4.6943,4.6945,0.0,0.0,0.0,0.0,4.6334,4.7137,4.7781,0.0,4.8986,0.0,5.0276,5.1211,5.1819,0.0,5.2073,5.2187,5.2187,5.2187,5.2659,5.3662,5.4187,5.5182,5.668,5.8452,5.9606,6.0106,6.1422,6.2057,6.2057,6.2057,6.2057,6.2057,0.0,6.2057,6.2057,6.2057,6.2057,6.2057,6.2057,6.2057,6.2057,6.2057,6.2057,6.2057,6.2057,6.1527,6.0732,6.0092,5.986,5.986,5.986,5.986,5.986,5.986,5.986,5.986,5.986,5.986,5.986,5.986,5.986,5.986,5.986,5.986,5.996,6.0301,6.0599,6.0831,6.0831,6.0831,6.0831,6.0831,6.1196,6.1295,6.0864,6.0258,5.986,5.986,5.986,5.986,5.986,5.986,5.9728,5.9396,5.9396,5.9231,5.8899,5.8899,5.8899,5.8899,5.8899,5.8899,5.8899,5.8899,5.8899,5.8899,5.8899,5.8899,4.2092,4.2092,4.2237,4.2857,4.3061,4.3441,4.4628,4.4954,4.52,4.5768,4.5899,4.5906,4.5906,4.638,4.658,4.6007,0.0,4.6764,4.6794,4.7072,4.7717,4.891,4.9208,4.9902,5.1378,5.1045,5.1372,5.2843,5.2659,5.2486,5.2486,5.2486,5.3453,5.56,5.5827,5.6621,5.8076,5.8975,5.9875,6.0817,6.253,6.3363,6.3374,6.3527,6.3592,6.3592,6.3592,0.0,6.3592,6.3592,6.3592,6.3592,6.3592,6.3592,6.3592,6.3592,6.3592,6.3592,6.3592,6.3592,6.336,6.1881,6.1384,6.1384,6.1384,6.1384,6.1384,6.1384,6.1384,6.1384,6.1384,6.1384,6.1384,6.1384,6.1384,6.1384,6.1384,6.1384,6.1583,6.2233,6.2863,6.3294,6.3294,6.3294,6.3294,6.3294,6.3294,6.3261,6.3161,6.2123,6.1384,6.1384,6.1384,6.1384,6.1384,6.1384,6.1086,6.0324,6.0291,5.996,5.9231,5.9297,5.933,5.933,5.9429,5.9463,5.9463,5.9463,5.9463,5.9463,5.9463,5.9463,4.2092,4.2092,4.2237,4.2857,4.3409,4.4022,4.4752,4.5327,0.0,4.5889,4.5898,4.5906,4.5906,4.6007,4.6052,4.5929,4.6019,4.6245,4.6725,4.7323,4.7968,0.0,4.9742,5.0343,5.0092,5.127,0.0,0.0,0.0,5.385,5.385,5.385,5.4536,5.6057,5.7114,5.7824,5.8109,5.9661,6.053,6.0745,6.2827,6.3794,6.3817,6.466,6.505,6.505,6.505,0.0,6.505,6.505,6.505,6.505,6.505,6.505,6.505,6.505,6.505,6.505,6.505,6.505,6.4796,6.3382,6.2929,6.2929,6.2929,6.2929,6.2929,6.2929,6.2929,6.2929,6.2929,6.2929,6.2929,6.2929,6.2929,6.2929,6.2929,6.2929,6.2962,6.3095,6.3194,6.3294,6.3294,6.3294,6.3294,6.3294,6.3294,6.3062,6.2476,6.2697,6.2929,6.2929,6.2929,6.2929,6.2929,6.2929,6.2598,6.1879,6.1813,6.1494,6.0755,6.1295,6.1647,6.1647,6.2233,6.2532,6.2532,6.2532,6.2532,6.2532,6.2532,6.2532,4.2092,4.2335,4.2712,4.3351,4.399,4.4629,4.5267,4.5674,4.5906,4.5906,4.5906,4.5906,4.5906,4.5906,4.5906,4.5906,4.6156,4.658,4.7219,4.7869,4.8508,4.9146,4.9797,5.0236,0.0,5.1164,0.0,0.0,0.0,5.4386,5.4718,5.5675,5.6513,5.7184,5.8128,5.8901,5.9435,6.0288,6.1248,6.2374,6.34,6.4163,6.4704,6.5168,6.5414,6.5414,6.5414,0.0,6.5414,6.5414,6.5414,6.5414,6.5414,6.5414,6.5414,6.5414,6.5414,6.5414,6.5414,6.5414,6.5282,6.4597,6.4399,6.4399,6.4399,6.4399,6.4399,6.4399,6.4399,6.4399,6.4399,6.4399,6.4399,6.4399,6.4399,6.4399,6.4399,6.4399,6.4399,6.4399,6.4111,6.3857,6.3857,6.3559,6.3294,6.3294,6.3294,6.3161,6.2807,6.3426,6.3416,6.2289,6.2156,6.2322,6.2697,6.273,6.2741,6.2774,6.2774,6.2598,6.2256,6.2565,6.2774,6.2774,6.3128,6.3294,6.3294,6.3294,6.3095,6.273,6.273,6.2532,4.2092,4.2538,4.3148,4.3845,4.4454,4.5064,4.5732,4.5906,4.5906,4.5906,4.5906,4.5906,4.5906,4.5906,4.5906,0.0,4.6406,4.7033,4.7718,4.8321,4.896,0.0,4.9693,0.0,5.087,5.1107,0.0,0.0,0.0,0.0,5.5692,5.7384,5.8294,5.8294,5.8816,5.9499,6.035,6.035,6.1197,6.2883,6.3112,6.3744,6.4739,6.4977,6.5191,6.5414,6.5414,0.0,0.0,6.5414,6.5414,6.5414,6.5414,6.5414,6.5414,6.5414,6.5414,6.5414,6.5414,6.5414,6.5414,6.5414,6.5414,6.5414,6.5414,6.5414,6.5414,6.5414,6.5414,6.5414,6.5414,6.5414,6.5414,6.5414,6.5282,6.5182,6.5182,6.505,6.4951,6.4951,6.4641,6.4387,6.4387,6.4056,6.3747,6.3747,6.3747,6.3691,6.3559,6.4056,6.3681,6.1781,6.1837,6.2278,6.283,6.2896,6.3062,6.3493,6.3526,6.3459,6.3305,6.3459,6.3526,6.3526,6.3691,6.3747,6.3747,6.3747,6.3459,6.2896,6.2896,6.2587,4.2092,4.2538,4.3148,4.3845,4.4454,4.5064,4.5732,4.5906,4.5906,4.5906,4.5906,4.5906,4.5906,4.5906,4.5906,0.0,0.0,4.7033,4.7718,4.8321,4.896,4.9635,0.0,0.0,5.0647,5.1441,0.0,0.0,0.0,0.0,5.7473,5.8443,5.8996,5.8996,5.9069,5.9153,5.9261,5.9261,5.9369,5.9553,6.0533,6.1564,6.26,6.359,6.4554,6.5414,6.5414,0.0,0.0,6.5414,6.5414,6.5414,6.5414,6.5414,6.5414,6.5414,6.5414,6.5414,6.5414,6.5414,6.5414,6.5414,6.5414,6.5414,6.5414,6.5414,6.5414,6.5414,6.5414,6.5414,6.5414,6.5414,6.5414,6.5414,6.4884,6.4432,6.4476,6.3957,6.3493,6.3493,6.399,6.4387,6.4387,6.4862,6.5216,6.5216,6.5216,6.4995,6.4387,6.4354,6.4056,6.3194,6.4233,6.505,6.5083,6.5116,6.4862,6.4321,6.4288,6.399,6.3327,6.3957,6.4288,6.4288,6.4895,6.5216,6.5216,6.5216,6.5182,6.5116,6.5116,6.5083,4.2538,4.3119,4.3757,4.4367,4.5035,4.5558,4.5848,4.5906,4.5906,4.5906,4.5906,4.5906,4.5906,4.5906,4.6022,4.6377,4.6998,0.0,4.8234,4.8914,4.939,4.9664,5.0071,0.0,0.0,0.0,0.0,0.0,0.0,0.0,5.8006,5.8692,5.9099,5.9099,5.9099,5.9099,5.9099,5.9099,5.9419,6.0079,6.0692,6.1558,6.2606,6.3261,6.3748,6.4178,6.4608,0.0,0.0,6.5216,6.5414,6.5414,6.5414,6.5414,6.5414,6.5414,6.5414,6.5414,6.5414,6.5414,6.5414,6.5414,6.5414,6.5414,6.5414,6.5414,6.5414,6.5414,6.5414,6.5414,6.5414,6.5414,6.5414,6.5414,6.5182,6.4984,6.4995,6.4763,6.4564,6.4564,6.4476,6.4387,6.4387,6.4244,6.4144,6.4144,6.4144,6.4045,6.3758,6.4078,6.4233,6.399,6.4078,6.4299,6.4686,6.4763,6.4862,6.4995,6.4995,6.4862,6.4564,6.4862,6.4995,6.4995,6.5249,6.5414,6.5414,6.5414,6.5182,6.4796,6.4796,6.4564,4.2828,4.3496,4.4135,4.4745,4.5384,4.5906,4.5906,4.5906,4.5906,4.5906,4.5906,4.5906,4.5906,4.5906,4.6098,4.6714,4.7375,4.8026,4.8629,4.9262,4.978,4.9954,0.0,5.1017,0.0,0.0,0.0,0.0,0.0,0.0,5.7744,5.8232,5.868,5.9099,5.8906,5.8786,5.8786,5.862,5.8883,5.9635,5.9871,6.0654,6.1894,6.2126,6.2698,6.3495,0.0,0.0,0.0,6.5227,6.5547,6.5745,6.5745,6.5878,6.6044,6.6044,6.6044,6.6044,6.6044,6.6044,6.6044,6.6044,6.6044,6.6044,6.6044,6.5745,6.5414,6.5414,6.558,6.5745,6.5745,6.5911,6.6044,6.6044,6.5867,6.5745,6.5745,6.5536,6.5414,6.5414,6.5028,6.4708,6.4708,6.4277,6.3912,6.3912,6.3912,6.3912,6.3912,6.4332,6.4652,6.4708,6.4244,6.41,6.4586,6.4664,6.4895,6.5381,6.5414,6.5414,6.5414,6.5414,6.5414,6.5414,6.5414,6.5414,6.5414,6.5414,6.5282,6.5006,6.5006,6.4873,4.2828,4.3496,4.4135,4.4745,4.5384,4.5906,4.5906,4.5906,4.5906,4.5906,4.5906,4.5906,4.5906,4.5906,4.6098,4.6714,4.7375,4.8026,4.8629,4.9262,4.9954,0.0,0.0,5.1203,5.2452,0.0,0.0,0.0,0.0,0.0,5.672,5.698,5.7723,5.9069,5.8457,5.8115,5.8115,5.744,5.7137,5.715,5.712,5.8062,5.9736,5.9749,6.1268,0.0,0.0,0.0,0.0,6.5414,6.5845,6.6496,6.6496,6.6926,6.7589,6.7589,6.7589,6.7589,6.7589,6.7589,6.7589,6.7589,6.7589,6.7589,6.7589,6.6562,6.5414,6.5414,6.5944,6.6496,6.6496,6.7026,6.7589,6.7589,6.7026,6.6496,6.6496,6.59,6.5414,6.5414,6.537,6.5381,6.5381,6.5381,6.5381,6.5381,6.5381,6.5381,6.5381,6.5381,6.5381,6.5381,6.5381,6.5381,6.5381,6.5381,6.5381,6.5414,6.5414,6.5414,6.5414,6.5414,6.5414,6.5414,6.5414,6.5414,6.5414,6.5414,6.5767,6.6463,6.6463,6.686,4.4832,4.5138,4.5333,4.5535,4.5732,4.5906,4.5906,4.5906,4.5906,4.5906,4.5906,4.5906,4.5906,4.5906,4.6255,4.7317,4.7648,4.8171,0.0,0.0,0.0,5.0622,5.1465,5.251,0.0,0.0,0.0,0.0,0.0,0.0,5.6412,5.6949,5.7384,5.7709,5.7543,5.762,5.8085,5.7889,5.8231,5.9156,5.9395,6.001,6.1006,6.1243,0.0,0.0,0.0,0.0,0.0,6.5212,6.5867,6.6178,6.6948,6.739,6.7589,6.7589,6.7589,6.7589,6.7589,6.7589,6.7589,6.7589,6.7589,6.7589,6.7589,6.7258,6.6893,6.6893,6.7059,6.7258,6.7258,6.7423,6.7589,6.7589,6.7423,6.7258,6.7258,6.7059,6.6893,6.6893,6.6893,6.6893,6.6893,6.6893,6.6893,6.6893,6.6893,6.6893,6.6893,6.6893,6.6893,6.6893,6.6893,6.6496,6.5481,6.5414,6.5414,6.5414,6.5414,6.5646,6.6132,6.6132,6.6397,6.6893,6.6893,6.6893,6.6893,6.6893,6.7026,6.7258,6.7258,6.739,4.5848,4.5709,4.5573,4.5844,4.5906,4.5906,4.5906,4.5906,4.5906,4.5906,4.5906,4.5906,4.5906,4.5906,4.6324,4.7602,4.7805,4.8229,0.0,0.0,0.0,5.1319,0.0,0.0,0.0,0.0,0.0,0.0,0.0,0.0,5.5752,5.6614,5.7029,5.6941,5.7298,5.7679,5.8085,5.8085,5.8517,5.9352,5.98,6.0392,6.1058,6.126,0.0,0.0,0.0,0.0,0.0,6.5901,6.6704,6.7037,6.7753,6.8196,6.8428,6.8428,6.8428,6.8428,6.8428,6.8428,6.8428,6.8428,6.8428,6.8428,6.8428,6.8052,6.7589,6.7589,6.7787,6.8031,6.8031,6.823,6.8428,6.8428,6.8428,6.8428,6.8428,6.8428,6.8428,6.8428,6.8196,6.8031,6.8031,6.7787,6.7589,6.7589,6.7589,6.7589,6.7589,6.7589,6.7589,6.7589,6.7589,6.7224,6.6297,6.6231,6.6231,6.6231,6.6231,6.643,6.6893,6.6926,6.7125,6.7589,6.7589,6.7589,6.7589,6.7898,6.8031,6.8031,6.8296,6.8428,0.0,4.555,4.5189,4.5743,4.5906,4.5906,4.5906,4.5906,0.0,4.5906,4.5906,4.5906,4.5906,4.5935,4.6371,4.7602,4.7823,4.8287,0.0,5.0303,0.0,0.0,5.3123,0.0,0.0,0.0,0.0,0.0,0.0,0.0,5.493,5.6037,5.67,5.6726,5.7703,5.8191,5.8175,5.8175,5.8234,5.8384,5.9026,5.9668,6.031,6.031,6.1187,0.0,0.0,0.0,0.0,6.6927,6.7803,6.8432,6.8503,6.9003,6.967,6.967,6.9751,6.981,6.981,6.981,6.981,6.981,6.981,6.981,6.981,6.8826,6.7754,6.7754,6.8241,6.8783,6.8783,6.928,6.981,6.981,6.981,6.981,6.981,6.981,6.981,6.981,6.9247,6.8783,6.8783,6.8196,6.7754,6.7754,6.7754,6.7754,6.7754,6.7754,6.7754,6.7754,6.7754,6.7754,6.7754,6.7655,6.7589,6.7589,6.7589,6.7622,6.7688,6.7688,6.7688,6.7754,6.7754,6.7754,6.7754,6.844,6.8783,6.8783,6.9479,6.981,4.7321,0.0,4.634,4.5983,4.5906,4.5906,0.0,4.5906,4.5906,0.0,0.0,4.5906,4.5906,4.6272,4.6841,4.7677,4.8188,4.8757,4.9577,0.0,0.0,5.251,5.3123,0.0,0.0,0.0,0.0,0.0,0.0,5.482,5.4887,5.6104,5.6896,5.7169,5.8577,5.918,5.8876,5.8846,5.9624,6.1164,6.1313,6.1746,6.2375,6.2375,6.2622,0.0,0.0,0.0,6.3834,6.4933,6.5476,6.574,6.6605,6.759,6.849,6.849,6.9038,6.981,6.981,6.981,6.981,6.981,6.981,6.981,6.981,6.9566,6.9268,6.9268,6.9401,6.9545,6.9545,6.9678,6.981,6.981,6.981,6.981,6.981,6.981,6.981,6.981,6.9678,6.9545,6.9545,6.9401,6.9268,6.9268,6.9268,6.9268,6.9268,6.9268,6.9268,6.9268,6.9268,6.9268,6.9268,6.8263,6.7589,6.7589,6.7589,6.7854,6.8407,6.844,6.8705,6.9268,6.9268,6.9268,6.9268,6.9479,6.9545,6.9545,6.9711,6.981,4.7445,4.6945,4.6347,4.6007,4.5906,4.5906,4.5906,4.5906,4.5906,0.0,0.0,4.5906,4.5906,4.6377,4.7004,4.7677,4.8304,0.0,0.0,0.0,5.2281,5.2933,5.3297,0.0,0.0,0.0,0.0,0.0,0.0,5.5122,5.5575,5.6645,5.7323,5.7531,5.8794,5.951,5.9548,6.0176,6.1014,6.2091,6.2405,6.2734,6.3108,6.3108,6.3108,0.0,0.0,0.0,6.3916,6.5036,6.5481,6.5535,6.6164,6.7105,6.8084,6.8084,6.8818,6.9739,6.9204,6.8683,6.8229,6.8229,6.8229,6.8229,6.8229,6.8229,6.8473,6.9502,6.981,6.981,6.981,6.981,6.981,6.981,6.981,6.981,6.981,6.981,6.981,6.981,6.981,6.981,6.981,6.981,6.981,6.981,6.981,6.981,6.981,6.981,6.981,6.981,6.981,6.981,6.981,6.9069,6.8627,6.8627,6.8627,6.8804,6.9181,6.9214,6.9379,6.9798,6.981,6.981,6.981,6.9446,6.9313,6.928,6.8937,6.8793,4.7078,4.6403,4.5906,4.5906,4.5906,4.5906,4.5906,4.5906,0.0,0.0,0.0,4.5935,4.6022,4.6522,0.0,0.0,0.0,0.0,5.1369,5.2178,5.283,5.3429,5.3487,0.0,0.0,0.0,0.0,0.0,0.0,5.5809,5.6361,5.7235,5.7753,5.7795,5.8808,5.9641,6.0167,6.1393,6.2109,6.2241,6.2824,6.3108,6.3108,6.3108,6.3108,6.3151,0.0,0.0,6.4526,6.5494,6.5897,6.5897,6.5897,6.6598,6.7592,6.7592,6.8304,6.9143,6.8192,6.7208,6.6401,6.6401,6.6401,6.6401,6.6401,6.6401,6.6807,6.8732,6.9265,6.9265,6.9265,6.9265,6.9265,6.9265,6.9265,6.9265,6.9265,6.9265,6.9313,6.9514,6.9538,6.9586,6.9774,6.9679,6.9553,6.9621,6.9349,6.9139,6.9208,6.91,6.9004,6.9004,6.9136,6.922,6.922,6.9384,6.9467,6.9467,6.9666,6.981,6.981,6.9678,6.9644,6.9644,6.95,6.9467,6.9467,6.8849,6.8539,6.8518,6.7898,6.7589,4.7068,4.6403,4.5906,4.5906,4.5906,4.5906,4.5906,4.5906,4.5906,0.0,0.0,0.0,0.0,4.7201,4.7852,0.0,0.0,5.0668,0.0,0.0,5.283,5.3429,0.0,0.0,0.0,0.0,0.0,0.0,0.0,5.6273,5.639,5.7026,5.75,5.7795,5.9263,6.0193,6.0518,6.129,6.2117,6.2944,6.3048,6.3108,6.3108,6.3108,6.3108,6.3108,0.0,6.3351,6.3365,6.3521,6.3592,6.3592,6.3592,6.4265,6.5223,6.5223,6.5951,6.6898,6.6729,6.6546,6.6401,6.6401,6.6401,6.6401,6.6401,6.6401,6.6467,6.682,6.6924,6.6924,6.6924,6.6924,6.6924,6.6924,6.6924,6.6924,6.6924,6.6924,6.7208,6.8179,6.8366,6.8683,6.9622,6.8989,6.8467,6.8819,6.7251,6.6216,6.6526,6.5836,6.5312,6.5312,6.6082,6.6582,6.6582,6.7431,6.7953,6.7953,6.9103,6.981,6.981,6.9214,6.8882,6.8882,6.8263,6.7953,6.7953,6.7821,6.7754,6.7754,6.7655,6.7589,4.6726,4.6403,4.6347,4.6007,4.5906,4.5906,4.5906,4.5906,0.0,0.0,0.0,0.0,0.0,0.0,4.8624,4.9611,0.0,5.141,5.2062,5.2688,0.0,0.0,0.0,0.0,0.0,0.0,0.0,0.0,0.0,0.0,5.6868,5.7158,5.736,5.7514,5.8939,5.9856,6.0098,6.11,6.2084,6.3108,6.3108,6.3108,6.3108,6.3108,6.3108,6.3108,0.0,6.3108,6.3108,6.3108,6.3108,6.3108,6.3108,6.3777,6.4789,6.5386,6.5562,6.5481,6.5481,6.5104,6.4612,6.4612,6.4612,6.4612,6.4612,6.4612,6.4612,6.4612,6.5485,6.6401,6.6401,6.6401,6.6401,6.6401,6.6401,6.6401,6.6401,6.6112,6.5996,6.6524,6.6364,6.6316,6.6859,6.6492,6.6233,6.6395,6.554,6.497,6.5175,6.4792,6.4501,6.4501,6.5384,6.5983,6.5983,6.6976,6.7589,6.7589,6.8218,6.8627,6.8627,6.8296,6.8097,6.8097,6.7754,6.7589,6.7589,6.7191,6.6993,6.6993,6.6595,6.6397,4.6384,4.6269,4.6546,4.6041,4.5906,4.5906,4.5906,4.5906,0.0,0.0,0.0,0.0,0.0,4.831,0.0,5.0523,5.1336,5.202,5.2539,0.0,0.0,0.0,0.0,0.0,0.0,0.0,0.0,0.0,0.0,0.0,5.7274,5.7303,5.7303,5.7303,5.8652,5.951,5.9697,6.1043,6.2087,6.2876,6.2876,6.292,6.2978,6.2978,6.3036,6.3108,6.3108,6.3108,6.3108,6.3108,6.3108,6.3108,6.3108,6.3606,6.4446,6.5322,6.5077,6.4334,6.4334,6.3775,6.3108,6.3108,6.3108,6.3108,6.3108,6.3108,6.3108,6.3108,6.4215,6.5428,6.5584,6.5647,6.5584,6.5428,6.5397,6.5335,6.5179,6.475,6.4481,6.4724,6.4425,6.4195,6.445,6.4284,6.4132,6.4229,6.3789,6.3495,6.3594,6.3402,6.3338,6.3563,6.4532,6.534,6.5828,6.6611,6.7092,6.7092,6.7423,6.7589,6.7589,6.7423,6.7357,6.7357,6.7158,6.7092,6.7092,6.6529,6.633,6.6496,6.59,6.5745,4.628,4.5951,4.5974,4.5917,4.5906,4.5906,4.5906,4.5906,0.0,4.6627,0.0,0.0,0.0,4.9669,5.0593,5.0681,5.1726,5.2539,0.0,0.0,0.0,0.0,0.0,0.0,0.0,0.0,0.0,0.0,0.0,0.0,5.7303,5.7303,5.7303,5.7303,5.8838,5.9668,5.9697,6.1263,6.2101,6.2175,6.2175,6.2322,6.2629,6.2629,6.2804,6.3108,6.3108,6.3108,6.3108,6.3108,6.3108,6.3108,6.3108,6.3151,6.3237,6.3308,6.3279,6.3207,6.3207,6.3165,6.3108,6.3108,6.3108,6.3108,6.3108,6.3108,6.3108,6.3108,6.2773,6.2541,6.3186,6.3337,6.3186,6.2571,6.2421,6.224,6.1625,6.1445,6.1731,6.2781,6.2933,6.3259,6.4323,6.3626,6.3042,6.3413,6.1726,6.0543,6.093,6.0113,5.986,6.0863,6.1928,6.3341,6.5288,6.5502,6.558,6.558,6.6827,6.7589,6.7589,6.6926,6.6562,6.6562,6.5911,6.558,6.558,6.5514,6.5845,6.6496,6.6463,6.6794,4.6146,4.5906,4.5906,4.5906,4.5906,0.0,0.0,4.5906,4.608,4.6685,4.7132,0.0,0.0,0.0,5.0826,5.1207,5.2004,5.2743,0.0,0.0,0.0,0.0,0.0,0.0,0.0,0.0,0.0,0.0,0.0,0.0,5.7303,5.7303,5.7303,5.7303,5.8696,5.9452,5.9452,6.0851,6.1523,6.1523,6.1924,6.2175,6.2278,6.2278,6.2453,6.2789,6.2789,6.2905,6.3108,6.3108,6.3108,6.3108,6.3108,6.3108,6.3108,6.3108,6.3108,6.3108,6.3108,6.3108,6.3108,6.3108,6.3108,6.3108,6.3108,6.3108,6.3003,6.2614,6.2315,6.2151,6.2405,6.2181,6.1792,6.1553,6.1493,6.1419,6.115,6.0761,6.0627,6.1033,6.0795,6.0627,6.108,6.0787,6.0536,6.07,6.0009,5.9531,5.969,5.9369,5.9261,5.9673,6.0675,6.1872,6.3356,6.3475,6.3929,6.5027,6.5802,6.6231,6.6231,6.5966,6.6032,6.6496,6.6231,6.6297,6.6761,6.6761,6.6893,6.7191,6.7191,6.7324,4.6068,4.5906,4.5906,4.5906,0.0,0.0,4.6127,4.6185,4.6359,4.6986,4.7782,0.0,0.0,0.0,0.0,0.0,5.2468,5.302,0.0,0.0,0.0,0.0,0.0,0.0,0.0,0.0,0.0,0.0,0.0,0.0,0.0,5.7303,5.7303,5.7303,5.861,5.9306,5.9306,6.0555,6.1193,6.1193,6.1613,6.1865,6.1939,6.2057,6.2278,6.26,6.2702,6.2891,6.3108,6.3108,6.3108,6.3108,6.3108,6.3108,6.3108,6.3108,6.3108,6.3108,6.3108,6.3108,6.3108,6.3108,6.3108,6.3108,6.3108,6.2944,6.2674,6.2225,6.1806,6.1523,6.1732,6.1449,6.106,6.0821,6.0761,6.0745,6.0521,6.0116,5.9787,5.9787,5.9578,5.9428,5.9428,5.9608,5.9714,5.9714,5.9714,5.9714,5.9714,5.9714,5.9864,6.02,6.1191,6.21,6.2845,6.2895,6.3396,6.4608,6.5227,6.5736,6.6087,6.6099,6.633,6.6827,6.686,6.7092,6.7589,6.7589,6.7721,6.7965,6.7965,6.8064,4.6068,4.5906,4.5906,4.5906,0.0,0.0,4.6656,4.6789,4.6975,4.7677,0.0,4.9896,5.0564,0.0,0.0,5.2481,0.0,0.0,0.0,0.0,0.0,0.0,0.0,0.0,0.0,0.0,0.0,0.0,0.0,0.0,0.0,5.7303,5.7303,5.7303,5.861,5.9306,5.9306,6.0555,6.1193,6.1193,6.1193,6.1329,6.1628,6.1924,6.2278,6.2615,6.2949,6.3108,6.3108,6.3108,6.3108,6.3108,6.3108,6.3108,6.3108,6.3108,6.3108,6.3108,6.3108,6.3108,6.3108,6.3108,6.3108,6.3108,6.3108,6.2614,6.2121,6.2091,6.1148,6.028,6.094,6.109,6.094,6.028,6.01,5.9921,5.9249,5.9129,5.9129,5.9129,5.9668,6.01,6.01,6.0655,6.109,6.109,6.109,6.109,6.109,6.109,6.1505,6.2576,6.3569,6.4157,6.4157,6.4157,6.4189,6.4201,6.5279,6.6397,6.7531,6.7577,6.7589,6.7622,6.7622,6.7622,6.7622,6.7622,6.7998,6.8717,6.8717,6.9114,4.5962,4.5906,4.5906,4.5906,0.0,0.0,0.0,4.6789,0.0,0.0,4.9465,5.0448,5.0651,0.0,0.0,0.0,0.0,0.0,0.0,0.0,0.0,0.0,0.0,0.0,0.0,0.0,0.0,0.0,0.0,0.0,0.0,5.7303,5.7507,5.8,5.8842,5.951,5.9916,6.0787,6.1193,6.1193,6.1193,6.1238,6.1314,6.1613,6.1924,6.2263,6.2615,6.2876,6.3108,6.3108,6.3108,6.3108,6.3108,6.3108,6.3108,6.3108,6.3108,6.3108,6.3108,6.3108,6.3108,6.3108,6.3108,6.3003,6.2555,6.2584,6.2614,6.1672,6.1463,6.1433,6.118,6.109,6.106,6.0851,6.0805,6.0731,6.0551,6.0521,6.0521,6.0521,6.0685,6.0805,6.0805,6.097,6.109,6.109,6.109,6.109,6.109,6.109,6.1216,6.1533,6.1833,6.2008,6.2008,6.2008,6.2557,6.384,6.494,6.581,6.6394,6.7173,6.7821,6.8374,6.8374,6.8639,6.9136,6.9136,6.9268,6.9479,6.9479,6.9611,4.5906,4.5906,4.5906,4.5906,4.6069,4.6505,4.7352,0.0,0.0,0.0,0.0,5.0768,5.1017,5.19,0.0,0.0,0.0,0.0,0.0,0.0,0.0,0.0,0.0,0.0,0.0,0.0,0.0,0.0,0.0,0.0,0.0,5.7303,5.7623,5.829,5.8958,5.9597,6.0177,6.0874,6.1193,6.1193,6.1193,6.1193,6.1208,6.1464,6.1717,6.1924,6.241,6.2789,6.3108,6.3108,6.3108,6.3108,6.3108,6.3108,6.3108,6.3108,6.3108,6.3108,6.3108,6.3108,6.3048,6.2794,6.2884,6.2974,6.2315,6.2361,6.2525,6.1732,6.1613,6.1672,6.1539,6.1479,6.1433,6.115,6.109,6.109,6.109,6.109,6.109,6.109,6.1299,6.1479,6.1479,6.1732,6.1882,6.1882,6.1882,6.1882,6.1882,6.1882,6.1882,6.1882,6.1882,6.1882,6.1882,6.1882,6.2343,6.3448,6.4938,6.5904,6.6088,6.7626,6.866,6.9114,6.9147,6.9346,6.981,6.981,6.981,6.981,6.981,6.981,4.5906,4.5906,4.5906,4.5906,4.6417,4.7207,4.8426,4.8745,4.8989,4.9652,0.0,5.0958,5.1572,5.2223,5.2846,0.0,0.0,0.0,0.0,0.0,0.0,0.0,0.0,0.0,0.0,0.0,0.0,0.0,0.0,0.0,0.0,5.7303,5.7652,5.8377,5.8987,5.9626,6.0293,6.0903,6.1193,6.1193,6.1135,6.1106,6.1121,6.1435,6.1628,6.1687,6.2278,6.2731,6.3021,6.305,6.3034,6.2975,6.3003,6.2974,6.2928,6.2928,6.2928,6.2928,6.2928,6.2944,6.2914,6.2315,6.2555,6.2974,6.2315,6.2121,6.2195,6.2135,6.1702,6.1419,6.2032,6.2181,6.2032,6.1433,6.1269,6.1269,6.1269,6.1269,6.1269,6.1269,6.1762,6.2181,6.2181,6.2704,6.3108,6.3108,6.3108,6.3108,6.3108,6.3108,6.3108,6.3108,6.3108,6.3108,6.3108,6.3108,6.3108,6.3108,6.5173,6.6401,6.6401,6.8597,6.981,6.981,6.981,6.981,6.981,6.981,6.981,6.981,6.981,6.981,4.5906,4.5906,4.5906,4.5906,4.6748,4.7782,4.8542,4.9117,4.9681,5.0361,5.0987,5.1614,5.2265,5.2891,5.3342,0.0,0.0,0.0,0.0,0.0,0.0,0.0,0.0,0.0,0.0,0.0,0.0,0.0,0.0,0.0,5.7303,5.7303,5.7855,5.9045,5.9219,5.9829,6.0961,6.1135,6.1193,0.0,6.0671,6.0409,6.0453,6.1231,6.1747,6.1983,6.2145,6.2248,6.2336,6.2615,6.2389,6.1942,6.2215,6.2002,6.1523,6.1523,6.1523,6.1523,6.1523,6.1882,6.2285,6.2151,6.2555,6.2974,6.2315,6.2465,6.2764,6.2241,6.2375,6.2704,6.2854,6.2884,6.2854,6.2704,6.2674,6.2674,6.2674,6.2674,6.2674,6.2674,6.2794,6.2884,6.2884,6.3003,6.3108,6.3108,6.3108,6.3108,6.3108,6.3108,6.3108,6.3108,6.3108,6.3108,6.3108,6.3108,6.3108,6.3108,6.5173,6.6401,6.6401,6.8597,6.981,6.981,6.981,6.981,6.981,6.981,6.981,6.981,6.981,6.981,4.5906,4.5906,4.6051,4.6661,4.7312,4.8026,4.8972,4.9449,4.9983,5.0917,5.1369,5.1804,5.2481,5.3094,5.3487,0.0,0.0,0.0,0.0,0.0,0.0,0.0,0.0,0.0,0.0,0.0,0.0,0.0,0.0,5.7303,5.7303,5.7303,5.7913,5.9248,5.9306,5.9916,6.1193,6.0874,6.0729,6.07,6.0061,5.9771,5.9785,6.0296,6.0662,6.0955,6.0955,6.1115,6.139,6.1578,6.1528,6.1386,6.1542,6.1419,6.109,6.109,6.1299,6.1583,6.1583,6.2002,6.2525,6.2181,6.2555,6.2974,6.2315,6.2555,6.3048,6.2674,6.2824,6.3108,6.3108,6.3108,6.3108,6.3108,6.3108,6.3108,6.3108,6.3108,6.3108,6.3108,6.3108,6.3108,6.3108,6.3108,6.3108,6.3108,6.3108,6.3108,6.3108,6.3108,6.3108,6.3108,6.3108,6.3108,6.3108,6.3108,6.3108,6.3108,6.4651,6.5589,6.5589,6.7757,6.924,6.9798,6.981,6.981,6.981,6.981,6.981,6.981,6.981,6.981,4.5906,4.5993,4.6342,4.7515,4.7881,4.8258,4.9432,4.978,5.0204,5.1369,5.1588,5.1833,5.2614,5.3152,5.3487,0.0,0.0,0.0,0.0,0.0,0.0,0.0,0.0,0.0,0.0,0.0,0.0,0.0,0.0,5.7303,5.7303,5.7303,5.7913,5.9248,5.9306,5.9916,6.1193,6.0526,6.0206,6.0177,5.948,5.9074,5.8958,5.8958,5.919,5.9639,5.9639,5.9913,6.037,6.0483,6.0621,6.0771,6.0882,6.0924,6.0924,6.0924,6.1343,6.1942,6.1942,6.2375,6.2824,6.2285,6.2555,6.3003,6.2435,6.2674,6.3108,6.3108,6.3108,6.3108,6.3108,6.3108,6.3108,6.3108,6.3108,6.3108,6.3108,6.3108,6.3108,6.3108,6.3108,6.3108,6.3108,6.3108,6.3108,6.3108,6.3108,6.3108,6.3108,6.3108,6.3108,6.3108,6.3108,6.3108,6.3108,6.3108,6.3108,6.3108,6.4097,6.4706,6.4706,6.6684,6.8341,6.949,6.9715,6.981,6.981,6.981,6.981,6.981,6.981,6.981,4.5906,4.6272,4.6859,4.7619,4.8188,4.8786,0.0,0.0,5.0755,0.0,5.1588,5.1978,5.3168,5.3458,5.3487,0.0,0.0,0.0,0.0,0.0,0.0,0.0,0.0,0.0,0.0,0.0,0.0,0.0,5.7303,5.7303,5.7303,5.7303,5.7913,5.9248,5.9306,5.9916,6.1193,6.0526,6.0206,6.0177,5.9016,5.8145,5.7565,5.7565,5.8217,5.9335,5.9335,5.9408,5.9495,6.0042,5.9931,5.9499,6.0043,6.022,6.022,6.022,6.0655,6.1239,6.1239,6.1672,6.2211,6.2121,6.2555,6.3063,6.2988,6.3048,6.3108,6.3108,6.3108,6.3108,6.3108,6.3108,6.3108,6.3108,6.3108,6.3108,6.3108,6.3108,6.3108,6.3108,6.3108,6.3108,6.3108,6.3108,6.3108,6.3108,6.3108,6.3108,6.3108,6.3108,6.3108,6.3108,6.3108,6.3108,6.3108,6.3108,6.3108,6.3108,6.4097,6.4706,6.4706,6.5951,6.717,6.8316,6.9289,6.981,6.981,6.981,6.981,6.981,6.981,6.981,4.5906,4.6348,4.6946,4.7619,4.8246,4.8873,4.9536,5.0216,5.0871,5.1485,5.1904,5.2426,5.3342,5.3487,5.3487,0.0,0.0,0.0,0.0,0.0,0.0,0.0,0.0,0.0,0.0,0.0,0.0,0.0,5.7303,5.7303,5.7303,5.7652,5.829,5.9277,5.9626,6.0264,6.1193,6.0206,5.9306,5.8581,5.8,5.7594,5.7303,5.7303,5.7623,5.8174,5.8174,5.8274,5.8488,5.8742,5.889,5.8974,5.965,5.9963,6.016,6.0505,6.1074,6.1672,6.1672,6.2091,6.2674,6.2674,6.2854,6.3108,6.3108,6.3108,6.3108,6.3108,6.3108,6.3108,6.3108,6.3108,6.3108,6.3108,6.3108,6.3108,6.3108,6.3108,6.3108,6.3108,6.3108,6.3108,6.3108,6.3108,6.3108,6.3108,6.3108,6.3108,6.3108,6.3108,6.3108,6.3108,6.3108,6.3108,6.3108,6.3108,6.3108,6.3108,6.3535,6.3789,6.3789,6.4858,6.5683,6.6172,6.7934,6.9168,6.981,6.981,6.981,6.981,6.981,6.981,4.5906,4.6475,4.7161,4.7677,4.8391,4.9088,0.0,0.0,5.1075,0.0,5.2252,5.2962,5.3429,5.3487,5.3487,0.0,0.0,0.0,0.0,0.0,0.0,0.0,0.0,0.0,0.0,0.0,0.0,0.0,5.7303,5.7303,5.7303,5.7942,5.861,5.9277,5.9887,6.0526,6.1193,5.9945,5.8639,5.7303,5.7303,5.7303,5.7303,5.7303,5.7303,5.7303,5.7303,5.7486,5.7809,5.7878,5.8313,5.8988,5.9577,6.013,6.0669,6.1164,6.1792,6.2345,6.2345,6.2674,6.3108,6.3108,6.3108,6.3108,6.3108,6.3108,6.3108,6.3108,6.3108,6.3108,6.3108,6.3108,6.3108,6.3108,6.3108,6.3108,6.3108,6.3108,6.3108,6.3108,6.3108,6.3108,6.3108,6.3108,6.3108,6.3108,6.3108,6.3108,6.3108,6.3108,6.3108,6.3108,6.3108,6.3108,6.3108,6.3108,6.3108,6.3108,6.3108,6.3108,6.3108,6.386,6.4401,6.4706,6.6357,6.7934,6.9361,6.9361,6.9526,6.981,6.981,6.981,4.5906,4.6806,4.7764,4.7805,4.8735,4.9664,0.0,0.0,5.1572,5.1601,5.2588,5.3458,5.3487,5.3487,5.3487,5.3487,0.0,0.0,0.0,0.0,0.0,0.0,0.0,0.0,0.0,0.0,0.0,0.0,5.7303,5.7303,5.7303,5.7942,5.861,5.9277,5.9887,6.0526,6.1193,5.9945,5.8639,5.7303,5.7303,5.7303,5.7303,5.7303,5.7303,5.7303,5.7303,5.7486,5.7822,5.8057,5.8758,5.9684,5.9976,6.0864,6.2002,6.2032,6.2465,6.3048,6.3048,6.3063,6.3108,6.3108,6.3108,6.3108,6.3108,6.3108,6.3108,6.3108,6.3108,6.3108,6.3108,6.3108,6.3108,6.3108,6.3108,6.3108,6.3108,6.3108,6.3108,6.3108,6.3108,6.3108,6.3108,6.3108,6.3108,6.3108,6.3108,6.3108,6.3108,6.3108,6.3108,6.3108,6.3108,6.3108,6.3108,6.3108,6.3108,6.3108,6.3108,6.3108,6.3108,6.3165,6.3663,6.4692,6.483,6.5959,6.8204,6.8204,6.8744,6.981,6.981,6.981,4.6377,4.7114,4.7881,4.8275,4.9042,4.9693,4.9693,5.0685,5.1588,5.1588,5.2604,5.3487,5.3487,5.3487,5.3487,5.3487,0.0,0.0,0.0,0.0,0.0,0.0,0.0,0.0,0.0,0.0,0.0,0.0,0.0,5.7303,5.7303,5.8348,5.9045,5.9306,6.0293,6.0555,5.9974,5.9539,5.8639,5.7303,5.7303,5.7303,5.7303,5.7303,5.7303,5.7303,5.7303,5.736,5.7501,5.8051,5.8681,5.9467,6.0424,6.1347,6.2137,6.234,6.2566,6.2775,6.2775,6.2775,6.2818,6.3036,6.3108,6.3108,6.3108,6.3108,6.3108,6.3108,6.3108,6.3108,6.3108,6.3108,6.3108,6.3108,6.3108,6.3108,6.3108,6.3108,6.3108,6.3108,6.3108,6.3108,6.3108,6.3108,6.3108,6.3108,6.3108,6.3108,6.3108,6.3108,6.3108,6.3108,6.3108,6.3108,6.3108,6.3108,6.3108,6.3108,6.3108,6.3108,6.3108,6.3108,6.3279,6.3677,6.3677,6.4761,6.7015,6.7744,6.8316,6.8732,6.9466,6.981,4.6957,0.0,0.0,4.86,4.9204,4.9693,4.9693,5.0685,5.1588,5.1588,5.2604,5.3487,5.3487,5.3487,5.3487,5.3487,5.3487,0.0,0.0,0.0,0.0,0.0,0.0,0.0,0.0,0.0,0.0,0.0,0.0,0.0,5.7303,5.8581,5.951,5.9916,6.0758,6.0584,5.9306,5.9306,5.8639,5.7303,5.7303,5.7303,5.7303,5.7303,5.7303,5.7303,5.7536,5.7708,5.7793,5.8259,5.9009,5.9949,6.0833,6.1551,6.2121,6.2495,6.26,6.2615,6.2731,6.2775,6.2804,6.3036,6.3108,6.3108,6.3108,6.3108,6.3108,6.3108,6.3108,6.3108,6.3108,6.3108,6.3108,6.3108,6.3108,6.3108,6.3108,6.3108,6.3108,6.3108,6.3108,6.3108,6.3108,6.3108,6.3108,6.3108,6.3108,6.3108,6.3108,6.3108,6.3108,6.3108,6.3108,6.3108,6.3108,6.3108,6.3108,6.3108,6.3108,6.3108,6.3108,6.3108,6.3108,6.3108,6.3108,6.3833,6.5295,6.6396,6.717,6.7554,6.8304,6.8855,0.0,0.0,0.0,0.0,4.9204,4.9693,4.9693,5.0685,5.1588,5.1588,5.2604,5.3487,5.3487,5.3487,5.3487,5.3487,5.3487,0.0,0.0,0.0,0.0,0.0,0.0,0.0,0.0,0.0,0.0,0.0,5.7303,5.7303,5.7303,5.8581,5.9887,6.1164,6.1193,6.0584,5.9306,5.9306,5.8639,5.7303,5.7303,5.7303,5.7303,5.7303,5.7303,5.7332,5.8,5.8477,5.8733,5.8733,5.9665,6.1085,6.1115,6.1527,6.216,6.2468,6.2585,6.2644,6.2963,6.3079,6.3093,6.3108,6.3108,6.3108,6.3108,6.3108,6.3108,6.3108,6.3108,6.3108,6.3108,6.3108,6.3108,6.3108,6.3108,6.3108,6.3108,6.3108,6.3108,6.3108,6.3108,6.3108,6.3108,6.3108,6.3108,6.3108,6.3108,6.3108,6.3108,6.3108,6.3108,6.3108,6.3108,6.3108,6.3108,6.3108,6.3108,6.3108,6.3108,6.3108,6.3108,6.3108,6.3108,6.3108,6.3108,6.3108,6.3108,6.4181,6.5264,6.6349,6.6428,6.7054,4.8263,0.0,0.0,0.0,0.0,0.0,4.9693,5.0685,5.1588,5.1588,5.2604,5.3487,5.3487,5.3487,5.3487,5.3487,5.3487,5.3487,0.0,0.0,0.0,0.0,0.0,0.0,0.0,0.0,0.0,0.0,5.7303,5.7303,5.7303,5.8581,5.9887,6.1164,6.1193,6.0584,5.9306,5.9306,5.8639,5.7303,5.7303,5.7303,5.7303,5.7303,5.7303,5.7332,5.8,5.8624,5.9161,5.9597,6.0195,6.0853,6.1292,6.1866,6.2425,6.2028,6.2175,6.2585,6.2424,6.2556,6.2775,6.3021,6.3108,6.3108,6.3108,6.3108,6.3108,6.3108,6.3108,6.3108,6.3108,6.3108,6.3108,6.3108,6.3108,6.3108,6.3108,6.3108,6.3108,6.3108,6.3108,6.3108,6.3108,6.3108,6.3108,6.3108,6.3108,6.3108,6.3108,6.3108,6.3108,6.3108,6.3108,6.3108,6.3108,6.3108,6.3108,6.3108,6.3108,6.3108,6.3108,6.3108,6.3108,6.3108,6.3108,6.3108,6.3108,6.4181,6.4841,6.521,6.6872,6.7795,0.0,0.0,0.0,0.0,0.0,0.0,4.9693,5.0685,5.1588,5.1588,5.2604,5.3487,5.3487,5.3487,5.3487,5.3487,5.3487,5.3487,0.0,0.0,0.0,0.0,0.0,0.0,0.0,5.7303,5.7303,5.7303,5.7303,5.7536,5.8116,5.8871,5.9887,6.1164,6.1193,6.07,5.9684,5.9422,5.8784,5.771,5.7448,5.7303,5.7303,5.7303,5.7448,5.7768,5.8435,5.9074,5.9713,6.0351,6.0717,6.0938,6.1303,6.1672,6.1998,6.185,6.2072,6.2395,6.2483,6.2658,6.2847,6.3036,6.3108,6.3108,6.3108,6.3108,6.3108,6.3108,6.3108,6.3108,6.3108,6.3108,6.3108,6.3108,6.3108,6.3108,6.3108,6.3108,6.3108,6.3108,6.3108,6.3108,6.3108,6.3108,6.3108,6.3108,6.3108,6.3108,6.3108,6.3108,6.3108,6.3108,6.3108,6.3108,6.3108,6.3108,6.3108,6.3108,6.3108,6.3108,6.3108,6.3108,6.3108,6.3108,6.3108,6.3108,6.3108,6.3734,6.4265,6.4747,6.6541,6.7643,0.0,0.0,0.0,0.0,0.0,0.0,4.9693,5.0627,5.1514,5.1601,5.2559,5.3429,5.3487,5.3487,5.3487,5.3487,5.3487,5.3487,5.3487,0.0,0.0,0.0,0.0,0.0,5.7187,5.7303,5.7303,5.7303,5.7303,5.7855,5.9132,5.9248,5.9858,6.1048,6.1164,6.0874,6.0206,5.9597,5.8958,5.829,5.7623,5.7303,5.7303,5.739,5.7739,5.8348,5.9074,5.9713,6.0264,6.0932,6.1193,6.1193,6.1193,6.1223,6.1313,6.1806,6.2072,6.2234,6.2804,6.305,6.3108,6.3108,6.3108,6.3108,6.3108,6.3108,6.3108,6.3108,6.3108,6.3108,6.3108,6.3108,6.3108,6.3108,6.3108,6.3108,6.3108,6.3108,6.3108,6.3108,6.3108,6.3108,6.3108,6.3108,6.3108,6.3108,6.3108,6.3108,6.3108,6.3108,6.3108,6.3108,6.3108,6.3108,6.3108,6.3108,6.3108,6.3108,6.3108,6.3108,6.3108,6.3108,6.3108,6.3108,6.3108,6.3108,6.3108,6.3108,6.3649,6.4734,6.5871,6.7015,0.0,0.0,0.0,0.0,0.0,0.0,4.9693,5.0303,5.1017,5.1514,5.2223,5.2904,5.34,5.3487,5.3487,5.3487,5.3487,5.3487,5.3487,5.3487,0.0,0.0,0.0,0.0,5.7187,5.7303,5.7303,5.7303,5.7303,5.7652,5.8464,5.9016,5.9626,6.038,6.0932,6.0874,6.0206,5.9597,5.8958,5.829,5.7623,5.7303,5.7332,5.7855,5.8174,5.8377,5.951,6.009,6.0264,6.0932,6.1193,6.1193,6.1193,6.1329,6.1509,6.1404,6.1865,6.2483,6.2336,6.2643,6.3108,6.3108,6.3108,6.3108,6.3108,6.3108,6.3108,6.3108,6.3108,6.3108,6.3108,6.3108,6.3108,6.3108,6.3108,6.3108,6.3108,6.3108,6.3108,6.3108,6.3108,6.3108,6.3108,6.3108,6.3108,6.3108,6.3108,6.3108,6.3108,6.3108,6.3108,6.3108,6.3108,6.3108,6.3108,6.3108,6.3108,6.3108,6.3108,6.3108,6.3108,6.3108,6.3108,6.3108,6.3108,6.3108,6.3108,6.3108,6.3649,6.4734,6.5871,6.7015,0.0,0.0,0.0,4.9693,0.0,0.0,0.0,5.0216,5.0871,5.1485,5.2136,5.2772,5.3371,5.3487,5.3487,5.3487,5.3487,5.3487,5.3487,5.3487,5.3865,0.0,0.0,0.0,5.6781,5.7129,5.7303,5.7303,5.7303,5.7594,5.8261,5.8929,5.9568,6.0177,6.0845,6.1048,6.07,5.9771,5.9132,5.8784,5.7768,5.7303,5.7332,5.8,5.8493,5.8842,5.98,6.038,6.0729,6.1048,6.1193,6.1193,6.1193,6.1298,6.1419,6.1583,6.1939,6.2366,6.2526,6.2833,6.3108,6.3108,6.3108,6.3064,6.2905,6.2847,6.2891,6.305,6.3108,6.3108,6.3108,6.3108,6.3108,6.3108,6.3108,6.3108,6.3108,6.3108,6.3108,6.3108,6.3108,6.3108,6.3108,6.3108,6.3108,6.3108,6.3108,6.3108,6.3108,6.3108,6.3108,6.3108,6.3108,6.3108,6.3108,6.3108,6.3108,6.3108,6.3108,6.3108,6.3108,6.3108,6.3108,6.3108,6.3108,6.3108,6.3108,6.3108,6.393,6.5575,6.6729,6.7845,0.0,0.0,0.0,0.0,0.0,4.9693,0.0,0.0,0.0,5.1485,5.2136,0.0,0.0,0.0,0.0,0.0,0.0,0.0,0.0,5.3342,0.0,5.4416,0.0,0.0,5.6332,5.6955,5.7303,5.7303,5.7303,5.7536,5.8087,5.8871,5.951,6.0003,6.0787,6.1193,6.1193,5.9945,5.9306,5.9277,5.7942,5.7361,5.7507,5.8203,5.8842,5.951,6.0119,6.07,6.1193,6.1193,6.1193,6.1193,6.1193,6.1193,6.1253,6.1746,6.1998,6.2175,6.2643,6.2905,6.2992,6.2934,6.2963,6.2949,6.2615,6.26,6.2746,6.2949,6.305,6.3108,6.3108,6.3108,6.3108,6.3108,6.3108,6.3108,6.3108,6.3108,6.3108,6.3108,6.3108,6.3108,6.3108,6.3108,6.3108,6.3108,6.3108,6.3108,6.3108,6.3108,6.3108,6.3108,6.3108,6.3108,6.3108,6.3108,6.3108,6.3108,6.3108,6.3108,6.3108,6.3108,6.3108,6.3108,6.3108,6.3108,6.3108,6.3308,6.4432,6.6428,6.735,6.849,0.0,0.0,0.0,0.0,4.9693,0.0,0.0,0.0,5.0871,5.1485,0.0,0.0,0.0,0.0,0.0,0.0,0.0,0.0,5.1965,5.2791,5.3749,5.4416,5.5026,0.0,0.0,5.6955,5.7303,5.7303,5.7303,5.7332,5.7419,5.861,5.9335,5.9393,6.0584,6.1193,6.1193,5.9945,5.9306,5.9277,5.7942,5.7623,5.8203,5.8871,5.951,6.0119,6.0787,6.1135,6.1193,6.1193,6.1193,6.1193,6.1193,6.1193,6.1208,6.1283,6.1628,6.2087,6.185,6.2175,6.2615,6.2307,6.241,6.26,6.2248,6.2556,6.2992,6.2731,6.2862,6.3108,6.3108,6.3108,6.3108,6.3108,6.3108,6.3108,6.3108,6.3108,6.3108,6.3108,6.3108,6.3108,6.3108,6.3108,6.3108,6.3108,6.3108,6.3108,6.3108,6.3108,6.3108,6.3108,6.3108,6.3108,6.3108,6.3108,6.3108,6.3108,6.3108,6.3108,6.3108,6.3108,6.3108,6.3108,6.3108,6.3108,6.3108,6.404,6.5155,6.6401,6.6533,6.7764,0.0,0.0,0.0,0.0,0.0,0.0,5.0801,0.0,5.141,0.0,0.0,0.0,0.0,0.0,0.0,0.0,5.3139,0.0,0.0,0.0,5.3603,0.0,0.0,0.0,0.0,0.0,0.0,0.0,5.7303,5.7303,5.7303,5.8581,5.9306,5.9306,6.0526,6.1193,6.1193,6.0293,5.9655,5.9306,5.8348,5.8029,5.8319,5.8987,5.9626,6.0235,6.0903,6.1193,6.1193,6.1193,6.1193,6.1193,6.1193,6.1193,6.1223,6.1374,6.1583,6.1821,6.1865,6.2087,6.2278,6.216,6.2072,6.2042,6.2087,6.2307,6.2526,6.2585,6.2847,6.3108,6.3108,6.3108,6.3108,6.3108,6.3108,6.3108,6.3108,6.3108,6.3108,6.3108,6.3108,6.3108,6.3108,6.3108,6.3108,6.3108,6.3108,6.3108,6.3108,6.3108,6.3108,6.3108,6.3108,6.3108,6.3108,6.3108,6.3108,6.3108,6.3108,6.3108,6.3108,6.3108,6.3108,6.3108,6.3108,6.3108,6.3108,6.3549,6.4334,6.544,6.6781,6.7883,5.1588,0.0,0.0,0.0,0.0,0.0,0.0,0.0,0.0,0.0,0.0,0.0,0.0,0.0,0.0,0.0,0.0,5.3371,0.0,0.0,0.0,0.0,0.0,0.0,0.0,0.0,0.0,0.0,0.0,5.7303,5.7303,5.8581,5.9306,5.9306,6.0526,6.1193,6.1193,6.0526,5.9887,5.9306,5.8813,5.8581,5.861,5.9248,5.9887,6.0496,6.099,6.1193,6.1193,6.1193,6.1193,6.1193,6.1193,6.1193,6.1223,6.1434,6.1539,6.1628,6.1806,6.185,6.185,6.185,6.1732,6.1658,6.188,6.2042,6.2175,6.2512,6.2775,6.2978,6.3079,6.3108,6.3108,6.3108,6.3108,6.3108,6.3108,6.3108,6.3108,6.3108,6.3108,6.3108,6.3108,6.3108,6.3108,6.3108,6.3108,6.3108,6.3108,6.3108,6.3108,6.3108,6.3108,6.3108,6.3108,6.3108,6.3108,6.3108,6.3108,6.3108,6.3108,6.3108,6.3108,6.3108,6.3108,6.3108,6.3108,6.3108,6.3492,6.4307,6.6251,6.7516,0.0,0.0,0.0,5.1588,0.0,0.0,0.0,0.0,5.2568,0.0,0.0,0.0,0.0,0.0,0.0,0.0,0.0,0.0,0.0,0.0,0.0,0.0,0.0,0.0,0.0,0.0,0.0,0.0,0.0,0.0,5.7303,5.8581,5.9306,5.9306,6.0526,6.1193,6.1193,6.0526,5.9887,5.9306,5.9277,5.9277,5.9306,5.9887,6.0526,6.1164,6.1193,6.1193,6.1193,6.1193,6.1193,6.1193,6.1193,6.1193,6.1193,6.1208,6.1374,6.1569,6.1328,6.1223,6.1223,6.1223,6.1404,6.1613,6.1628,6.1836,6.2175,6.2512,6.26,6.2687,6.3021,6.3108,6.3108,6.3108,6.3108,6.3108,6.3108,6.3108,6.3108,6.3108,6.3108,6.3108,6.3108,6.3108,6.3108,6.3108,6.3108,6.3108,6.3108,6.3108,6.3108,6.3108,6.3108,6.3108,6.3108,6.3108,6.3108,6.3108,6.3108,6.3108,6.3108,6.3108,6.3108,6.3108,6.3108,6.3108,6.3108,6.3108,6.3122,6.3194,6.4293,6.5973,0.0,0.0,5.2878,5.2878,0.0,0.0,0.0,0.0,0.0,0.0,0.0,0.0,0.0,0.0,0.0,0.0,0.0,0.0,0.0,0.0,0.0,0.0,0.0,0.0,0.0,0.0,0.0,0.0,0.0,0.0,0.0,5.8581,5.9306,5.9306,6.0526,6.1193,6.1193,6.099,6.0351,5.9306,5.9713,5.9684,5.9335,5.9916,6.0555,6.1193,6.1193,6.1193,6.1193,6.1193,6.1193,6.1193,6.1193,6.1193,6.1193,6.1193,6.1268,6.1314,6.1238,6.1193,6.1193,6.1193,6.1374,6.1613,6.1613,6.1983,6.2454,6.2571,6.276,6.2963,6.3064,6.3108,6.3108,6.3108,6.3108,6.3108,6.3108,6.3108,6.3108,6.3108,6.3108,6.3108,6.3108,6.3108,6.3108,6.3108,6.3108,6.3108,6.3108,6.3108,6.3108,6.3108,6.3108,6.3108,6.3108,6.3108,6.3108,6.3108,6.3108,6.3108,6.3108,6.3108,6.3108,6.3108,6.3108,6.3108,6.3108,6.3108,6.3108,6.3108,6.348,6.4446,5.3487,5.3487,0.0,5.3487,5.3487,0.0,5.3487,0.0,0.0,0.0,0.0,0.0,0.0,0.0,0.0,0.0,0.0,0.0,0.0,5.3487,0.0,0.0,0.0,0.0,0.0,0.0,0.0,0.0,0.0,0.0,0.0,0.0,5.9045,5.9306,6.0293,6.0961,6.1193,6.1193,6.0671,5.9626,6.0264,6.0235,5.9626,6.0264,6.0787,6.1193,6.1193,6.1193,6.1193,6.1193,6.1193,6.1193,6.1193,6.1193,6.1193,6.1193,6.1193,6.1193,6.1193,6.1193,6.1208,6.1299,6.1449,6.1643,6.188,6.2175,6.2483,6.2717,6.2847,6.2949,6.3064,6.3108,6.3108,6.3108,6.3108,6.3108,6.3108,6.3108,6.3108,6.3108,6.3108,6.3108,6.3108,6.3108,6.3108,6.3108,6.3108,6.3108,6.3108,6.3108,6.3108,6.3108,6.3108,6.3108,6.3108,6.3108,6.3108,6.3108,6.3108,6.3108,6.3108,6.3108,6.3108,6.3108,6.3108,6.3108,6.3108,6.3108,6.3108,6.3108,6.3108,6.348]},{"header":{"parameterUnit":"m.s-1","parameterCategory":1,"la1":30.6,"la2":29.2853,"lo1":-89.7004,"lo2":-87.6739,"dy":0.0162,"dx":0.0183,"nx":112,"ny":82,"refTime":"2024-03-06T06:00:00:Z","depth":0,"parameterNumber":3,"parameterNumberName":"V-component_of_WINDS"},"data":[0.0,0.0,0.0,0.0,0.0,0.0,0.0,0.0,0.0,0.0,0.0,0.0,0.0,0.0,0.0,0.0,0.0,0.0,0.0,0.0,0.0,0.0,0.0,0.0,0.0,0.0,0.0,0.0,0.0,0.0,0.0,0.0,0.0,0.0,0.0,0.0,0.0,0.0,0.0,0.0,0.0,0.0,0.0,0.0,0.0,0.0,0.0,0.0,0.0,0.0,0.0,0.0,0.0,0.0,0.0,0.0,0.0,0.0,0.0,0.0,0.0,0.0,0.0,0.0,0.0,0.0,0.0,0.0,0.0,0.0,0.0,0.0,0.0,0.0,0.0,0.0,0.0,0.0,0.0,0.0,0.0,0.0,0.0,0.0,0.0,0.0,0.0,0.0,0.0,0.0,1.4016,1.3258,1.398,1.4532,1.4532,1.5308,1.5808,1.5808,0.0,0.0,0.0,0.0,0.0,0.0,0.0,0.0,0.0,0.0,0.0,0.0,0.0,0.0,0.0,0.0,0.0,0.0,0.0,0.0,0.0,0.0,0.0,0.0,0.0,0.0,0.0,0.0,0.0,0.0,0.0,0.0,0.0,0.0,0.0,0.0,0.0,0.0,0.0,0.0,0.0,0.0,0.0,0.0,0.0,0.0,0.0,0.0,0.0,0.0,0.0,0.0,0.0,0.0,0.0,0.0,0.0,0.0,0.0,0.0,0.0,0.0,0.0,0.0,0.0,0.0,0.0,0.0,0.0,0.0,0.0,0.0,0.0,0.0,0.0,0.0,0.0,0.0,0.0,0.0,0.0,0.0,0.0,0.0,0.0,0.0,0.0,0.0,0.0,0.0,0.0,0.0,0.0,0.0,0.0,0.0,0.0,0.0,0.0,0.0,0.0,0.0,0.0,0.0,1.4556,1.526,1.5474,1.5571,1.5571,1.5713,1.5808,1.5808,0.0,0.0,0.0,0.0,0.0,0.0,0.0,0.0,0.0,0.0,0.0,0.0,0.0,0.0,0.0,0.0,0.0,0.0,0.0,0.0,0.0,0.0,0.0,0.0,0.0,0.0,0.0,0.0,0.0,0.0,0.0,0.0,0.0,0.0,0.0,0.0,0.0,0.0,0.0,0.0,0.0,0.0,0.0,0.0,0.0,0.0,0.0,0.0,0.0,0.0,0.0,0.0,0.0,0.0,0.0,0.0,0.0,0.0,0.0,0.0,0.0,0.0,0.0,0.0,0.0,0.0,0.0,0.0,0.0,0.0,0.0,0.0,0.0,0.0,0.0,0.0,0.0,0.0,0.0,0.0,0.0,0.0,0.0,0.0,0.0,0.0,0.0,0.0,0.0,0.0,0.0,0.0,0.0,0.0,0.0,0.0,0.0,0.0,0.0,0.0,0.0,0.0,0.0,1.4819,1.5284,1.5749,1.5808,1.5808,1.5808,1.5808,1.5808,1.5808,1.5808,0.0,0.0,0.0,0.0,0.0,0.0,0.0,0.0,0.0,0.0,0.0,0.0,0.0,0.0,0.0,0.0,0.0,0.0,0.0,0.0,0.0,0.0,0.0,0.0,0.0,0.0,0.0,0.0,0.0,0.0,0.0,0.0,0.0,0.0,0.0,0.0,0.0,0.0,0.0,0.0,0.0,0.0,0.0,0.0,0.0,0.0,0.0,0.0,0.0,0.0,0.0,0.0,0.0,0.0,0.0,0.0,0.0,0.0,0.0,0.0,0.0,0.0,0.0,0.0,0.0,0.0,0.0,0.0,0.0,0.0,0.0,0.0,0.0,0.0,0.0,0.0,0.0,0.0,0.0,0.0,0.0,0.0,0.0,0.0,0.0,0.0,0.0,0.0,0.0,0.0,0.0,0.0,0.0,0.0,0.0,0.0,0.0,0.0,0.0,0.0,0.0,0.0,1.5808,1.5808,1.5808,1.5808,1.5808,1.5808,1.5808,1.5808,1.5808,1.5808,0.0,0.0,0.0,0.0,0.0,0.0,0.0,0.0,0.0,0.0,0.0,0.0,0.0,0.0,0.0,0.0,0.0,0.0,0.0,0.0,0.0,0.0,0.0,0.0,0.0,0.0,0.0,0.0,0.0,0.0,0.0,0.0,0.0,0.0,0.0,0.0,0.0,0.0,0.0,0.0,0.0,0.0,0.0,0.0,0.0,0.0,0.0,0.0,0.0,0.0,0.0,0.0,0.0,0.0,0.0,0.0,0.0,0.0,0.0,0.0,0.0,0.0,0.0,0.0,0.0,0.0,0.0,0.0,0.0,0.0,0.0,0.0,0.0,0.0,0.0,0.0,0.0,0.0,0.0,0.0,0.0,0.0,0.0,0.0,0.0,0.0,0.0,0.0,0.0,0.0,0.0,0.0,0.0,0.0,0.0,0.0,0.0,0.0,0.0,0.0,0.0,0.0,1.5808,1.5808,1.5808,1.5808,1.5808,1.5808,1.5808,1.5808,1.5808,1.5808,0.0,0.0,0.0,0.0,0.0,0.0,0.0,0.0,0.0,0.0,0.0,0.0,0.0,0.0,0.0,0.0,0.0,0.0,0.0,0.0,0.0,0.0,0.0,0.0,0.0,0.0,0.0,0.0,0.0,0.0,0.0,0.0,0.0,0.0,0.0,0.0,0.0,0.0,0.0,0.0,0.0,0.0,0.0,0.0,0.0,0.0,0.0,0.0,0.0,0.0,0.0,0.0,0.0,0.0,0.0,0.0,0.0,0.0,0.0,0.0,0.0,0.0,0.0,0.0,0.0,0.0,0.0,0.0,0.0,0.0,0.0,0.0,0.0,0.0,0.0,0.0,0.0,0.0,0.0,0.0,0.0,0.0,0.0,0.0,0.0,0.0,0.0,0.0,0.0,0.0,0.0,0.0,0.0,0.0,0.0,0.0,0.0,0.0,0.0,0.0,0.0,0.0,1.5808,1.5808,0.0,1.5808,1.5875,1.6086,1.6112,1.6179,1.6354,0.0,0.0,0.0,0.0,0.0,0.0,0.0,0.0,0.0,0.0,0.0,0.0,0.0,0.0,0.0,0.0,0.0,0.0,0.0,0.0,0.0,0.0,0.0,0.0,0.0,0.0,0.0,0.0,0.0,0.0,0.0,0.0,0.0,0.0,0.0,0.0,0.0,0.0,0.0,0.0,0.0,0.0,0.0,0.0,0.0,0.0,0.0,0.0,0.0,0.0,0.0,0.0,0.0,0.0,0.0,0.0,0.0,0.0,0.0,0.0,0.0,0.0,0.0,0.0,0.0,0.0,0.0,0.0,0.0,0.0,0.0,0.0,0.0,0.0,0.0,0.0,0.0,0.0,0.0,0.0,0.0,0.0,0.0,0.0,0.0,0.0,0.0,0.0,0.0,0.0,0.0,0.0,0.0,0.0,0.0,0.0,0.0,0.0,0.0,0.0,0.0,0.0,1.5808,1.5972,1.6051,0.0,1.6021,1.6217,1.6528,1.6555,1.6685,1.6975,0.0,0.0,0.0,0.0,0.0,0.0,0.0,0.0,0.0,0.0,0.0,0.0,0.0,0.0,0.0,0.0,0.0,0.0,0.0,0.0,0.0,0.0,0.0,0.0,0.0,0.0,0.0,0.0,0.0,0.0,0.0,0.0,0.0,0.0,0.0,0.0,0.0,0.0,0.0,0.0,0.0,0.0,0.0,0.0,0.0,0.0,0.0,0.0,0.0,0.0,0.0,0.0,0.0,0.0,0.0,0.0,0.0,0.0,0.0,0.0,0.0,0.0,0.0,0.0,0.0,0.0,0.0,0.0,0.0,0.0,0.0,0.0,0.0,0.0,0.0,0.0,0.0,0.0,0.0,0.0,0.0,0.0,0.0,0.0,0.0,0.0,0.0,0.0,0.0,0.0,0.0,0.0,0.0,0.0,0.0,0.0,0.0,0.0,0.0,0.0,0.0,0.0,1.5857,1.634,1.6603,1.6334,1.6552,1.6826,1.709,1.7115,1.7252,0.0,0.0,0.0,0.0,0.0,0.0,0.0,0.0,0.0,0.0,0.0,0.0,0.0,0.0,0.0,0.0,0.0,0.0,0.0,0.0,0.0,0.0,0.0,0.0,0.0,0.0,0.0,0.0,0.0,0.0,0.0,0.0,0.0,0.0,0.0,0.0,0.0,0.0,0.0,0.0,0.0,0.0,0.0,0.0,0.0,0.0,0.0,0.0,0.0,0.0,0.0,0.0,0.0,0.0,0.0,0.0,0.0,0.0,0.0,0.0,0.0,0.0,0.0,0.0,0.0,0.0,0.0,0.0,0.0,0.0,0.0,0.0,0.0,0.0,0.0,0.0,0.0,0.0,0.0,0.0,0.0,0.0,0.0,0.0,0.0,0.0,0.0,0.0,0.0,0.0,0.0,0.0,0.0,0.0,0.0,0.0,0.0,0.0,0.0,0.0,0.0,0.0,0.0,1.6728,1.7084,1.73,1.7224,1.7283,1.7434,1.7706,1.7733,1.7869,1.8155,0.0,0.0,0.0,0.0,0.0,0.0,0.0,0.0,0.0,0.0,0.0,0.0,0.0,0.0,0.0,0.0,0.0,0.0,0.0,0.0,0.0,0.0,0.0,0.0,0.0,0.0,0.0,0.0,0.0,0.0,0.0,0.0,0.0,0.0,0.0,0.0,0.0,0.0,0.0,0.0,0.0,0.0,0.0,0.0,0.0,0.0,0.0,0.0,0.0,0.0,0.0,0.0,0.0,0.0,0.0,0.0,0.0,0.0,0.0,0.0,0.0,0.0,0.0,0.0,0.0,0.0,0.0,0.0,0.0,0.0,0.0,0.0,0.0,0.0,0.0,0.0,0.0,0.0,0.0,0.0,0.0,0.0,0.0,0.0,0.0,0.0,0.0,0.0,0.0,0.0,0.0,0.0,0.0,0.0,0.0,0.0,0.0,0.0,0.0,0.0,0.0,0.0,1.7312,1.7662,1.7884,1.777,1.7857,1.805,1.8323,1.835,1.8473,1.8749,0.0,0.0,0.0,0.0,0.0,0.0,0.0,0.0,0.0,0.0,0.0,0.0,0.0,0.0,0.0,0.0,0.0,0.0,0.0,0.0,0.0,0.0,0.0,0.0,0.0,0.0,0.0,0.0,0.0,0.0,0.0,0.0,0.0,0.0,0.0,0.0,0.0,0.0,0.0,0.0,0.0,0.0,0.0,0.0,0.0,0.0,0.0,0.0,0.0,0.0,0.0,0.0,0.0,0.0,0.0,0.0,0.0,0.0,0.0,0.0,0.0,0.0,0.0,0.0,0.0,0.0,0.0,0.0,0.0,0.0,0.0,0.0,0.0,0.0,0.0,0.0,0.0,0.0,0.0,0.0,0.0,0.0,0.0,0.0,0.0,0.0,0.0,0.0,0.0,0.0,0.0,0.0,0.0,0.0,0.0,0.0,0.0,0.0,0.0,0.0,0.0,0.0,1.7734,1.8165,1.8388,1.8157,1.8332,1.862,1.8908,1.8934,1.9039,1.9272,0.0,0.0,0.0,0.0,0.0,0.0,0.0,0.0,0.0,0.0,0.0,0.0,0.0,0.0,0.0,0.0,0.0,0.0,0.0,0.0,0.0,0.0,0.0,0.0,0.0,0.0,0.0,0.0,0.0,0.0,0.0,0.0,0.0,0.0,0.0,0.0,0.0,0.0,0.0,0.0,0.0,0.0,0.0,0.0,0.0,0.0,0.0,0.0,0.0,0.0,0.0,0.0,0.0,0.0,0.0,0.0,0.0,0.0,0.0,0.0,1.9605,0.0,0.0,0.0,0.0,0.0,0.0,0.0,0.0,0.0,0.0,0.0,0.0,0.0,0.0,0.0,0.0,0.0,0.0,0.0,0.0,0.0,0.0,0.0,0.0,0.0,0.0,0.0,0.0,0.0,0.0,0.0,0.0,0.0,0.0,0.0,0.0,0.0,0.0,0.0,0.0,0.0,1.8627,1.892,1.9092,1.9027,1.9072,1.9142,1.9207,1.9207,1.9233,1.9298,1.926,0.0,0.0,0.0,0.0,0.0,0.0,0.0,0.0,0.0,0.0,0.0,0.0,0.0,0.0,0.0,0.0,0.0,0.0,0.0,0.0,0.0,0.0,0.0,0.0,0.0,0.0,0.0,0.0,0.0,0.0,0.0,0.0,0.0,0.0,0.0,0.0,0.0,0.0,0.0,0.0,0.0,0.0,0.0,0.0,0.0,0.0,0.0,0.0,0.0,0.0,0.0,0.0,0.0,0.0,0.0,0.0,0.0,0.0,0.0,0.0,1.9817,0.0,0.0,0.0,0.0,0.0,0.0,0.0,0.0,0.0,0.0,0.0,0.0,0.0,0.0,0.0,0.0,0.0,0.0,0.0,0.0,0.0,0.0,0.0,0.0,0.0,0.0,0.0,0.0,0.0,0.0,0.0,0.0,0.0,0.0,0.0,0.0,0.0,0.0,0.0,0.0,1.932,1.9573,1.974,1.974,1.974,1.974,1.974,2.027,2.0599,2.0599,2.1139,0.0,0.0,0.0,0.0,0.0,0.0,0.0,0.0,0.0,0.0,0.0,0.0,0.0,0.0,0.0,0.0,0.0,0.0,0.0,0.0,0.0,0.0,0.0,0.0,0.0,0.0,0.0,0.0,0.0,0.0,0.0,0.0,0.0,0.0,0.0,0.0,0.0,0.0,0.0,0.0,0.0,0.0,0.0,0.0,0.0,0.0,0.0,0.0,0.0,0.0,0.0,0.0,0.0,2.3929,2.3403,2.2467,2.347,2.3602,2.2956,2.2128,2.1976,2.2186,0.0,0.0,0.0,0.0,0.0,0.0,0.0,0.0,0.0,0.0,0.0,0.0,0.0,0.0,0.0,0.0,0.0,0.0,0.0,0.0,0.0,0.0,0.0,0.0,0.0,1.7694,1.7811,0.0,0.0,0.0,0.0,0.0,0.0,0.0,0.0,0.0,0.0,0.0,0.0,1.9869,2.0063,2.0278,2.0482,2.0509,2.0591,2.0808,2.1753,2.2314,2.2314,2.3247,2.3807,0.0,0.0,0.0,0.0,0.0,0.0,0.0,0.0,0.0,0.0,0.0,0.0,0.0,0.0,0.0,0.0,0.0,0.0,0.0,0.0,0.0,0.0,0.0,0.0,0.0,0.0,0.0,0.0,0.0,0.0,0.0,0.0,2.1653,2.1169,0.0,0.0,0.0,0.0,0.0,0.0,0.0,0.0,0.0,0.0,0.0,0.0,0.0,2.4535,2.5025,2.4988,2.5182,2.5565,2.5565,2.5498,2.5351,2.5498,2.552,2.543,2.5306,0.0,2.2031,2.1743,0.0,0.0,0.0,0.0,0.0,0.0,0.0,0.0,0.0,0.0,0.0,0.0,0.0,0.0,0.0,0.0,0.0,0.0,0.0,0.0,0.0,0.0,1.8174,1.8174,1.8203,1.8218,0.0,1.8174,1.8189,1.8233,1.822,0.0,0.0,0.0,0.0,0.0,0.0,0.0,2.0152,2.0181,2.0604,2.1643,2.1764,2.2194,2.3234,2.3459,2.3569,2.3569,2.3714,2.3807,2.3807,2.3661,0.0,0.0,0.0,0.0,0.0,0.0,0.0,0.0,0.0,0.0,0.0,0.0,0.0,0.0,0.0,0.0,0.0,0.0,0.0,0.0,0.0,0.0,0.0,0.0,0.0,0.0,0.0,0.0,0.0,2.1964,2.2247,2.2339,2.2837,2.3165,0.0,0.0,0.0,0.0,0.0,0.0,0.0,0.0,0.0,2.5264,2.5295,2.5399,2.5585,2.5585,2.5824,2.6291,2.6291,2.6436,2.6696,2.6696,2.6696,2.6696,2.6696,2.595,2.4674,2.3625,2.2778,2.2096,0.0,0.0,0.0,0.0,1.9664,1.8764,1.8764,1.8372,0.0,0.0,0.0,0.0,0.0,0.0,0.0,0.0,0.0,0.0,0.0,0.0,0.0,1.8553,1.9217,1.9687,1.9249,1.9787,2.0086,0.0,1.886,1.9021,1.9507,0.0,0.0,0.0,0.0,2.1736,2.2415,2.2647,2.2924,2.3472,2.351,2.3731,2.4261,2.4927,2.5317,2.5317,2.5951,2.6324,2.6324,2.5684,2.5241,0.0,0.0,0.0,0.0,0.0,0.0,0.0,0.0,0.0,0.0,0.0,0.0,0.0,0.0,0.0,0.0,0.0,0.0,0.0,0.0,0.0,0.0,0.0,0.0,0.0,0.0,0.0,0.0,2.3032,2.2959,2.3474,2.3846,2.4053,0.0,0.0,0.0,0.0,0.0,0.0,2.5356,2.548,2.573,2.6063,2.6199,2.6312,2.6404,2.6404,2.6664,2.712,2.712,2.7286,2.7638,2.7638,2.7638,2.7638,2.7638,2.7509,2.7197,2.5503,2.4633,2.4215,2.3323,2.2584,2.2041,2.2041,2.1307,2.0313,2.0313,1.9792,1.9125,1.9125,0.0,1.914,1.9256,0.0,0.0,0.0,0.0,1.9122,1.9122,1.9408,1.9769,2.0018,2.0918,2.1548,2.0958,2.1684,2.1967,0.0,1.9744,1.9866,2.0934,0.0,0.0,0.0,0.0,2.3387,2.4289,2.4583,2.4824,2.5127,2.5155,2.5292,2.558,2.645,2.6971,2.6971,2.7799,2.8314,2.8314,2.743,2.6835,2.6584,0.0,0.0,0.0,0.0,0.0,0.0,0.0,0.0,0.0,0.0,0.0,0.0,0.0,0.0,0.0,0.0,0.0,0.0,0.0,0.0,0.0,0.0,0.0,0.0,0.0,0.0,0.0,0.0,0.0,2.4425,2.4456,0.0,0.0,0.0,0.0,2.5159,2.5585,2.5835,2.5865,2.6291,2.654,2.6572,2.6987,2.7398,2.7796,2.7796,2.8024,2.8491,2.8491,2.8512,2.8533,2.8533,2.8533,2.8533,2.8533,2.8533,2.8433,2.725,2.6464,2.5971,2.591,2.4914,2.3491,2.3491,2.2613,2.1425,2.1425,2.1377,2.1341,2.1341,2.1341,2.1422,2.1877,2.1205,0.0,0.0,2.109,2.1332,2.1332,2.2432,2.3528,2.3532,2.3619,2.3649,2.3614,2.3657,2.334,0.0,2.0938,2.0885,2.322,0.0,2.2788,2.3996,2.4412,2.461,2.4665,2.4696,2.5141,2.6286,2.6409,2.6876,2.8027,2.8161,2.822,2.822,2.8274,2.8314,2.8314,2.8228,2.8201,2.8182,2.7001,0.0,0.0,0.0,0.0,0.0,0.0,0.0,0.0,0.0,0.0,0.0,0.0,0.0,0.0,0.0,0.0,0.0,0.0,0.0,0.0,0.0,0.0,0.0,0.0,0.0,0.0,0.0,0.0,2.4507,2.4766,0.0,2.4952,2.5388,2.5783,2.6093,2.625,2.6602,2.7158,2.7345,2.7572,2.7883,2.8048,2.8359,2.8802,2.8802,2.9187,2.9953,2.9953,3.0111,3.0401,3.0401,3.0401,3.0401,3.0401,3.0401,3.0367,2.9957,2.8868,2.7433,2.7267,2.6712,2.6008,2.5853,2.5033,2.4006,2.4006,2.3563,2.2979,2.2979,2.2979,2.3014,2.3177,2.2928,2.2626,2.2757,2.2891,2.2979,2.2979,2.34,2.3845,2.4073,2.4686,2.5134,2.4899,2.5443,2.594,2.5757,2.4169,2.3167,2.4204,2.4124,2.4332,2.5539,2.5796,2.6132,2.6925,2.702,2.7168,2.7605,2.7664,2.7839,2.8274,2.8314,2.8314,2.8314,2.8314,2.8314,2.8314,2.8314,2.8314,2.8314,2.7879,2.722,0.0,0.0,0.0,0.0,0.0,0.0,0.0,0.0,0.0,0.0,0.0,0.0,0.0,0.0,0.0,0.0,0.0,0.0,0.0,0.0,0.0,0.0,0.0,0.0,0.0,0.0,2.4745,2.4745,2.5294,2.5677,2.5677,2.6227,2.6703,2.7025,2.7203,2.7605,2.8334,2.8533,2.8822,2.9278,2.9456,2.9684,3.0007,3.0007,3.0318,3.0939,3.0939,3.1105,3.1408,3.1408,3.1408,3.1408,3.1408,3.1408,3.1408,3.1408,3.0563,2.9255,2.8969,2.8596,2.8229,2.8034,2.7266,2.6278,2.6029,2.5469,2.4883,2.4883,2.4883,2.4937,2.5229,2.504,2.4774,2.5078,2.5149,2.5149,2.5149,2.5447,2.5797,2.6037,2.6667,2.7147,2.6879,2.7455,2.8089,2.8371,2.6497,2.519,2.6171,2.603,2.6169,2.7367,2.7546,2.7833,2.8629,2.8744,2.8744,2.8744,2.8744,2.8744,2.8744,2.8744,2.8744,2.8744,2.8744,2.8666,2.8516,2.8496,2.8496,2.8496,2.8496,2.8041,2.7106,0.0,0.0,0.0,0.0,0.0,0.0,0.0,0.0,0.0,0.0,0.0,0.0,0.0,0.0,0.0,0.0,0.0,0.0,0.0,0.0,0.0,0.0,0.0,2.459,2.4952,2.5242,2.5242,2.6061,2.6643,2.6643,2.7427,2.7921,2.7962,2.8388,2.8843,2.9352,2.9787,3.0243,3.0711,3.1167,3.1408,3.1429,3.1429,3.1429,3.1436,3.1436,3.1436,3.1436,3.1436,3.1436,3.1436,3.1436,3.1436,3.1436,3.1436,3.1436,3.1409,3.1045,3.0499,2.9937,2.9924,2.9173,2.8053,2.7316,2.7077,2.7077,2.7077,2.7077,2.7233,2.8086,2.7508,2.6761,2.7621,2.787,2.787,2.787,2.8723,2.9598,2.9598,2.9598,2.9598,2.9618,2.9618,2.9618,2.9637,2.7751,2.6889,2.9206,2.862,2.8253,2.943,2.9598,0.0,2.9598,2.9598,2.9598,2.9598,2.9598,2.9598,2.9598,2.9598,2.9598,2.9598,2.9598,2.9389,2.8932,2.8932,2.8932,2.8932,2.8912,2.8697,2.8334,0.0,0.0,0.0,0.0,0.0,0.0,0.0,0.0,0.0,0.0,0.0,0.0,0.0,0.0,0.0,0.0,0.0,0.0,0.0,0.0,0.0,0.0,2.5544,2.5076,2.5698,2.6229,2.6229,2.6993,2.754,2.754,2.8078,2.8698,2.9373,2.9539,2.9973,3.0774,3.0939,3.1063,3.1188,3.1326,3.1526,3.1829,3.1843,3.2009,3.234,3.234,3.234,3.234,3.234,3.234,3.234,3.234,3.234,3.234,3.234,3.234,3.225,3.1291,3.0792,3.0594,3.0422,2.9973,2.9406,2.9015,2.8894,2.8894,2.8894,2.8894,2.892,2.9168,2.9011,2.8801,2.9045,2.9103,2.9103,2.9103,2.9341,2.9598,2.9598,2.9598,2.9676,2.9975,3.0034,3.0131,3.0483,3.0002,2.956,2.9584,2.9332,2.9215,2.9556,2.9598,0.0,2.9598,2.9598,2.9598,2.9598,2.9598,2.9598,2.9598,2.9598,2.9598,2.9598,2.9598,2.954,2.9408,2.9408,2.9408,2.9408,2.9068,2.8853,0.0,0.0,0.0,0.0,0.0,0.0,0.0,0.0,0.0,0.0,0.0,0.0,0.0,0.0,0.0,0.0,0.0,0.0,0.0,0.0,0.0,0.0,2.6176,2.6457,2.6349,2.6652,2.6954,2.7129,2.8098,2.8781,2.8781,2.9394,2.9994,3.0546,3.0587,3.0898,3.1609,3.165,3.1733,3.194,3.194,3.205,3.2291,3.2291,3.2415,3.2698,3.2698,3.2698,3.2698,3.2698,3.2698,0.0,3.2698,3.2698,3.2698,3.2698,3.2698,0.0,0.0,0.0,0.0,0.0,3.0839,3.061,3.0131,2.9974,2.9974,2.9974,2.9974,2.9986,3.0038,3.0055,3.0094,3.0257,3.0316,3.0316,3.0316,3.0316,3.0288,3.0174,3.0131,3.021,3.043,3.0488,3.0566,3.0854,3.0913,0.0,3.0229,3.0131,3.0131,3.0131,3.0131,3.0131,3.0131,3.0131,3.0131,3.0131,3.0131,3.0131,3.0131,3.0131,0.0,0.0,0.0,3.0067,2.9872,2.9838,0.0,0.0,0.0,2.9361,2.9199,0.0,0.0,0.0,2.8353,2.8177,0.0,0.0,0.0,0.0,0.0,0.0,0.0,0.0,0.0,0.0,0.0,0.0,0.0,0.0,0.0,0.0,2.7111,2.7617,2.8078,2.7833,2.7741,2.8098,2.929,3.0098,3.0139,3.0898,3.1429,3.1457,3.1457,3.165,3.2057,0.0,0.0,0.0,0.0,3.2698,3.2698,3.2698,3.2698,3.2698,3.2698,3.2698,3.2698,3.2698,3.2698,3.2698,3.2698,3.2698,3.2698,3.2698,3.2698,3.2698,3.2698,3.2698,3.2628,3.1926,3.1664,3.1581,3.0887,0.0,0.0,3.0648,3.0648,3.0673,3.0792,3.0826,3.0906,3.1269,3.1354,3.1354,3.1354,3.1354,3.1296,3.1054,3.0995,3.0995,3.0995,3.0966,3.0957,3.0957,3.0908,3.0913,3.0913,3.0913,3.0913,3.0913,3.0913,3.0913,3.0913,3.0913,3.0913,3.0913,0.0,0.0,3.0913,3.0913,3.0913,3.0913,3.0913,3.0703,3.0307,3.0273,3.0112,2.9755,3.0053,3.0019,2.9676,2.9618,2.9598,2.9579,2.8803,2.8451,0.0,0.0,0.0,0.0,0.0,0.0,0.0,0.0,0.0,0.0,0.0,0.0,0.0,0.0,0.0,2.7143,2.7833,2.8649,2.9477,2.9531,2.951,2.958,3.0173,3.0711,3.1084,3.1291,3.1526,3.185,3.1891,3.2078,3.2553,3.256,3.2615,3.2698,3.2698,3.2698,3.2698,3.2698,3.2698,3.2698,0.0,0.0,3.2698,3.2698,3.2698,3.2698,3.2698,3.2698,3.2698,3.2698,3.2698,3.2698,3.2698,3.2698,3.2669,3.2309,3.2168,3.2105,3.1695,3.154,3.154,3.154,3.154,3.1546,3.1589,3.1595,0.0,3.1681,3.1701,3.1701,3.1701,3.1701,3.1686,3.1629,3.1614,3.1614,3.1614,3.1412,3.1208,3.1208,3.1054,3.0913,3.0913,3.0913,3.0913,3.0913,3.0913,3.0913,3.0913,3.0913,3.0913,3.0913,3.0913,3.0913,3.0913,3.0913,3.0913,3.0913,3.0913,3.0874,3.0776,3.0762,3.0737,3.0659,3.0351,3.0156,3.0078,2.9755,2.9598,2.9598,2.9422,2.9344,0.0,0.0,0.0,0.0,0.0,0.0,0.0,0.0,0.0,0.0,0.0,2.6312,2.6551,0.0,2.775,2.8226,2.8856,2.9559,3.0256,3.0546,3.0691,3.0691,3.1091,3.145,3.1692,3.1919,3.2133,3.2346,3.2353,3.2436,3.2698,3.2698,3.2698,3.2698,3.2698,3.2698,3.2698,3.2698,3.2698,3.2698,3.2698,3.2698,3.2698,3.2698,3.2698,3.2698,3.2698,3.2698,3.2698,3.2698,3.2698,3.2698,3.2698,3.2698,3.2684,3.2555,3.2512,3.2483,3.2326,3.2254,3.2254,3.2254,3.2254,3.224,3.209,3.2047,3.2047,3.2047,3.2047,3.2047,3.2047,3.2047,3.2004,3.1831,3.1802,3.1802,3.1802,3.1672,3.1542,3.1542,3.1426,3.1359,3.1359,3.1214,3.1054,3.0908,3.0913,3.0913,3.0913,3.0913,3.0913,3.0913,3.0913,3.0913,3.0913,3.0913,3.0913,3.0913,3.0913,3.0913,3.0913,3.0913,3.0913,3.0913,3.0664,3.0547,3.0547,3.0346,3.0249,3.0249,3.0249,3.0028,0.0,0.0,0.0,0.0,0.0,0.0,0.0,0.0,2.6754,2.6271,2.6621,2.7113,2.7496,2.7883,2.845,2.9311,2.9829,3.0339,3.0877,3.1291,3.156,3.1643,3.1864,3.2043,3.2126,3.2491,3.2698,3.2698,3.2698,3.2698,3.2698,3.2698,3.2739,3.2822,3.2836,3.2919,3.3105,3.3105,3.3147,3.3236,3.3236,3.3236,3.3236,3.3236,3.3236,3.3215,3.3147,3.3105,3.3105,3.3023,3.2981,3.2981,3.2981,3.2919,3.2822,3.2739,3.2698,3.2698,3.2698,3.2698,3.2698,3.2698,3.2698,3.2655,3.2455,3.2377,3.2377,3.2377,3.2377,3.2377,3.2377,3.2377,3.2305,3.2032,3.196,3.196,3.196,3.1932,3.1903,3.1903,3.1926,3.1943,3.1943,3.1785,3.1523,3.1117,3.0986,3.0928,3.0966,3.0966,3.0966,3.0966,3.1025,3.1068,3.1068,3.101,3.0966,3.0966,3.0966,3.0966,3.0966,3.1039,3.1039,3.0966,3.0966,3.0937,3.0913,3.0913,3.0913,3.0913,3.0913,3.0522,2.8498,2.8442,2.8357,2.8026,2.7973,2.7777,0.0,0.0,2.7784,2.7249,2.7863,2.847,2.8466,2.8822,2.9311,2.9829,3.0318,3.0905,3.1747,3.1912,3.2098,3.2512,3.2243,3.2167,3.2574,3.2677,3.2698,3.2698,3.2698,3.2698,3.2698,3.2698,3.2899,3.33,3.3321,3.3714,3.4558,3.4558,3.475,3.5112,3.5112,3.5112,3.5112,3.5112,3.5112,3.5092,3.4729,3.4558,3.4537,3.4123,3.3942,3.3942,3.3942,3.3687,3.3279,3.2843,3.2698,3.2698,3.2698,3.2698,3.2698,3.2698,3.2698,3.2684,3.2655,3.2655,3.2655,3.2655,3.2655,3.2655,3.2655,3.2655,3.2641,3.2612,3.2598,3.2598,3.2598,3.2412,3.2234,3.2234,3.2342,3.242,3.242,3.2728,3.2698,3.1821,3.1243,3.0981,3.1208,3.1252,3.1252,3.1252,3.1513,3.1701,3.1701,3.1426,3.1252,3.1252,3.1252,3.1252,3.1252,3.1542,3.1556,3.1252,3.1252,3.1141,3.0913,3.0913,3.0913,3.0913,3.0913,3.0854,2.8825,2.893,2.9127,2.8963,2.9124,2.9218,2.8839,2.9048,2.9172,2.8625,2.9299,2.9869,2.9485,3.0344,3.1043,0.0,3.1473,3.2233,3.2959,3.3278,3.3534,3.3713,3.4169,3.3987,3.2806,3.3346,3.3748,3.3748,3.3962,3.4097,3.4097,3.3725,3.3735,3.4205,3.4205,3.4516,3.5128,3.491,3.4889,3.504,3.477,3.4631,3.4631,3.4631,3.4631,3.4646,3.4475,3.4392,3.4371,3.4185,3.4102,3.4102,3.4102,3.4143,3.4123,3.3383,3.294,3.2698,3.2698,3.2698,3.2698,3.2698,3.2698,3.2698,3.2698,3.2698,3.2698,3.2698,3.2698,3.276,3.3037,3.3099,3.3182,3.3451,3.3513,3.3513,3.3513,3.344,3.3346,3.3346,3.3393,3.3428,3.3428,3.3428,3.3368,3.3173,3.2631,3.2276,3.2394,3.2409,3.2409,3.2409,3.2528,3.2616,3.2616,3.2306,3.2113,3.2113,3.2113,3.1994,3.1721,3.1853,3.1714,3.1315,3.1156,3.101,3.0913,3.0913,3.0913,3.0913,3.0913,3.0913,2.9256,2.9412,2.9734,2.9871,3.0159,3.0422,3.0478,3.0567,3.0476,2.9928,3.0606,3.1173,3.073,3.1932,3.2713,3.195,3.2761,3.3622,3.3958,3.4416,3.4775,3.4955,3.5704,3.5598,3.4032,3.468,3.5196,3.5196,3.5287,3.5573,3.6077,3.4953,3.4856,3.6035,3.5346,3.5332,3.611,3.5473,3.5221,3.5345,3.5013,3.4832,3.4832,3.4832,3.4832,3.4848,3.4708,3.4646,3.4625,3.4501,3.446,3.446,3.446,3.4599,3.4718,3.404,3.3637,3.3443,3.3443,3.3443,3.3443,3.3443,3.3374,3.3271,3.3271,3.3188,3.3085,3.3085,3.3085,3.3147,3.3507,3.3605,3.3687,3.4019,3.4102,3.4102,3.4102,3.4102,3.4102,3.4102,3.4205,3.4288,3.4288,3.4182,3.4189,3.443,3.4083,3.3684,3.3351,3.3316,3.3361,3.3451,3.3445,3.3445,3.3445,3.313,3.2935,3.2935,3.2935,3.275,3.2326,3.238,3.2241,3.1799,3.1613,3.1466,3.1412,3.1412,3.1353,3.1265,3.1265,3.1265,3.0159,3.0181,3.0296,3.0813,3.0962,3.0971,3.0974,3.1326,3.1498,3.0976,3.1639,3.2352,3.2323,3.3427,3.3998,3.3012,3.408,3.4899,3.452,3.4933,3.5484,3.6077,3.6172,3.6392,0.0,3.6906,3.692,3.692,3.6335,3.6739,3.8499,3.6179,3.6177,3.9187,3.6755,3.6208,3.79,3.6666,3.6287,3.6742,3.6722,3.6722,3.6722,3.6722,3.6722,3.6701,3.6246,3.6044,3.6002,3.5547,3.5361,3.5361,3.5361,3.5128,3.4801,3.478,3.4998,3.5319,3.5319,3.5319,3.5319,3.5319,3.5045,3.4738,3.4738,3.4428,3.406,3.406,3.406,3.406,3.4081,3.4081,3.4081,3.4102,3.4102,3.4102,3.4102,3.4102,3.4102,3.4102,3.4454,3.478,3.478,3.5086,3.5345,3.5361,3.5345,3.4913,3.3742,3.3595,3.3714,3.4042,3.4072,3.4072,3.4072,3.3774,3.358,3.358,3.358,3.341,3.3095,3.3395,3.339,3.306,3.3045,3.291,3.2659,3.2659,3.2477,3.2159,3.2159,3.2159,3.1806,3.1713,3.1525,3.2124,3.2253,3.2348,3.2721,3.2922,3.2915,3.251,3.2967,3.3418,3.3359,3.4799,3.5739,3.4965,3.5527,3.6383,3.7216,3.6848,3.6858,3.7822,3.8584,0.0,0.0,0.0,0.0,3.9204,3.9353,3.9657,4.0254,3.899,3.8709,3.9692,3.8033,3.7551,3.8463,3.6892,3.6168,3.6333,3.6023,3.5878,3.5878,3.5878,3.5878,3.5857,3.5712,3.563,3.563,3.5464,3.5402,3.5402,3.5402,3.5506,3.5666,3.5666,3.5956,3.6163,3.4941,3.4543,3.4543,3.4543,3.4454,3.4345,3.4345,3.4226,3.4102,3.4102,3.4102,3.4164,3.4475,3.4558,3.462,3.49,3.4962,3.4962,3.4962,3.4962,3.4962,3.4962,3.5086,3.519,3.519,3.5299,3.5402,3.5402,3.5402,3.5252,3.4851,3.4794,3.484,3.4947,3.4962,3.4962,3.4962,3.4656,3.4457,3.4457,3.4457,3.4304,3.3908,3.3999,3.3871,3.3445,3.3265,3.3115,3.303,3.303,3.297,3.2864,3.2864,3.2864,3.3147,3.3052,3.2884,3.345,3.3571,3.3633,3.3887,3.4318,3.4532,3.4057,3.4741,3.5403,3.5319,3.6525,3.7291,3.6667,3.7022,3.7716,3.8664,3.8256,3.8262,3.9417,4.0184,4.0621,0.0,0.0,0.0,4.101,4.1265,4.1591,4.2036,4.0734,4.0154,4.0601,3.8916,3.828,3.8857,3.7332,3.6601,3.677,3.618,3.5899,3.5899,3.5899,3.5899,3.5899,3.5899,3.5899,3.5899,3.5899,3.5899,3.5899,3.5899,3.6085,3.6333,3.6333,3.6556,3.6639,3.5474,3.506,3.506,3.506,3.4957,3.4812,3.4812,3.4708,3.4563,3.4563,3.4563,3.4646,3.4936,3.4998,3.5081,3.534,3.5402,3.5402,3.5402,3.5402,3.5464,3.563,3.565,3.5712,3.5878,3.5899,3.5899,3.5899,3.5899,3.5837,3.5671,3.5795,3.5899,3.5899,3.5899,3.5899,3.5899,3.571,3.5523,3.5339,3.5323,3.5071,3.4529,3.4508,3.4371,3.4064,3.3897,3.3811,3.3811,3.3811,3.375,3.3629,3.3629,3.3629,3.4228,3.4217,3.4304,3.4778,3.4928,3.4887,3.4618,3.5575,3.6309,3.5578,3.6789,3.8018,0.0,0.0,3.8687,3.81,3.8492,3.8896,3.8912,3.9104,3.9691,0.0,0.0,0.0,0.0,0.0,0.0,4.229,0.0,4.252,4.3733,4.1454,4.0676,4.1967,3.953,3.8594,3.9428,3.8118,3.768,3.8108,3.7276,3.6867,3.6867,3.6867,3.6867,3.6867,3.6867,3.6867,3.6867,3.6867,3.6867,3.6867,3.6867,3.6867,3.6867,3.6867,3.6867,3.6867,3.6867,3.6846,3.6804,3.6804,3.6499,3.6126,3.6126,3.5816,3.5485,3.5485,3.5485,3.5485,3.5485,3.5485,3.5485,3.5485,3.5485,3.5485,3.5485,3.5485,3.5609,3.6044,3.6126,3.6271,3.6722,3.6804,3.6804,3.6804,3.6825,3.668,3.6188,3.6519,3.6804,3.6804,3.6804,3.6804,3.6804,3.6804,3.6618,3.6168,3.6126,3.5799,3.5019,3.5003,3.5003,3.5003,3.5003,3.5003,3.5003,3.5003,3.4827,3.4515,3.4515,3.4515,3.5807,3.5743,3.5567,3.6086,3.6551,3.6867,3.6814,3.7362,3.7791,3.7388,3.7694,3.8116,0.0,0.0,0.0,3.9544,3.9673,0.0,4.058,4.0387,0.0,4.1724,0.0,4.318,4.3289,4.3982,0.0,0.0,4.3233,4.3462,4.3776,4.3164,4.2963,4.3318,4.1738,4.1398,4.2474,4.0513,3.9595,3.971,3.8442,3.7839,3.7839,3.7839,3.7839,3.7839,3.7839,3.7839,3.7839,3.7839,3.7839,3.7839,3.7839,3.7839,3.7839,3.7839,3.7839,3.7839,3.7839,3.7384,3.6804,3.6804,3.6722,3.6618,3.6618,3.6556,3.6437,3.6437,3.6437,3.6437,3.6437,3.6437,3.6437,3.6437,3.6437,3.6437,3.6437,3.6437,3.6494,3.6597,3.6618,3.666,3.6784,3.6804,3.6804,3.6804,3.7094,3.7156,3.668,3.6722,3.6804,3.6804,3.6804,3.6804,3.6804,3.6804,3.6763,3.6639,3.6618,3.6529,3.6325,3.6325,3.6325,3.6325,3.6325,3.6325,3.6325,3.6325,3.6277,3.6198,3.6198,3.6198,3.707,3.6993,3.6902,3.7456,3.7828,3.8077,3.7971,3.8638,3.9149,3.8667,3.9057,3.9538,3.9828,4.0006,0.0,0.0,0.0,0.0,4.1537,4.1338,4.149,0.0,4.3316,0.0,4.3801,4.4273,4.4404,0.0,4.3864,4.379,4.379,4.379,4.3772,4.3722,4.3006,4.2751,4.2979,4.1959,4.1134,4.047,3.9319,3.8754,3.8754,3.8754,3.8754,3.8754,0.0,3.8754,3.8754,3.8754,3.8754,3.8754,3.8754,3.8754,3.8754,3.8754,3.8754,3.8754,3.8754,3.8423,3.7926,3.755,3.7405,3.7405,3.7405,3.7405,3.7405,3.7405,3.7405,3.7405,3.7405,3.7405,3.7405,3.7405,3.7405,3.7405,3.7405,3.7405,3.7467,3.7657,3.7844,3.7988,3.7988,3.7988,3.7988,3.7988,3.8216,3.8278,3.8009,3.7653,3.7405,3.7405,3.7405,3.7405,3.7405,3.7405,3.7322,3.7115,3.7115,3.7011,3.6804,3.6804,3.6804,3.6804,3.6804,3.6804,3.6804,3.6804,3.6804,3.6804,3.6804,3.6804,3.79,3.79,3.8031,3.8568,3.8751,3.8794,3.8688,3.962,4.0343,3.9698,4.0497,4.1311,4.1311,4.0719,4.0491,4.1199,0.0,4.0696,4.2018,4.2059,4.2333,4.3343,4.3655,4.3931,4.4319,4.4226,4.4265,4.4587,4.426,4.4041,4.4041,4.4041,4.4039,4.4053,4.4208,4.389,4.3072,4.3366,4.2857,4.1579,4.0486,3.9979,3.9962,3.9792,3.9688,3.9688,3.9688,0.0,3.9688,3.9688,3.9688,3.9688,3.9688,3.9688,3.9688,3.9688,3.9688,3.9688,3.9688,3.9688,3.9544,3.8667,3.8357,3.8357,3.8357,3.8357,3.8357,3.8357,3.8357,3.8357,3.8357,3.8357,3.8357,3.8357,3.8357,3.8357,3.8357,3.8357,3.8481,3.8841,3.9233,3.9502,3.9502,3.9502,3.9502,3.9502,3.9502,3.9482,3.942,3.8795,3.8357,3.8357,3.8357,3.8357,3.8357,3.8357,3.8171,3.7695,3.7674,3.7467,3.7011,3.7053,3.7074,3.7074,3.7136,3.7156,3.7156,3.7156,3.7156,3.7156,3.7156,3.7156,3.79,3.79,3.8031,3.8568,3.9064,3.9551,3.9965,4.0612,0.0,4.098,4.1145,4.1311,4.1311,4.1199,4.1148,4.1286,4.1186,4.1343,4.2095,4.254,4.3049,0.0,4.4641,4.5081,4.4659,4.5037,0.0,0.0,0.0,4.5211,4.5211,4.5211,4.5609,4.6467,4.7396,4.7825,4.7663,4.698,4.6499,4.6217,4.3687,4.2475,4.244,4.1218,4.0672,4.0672,4.0672,0.0,4.0672,4.0672,4.0672,4.0672,4.0672,4.0672,4.0672,4.0672,4.0672,4.0672,4.0672,4.0672,4.0489,3.9582,3.9275,3.9275,3.9275,3.9275,3.9275,3.9275,3.9275,3.9275,3.9275,3.9275,3.9275,3.9275,3.9275,3.9275,3.9275,3.9275,3.9296,3.9378,3.944,3.9502,3.9502,3.9502,3.9502,3.9502,3.9502,3.9358,3.8968,3.913,3.9275,3.9275,3.9275,3.9275,3.9275,3.9275,3.9068,3.8596,3.8555,3.8402,3.7964,3.8278,3.8451,3.8451,3.8841,3.9027,3.9027,3.9027,3.9027,3.9027,3.9027,3.9027,3.79,3.8097,3.8437,3.9012,3.9587,4.0162,4.0737,4.1102,4.1311,4.1311,4.1311,4.1311,4.1311,4.1311,4.1311,4.1311,4.1559,4.1964,4.2539,4.3101,4.3676,4.4251,4.4813,4.5084,0.0,4.5217,0.0,0.0,0.0,4.6271,4.5939,4.6743,4.7446,4.7983,4.8802,4.8852,4.8076,4.7634,4.6653,4.5136,4.3752,4.2695,4.1944,4.1218,4.09,4.09,4.09,0.0,4.09,4.09,4.09,4.09,4.09,4.09,4.09,4.09,4.09,4.09,4.09,4.09,4.0817,4.0365,4.0241,4.0241,4.0241,4.0241,4.0241,4.0241,4.0241,4.0241,4.0241,4.0241,4.0241,4.0241,4.0241,4.0241,4.0241,4.0241,4.0241,4.0241,4.0037,3.9854,3.9854,3.9668,3.9502,3.9502,3.9502,3.942,3.9175,3.9585,3.9602,3.8899,3.8816,3.892,3.913,3.9151,3.9134,3.9154,3.9154,3.9068,3.8878,3.9047,3.9154,3.9154,3.9399,3.9502,3.9502,3.9502,3.9378,3.9151,3.9151,3.9027,3.79,3.828,3.8829,3.9456,4.0005,4.0554,4.1155,4.1311,4.1311,4.1311,4.1311,4.1311,4.1311,4.1311,4.1311,0.0,4.1807,4.2395,4.2918,4.3533,4.4108,0.0,4.4695,0.0,4.5254,4.534,0.0,0.0,0.0,0.0,4.6965,4.8231,4.8969,4.8969,4.938,4.9047,4.7871,4.7871,4.672,4.4492,4.4166,4.3249,4.1817,4.1519,4.1182,4.09,4.09,0.0,0.0,4.09,4.09,4.09,4.09,4.09,4.09,4.09,4.09,4.09,4.09,4.09,4.09,4.09,4.09,4.09,4.09,4.09,4.09,4.09,4.09,4.09,4.09,4.09,4.09,4.09,4.0817,4.0755,4.0755,4.0672,4.061,4.061,4.0368,4.0185,4.0185,3.9978,3.9809,3.9809,3.9809,3.9751,3.9668,3.9978,3.9768,3.8605,3.8664,3.8916,3.9213,3.9254,3.9358,3.9626,3.9647,3.9606,3.9485,3.9606,3.9647,3.9647,3.9751,3.9809,3.9809,3.9809,3.9606,3.9254,3.9254,3.9085,3.79,3.828,3.8829,3.9456,4.0005,4.0554,4.1155,4.1311,4.1311,4.1311,4.1311,4.1311,4.1311,4.1311,4.1311,0.0,0.0,4.2395,4.2918,4.3533,4.4108,4.4643,0.0,0.0,4.5503,4.5787,0.0,0.0,0.0,0.0,4.9032,4.9339,4.9531,4.9531,4.9565,4.9525,4.9396,4.9396,4.9267,4.8983,4.764,4.6234,4.4755,4.3475,4.2173,4.09,4.09,0.0,0.0,4.09,4.09,4.09,4.09,4.09,4.09,4.09,4.09,4.09,4.09,4.09,4.09,4.09,4.09,4.09,4.09,4.09,4.09,4.09,4.09,4.09,4.09,4.09,4.09,4.09,4.0569,4.0261,4.0264,3.9916,3.9626,3.9626,3.9937,4.0185,4.0185,4.053,4.0776,4.0776,4.0776,4.0613,4.0185,4.0164,3.9978,3.944,4.0137,4.0672,4.0693,4.0714,4.053,4.0143,4.0123,3.9937,3.9523,3.9916,4.0123,4.0123,4.0551,4.0776,4.0776,4.0776,4.0755,4.0714,4.0714,4.0693,3.828,3.8803,3.9378,3.9927,4.0528,4.0998,4.1259,4.1311,4.1311,4.1311,4.1311,4.1311,4.1311,4.1311,4.1416,4.1781,4.2317,0.0,4.3454,4.4042,4.4447,4.4669,4.5034,0.0,0.0,0.0,0.0,0.0,0.0,0.0,5.0091,4.9769,4.959,4.959,4.959,4.959,4.959,4.959,4.9145,4.8273,4.6544,4.493,4.3457,4.1723,4.0612,4.0078,4.0347,0.0,0.0,4.0776,4.09,4.09,4.09,4.09,4.09,4.09,4.09,4.09,4.09,4.09,4.09,4.09,4.09,4.09,4.09,4.09,4.09,4.09,4.09,4.09,4.09,4.09,4.09,4.09,4.0755,4.0631,4.0613,4.0468,4.0344,4.0344,4.0264,4.0185,4.0185,4.012,4.0058,4.0058,4.0058,3.9995,3.9792,4.0016,4.0137,3.9937,4.0016,4.0179,4.0445,4.0468,4.053,4.0613,4.0613,4.053,4.0344,4.053,4.0613,4.0613,4.0797,4.09,4.09,4.09,4.0755,4.0489,4.0489,4.0344,3.8542,3.9143,3.9718,4.0266,4.0841,4.1311,4.1311,4.1311,4.1311,4.1311,4.1311,4.1311,4.1311,4.1311,4.1507,4.2107,4.2657,4.3219,4.3834,4.4356,4.4773,4.493,0.0,4.591,0.0,0.0,0.0,0.0,0.0,0.0,4.9975,4.9406,4.9238,4.959,4.9455,4.9355,4.9355,4.9188,4.8567,4.7515,4.6201,4.4907,4.359,4.2225,4.1229,4.0573,0.0,0.0,0.0,4.0758,4.0983,4.1107,4.1107,4.119,4.1294,4.1294,4.1294,4.1294,4.1294,4.1294,4.1294,4.1294,4.1294,4.1294,4.1294,4.1107,4.09,4.09,4.1004,4.1107,4.1107,4.1211,4.1294,4.1294,4.1208,4.1107,4.1107,4.1001,4.09,4.09,4.0634,4.0409,4.0409,4.014,3.9913,3.9913,3.9913,3.9913,3.9913,4.0199,4.0424,4.0409,4.012,4.0054,4.0382,4.0406,4.0551,4.0879,4.09,4.09,4.09,4.09,4.09,4.09,4.09,4.09,4.09,4.09,4.0817,4.0596,4.0596,4.0513,3.8542,3.9143,3.9718,4.0266,4.0841,4.1311,4.1311,4.1311,4.1311,4.1311,4.1311,4.1311,4.1311,4.1311,4.1507,4.2107,4.2657,4.3219,4.3834,4.4356,4.493,0.0,0.0,4.6053,4.7176,0.0,0.0,0.0,0.0,0.0,4.847,4.8104,4.8435,4.9565,4.9079,4.8818,4.8818,4.8225,4.7917,4.7902,4.7877,4.7412,4.6566,4.655,4.5259,0.0,0.0,0.0,0.0,4.09,4.1169,4.1602,4.1602,4.1871,4.2285,4.2285,4.2285,4.2285,4.2285,4.2285,4.2285,4.2285,4.2285,4.2285,4.2285,4.1643,4.09,4.09,4.1232,4.1602,4.1602,4.1933,4.2285,4.2285,4.1933,4.1602,4.1602,4.1229,4.09,4.09,4.0897,4.0879,4.0879,4.0879,4.0879,4.0879,4.0879,4.0879,4.0879,4.0879,4.0879,4.0879,4.0879,4.0879,4.0879,4.0879,4.0879,4.09,4.09,4.09,4.09,4.09,4.09,4.09,4.09,4.09,4.09,4.09,4.1146,4.1581,4.1581,4.183,3.863,3.9173,3.9603,4.0731,4.1155,4.1311,4.1311,4.1311,4.1311,4.1311,4.1311,4.1311,4.1311,4.1311,4.1625,4.2605,4.2879,4.335,0.0,0.0,0.0,4.5531,4.6288,4.7229,0.0,0.0,0.0,0.0,0.0,0.0,4.8769,4.9043,4.8956,4.8451,4.8284,4.8375,4.8793,4.8601,4.8862,4.9583,4.8312,4.7734,4.7797,4.6465,0.0,0.0,0.0,0.0,0.0,4.3728,4.3519,4.3543,4.2497,4.2161,4.2285,4.2285,4.2285,4.2285,4.2285,4.2285,4.2285,4.2285,4.2285,4.2285,4.2285,4.2078,4.185,4.185,4.1954,4.2078,4.2078,4.2182,4.2285,4.2285,4.2182,4.2078,4.2078,4.1954,4.185,4.185,4.185,4.185,4.185,4.185,4.185,4.185,4.185,4.185,4.185,4.185,4.185,4.185,4.185,4.1602,4.0942,4.09,4.09,4.09,4.09,4.1045,4.1374,4.1374,4.154,4.185,4.185,4.185,4.185,4.185,4.1933,4.2078,4.2078,4.2161,3.8642,3.9407,3.9922,4.103,4.1311,4.1311,4.1311,4.1311,4.1311,4.1311,4.1311,4.1311,4.1311,4.1311,4.1665,4.2814,4.2997,4.3402,0.0,0.0,0.0,4.6158,0.0,0.0,0.0,0.0,0.0,0.0,0.0,0.0,4.8813,4.9132,4.895,4.8151,4.8212,4.8426,4.8793,4.8793,4.9129,4.9775,4.8804,4.8632,4.9113,4.7915,0.0,0.0,0.0,0.0,0.0,4.4242,4.3811,4.3873,4.2904,4.264,4.2785,4.2785,4.2785,4.2785,4.2785,4.2785,4.2785,4.2785,4.2785,4.2785,4.2785,4.2575,4.2285,4.2285,4.241,4.2536,4.2536,4.266,4.2785,4.2785,4.2785,4.2785,4.2785,4.2785,4.2785,4.2785,4.264,4.2536,4.2536,4.241,4.2285,4.2285,4.2285,4.2285,4.2285,4.2285,4.2285,4.2285,4.2285,4.2058,4.1477,4.1436,4.1436,4.1436,4.1436,4.156,4.185,4.1871,4.1995,4.2285,4.2285,4.2285,4.2285,4.2453,4.2536,4.2536,4.2702,4.2785,0.0,3.977,4.0532,4.1142,4.1311,4.1311,4.1311,4.1311,0.0,4.1311,4.1311,4.1311,4.1311,4.1338,4.173,4.2814,4.3036,4.3454,0.0,4.5243,0.0,0.0,4.7832,0.0,0.0,0.0,0.0,0.0,0.0,0.0,4.8624,4.8605,4.8614,4.8583,4.8822,4.8909,4.8868,4.8868,4.8919,4.9044,4.9556,5.0067,5.0578,5.0578,5.0131,0.0,0.0,0.0,0.0,4.3541,4.3117,4.3439,4.3327,4.3485,4.3746,4.3746,4.3691,4.3596,4.3596,4.3596,4.3596,4.3596,4.3596,4.3596,4.3596,4.3033,4.2389,4.2389,4.2642,4.2954,4.2954,4.3265,4.3596,4.3596,4.3596,4.3596,4.3596,4.3596,4.3596,4.3596,4.3244,4.2954,4.2954,4.264,4.2389,4.2389,4.2389,4.2389,4.2389,4.2389,4.2389,4.2389,4.2389,4.2389,4.2389,4.2327,4.2285,4.2285,4.2285,4.2306,4.2348,4.2348,4.2348,4.2389,4.2389,4.2389,4.2389,4.2766,4.2954,4.2954,4.3389,4.3596,3.8641,0.0,4.035,4.1109,4.1311,4.1311,0.0,4.1311,4.1311,0.0,0.0,4.1311,4.1311,4.1664,4.2199,4.2905,4.3389,4.3925,4.459,0.0,0.0,4.7229,4.7832,0.0,0.0,0.0,0.0,0.0,0.0,4.8983,4.8613,4.9419,4.976,4.9505,5.0085,5.01,4.943,4.9405,5.0058,5.1322,5.1448,5.1783,5.231,5.231,5.2197,0.0,0.0,0.0,5.0833,4.9292,4.8699,4.8672,4.7481,4.6345,4.5359,4.5359,4.4593,4.3596,4.3596,4.3596,4.3596,4.3596,4.3596,4.3596,4.3596,4.347,4.3284,4.3284,4.3366,4.343,4.343,4.3513,4.3596,4.3596,4.3596,4.3596,4.3596,4.3596,4.3596,4.3596,4.3513,4.343,4.343,4.3366,4.3284,4.3284,4.3284,4.3284,4.3284,4.3284,4.3284,4.3284,4.3284,4.3284,4.3284,4.2681,4.2285,4.2285,4.2285,4.2451,4.2745,4.2766,4.2932,4.3284,4.3284,4.3284,4.3284,4.3389,4.343,4.343,4.3534,4.3596,3.9045,4.0006,4.0757,4.1199,4.1311,4.1311,4.1311,4.1311,4.1311,0.0,0.0,4.1311,4.1311,4.1781,4.2369,4.2905,4.3493,0.0,0.0,0.0,4.7074,4.7635,4.7989,0.0,0.0,0.0,0.0,0.0,0.0,4.9523,4.9603,5.0281,5.0576,5.0398,5.0912,5.0798,4.9967,5.0494,5.1197,5.2101,5.2335,5.2611,5.2895,5.2895,5.2895,0.0,0.0,0.0,5.1729,5.0186,4.954,4.9468,4.8624,4.7316,4.5896,4.5896,4.4931,4.371,4.4407,4.5138,4.5751,4.5751,4.5751,4.5751,4.5751,4.5751,4.5456,4.4012,4.3596,4.3596,4.3596,4.3596,4.3596,4.3596,4.3596,4.3596,4.3596,4.3596,4.3596,4.3596,4.3596,4.3596,4.3596,4.3596,4.3596,4.3596,4.3596,4.3596,4.3596,4.3596,4.3596,4.3596,4.3596,4.3596,4.3596,4.3159,4.2909,4.2909,4.2909,4.2994,4.3203,4.3223,4.3327,4.3615,4.3596,4.3596,4.3596,4.3368,4.3285,4.3265,4.3077,4.3013,3.9547,4.0694,4.1311,4.1311,4.1311,4.1311,4.1311,4.1311,0.0,0.0,0.0,4.1338,4.1416,4.1912,0.0,0.0,0.0,0.0,4.6278,4.6955,4.7516,4.8134,4.8187,0.0,0.0,0.0,0.0,0.0,0.0,5.0278,5.0775,5.1028,5.1151,5.1104,5.1431,5.1305,5.0626,5.1657,5.2202,5.2226,5.2686,5.2895,5.2895,5.2895,5.2895,5.2843,0.0,0.0,5.084,4.9522,4.8984,4.8984,4.8984,4.8027,4.6618,4.6618,4.5639,4.4501,4.5807,4.7169,4.8299,4.8299,4.8299,4.8299,4.8299,4.8299,4.7736,4.5063,4.4312,4.4312,4.4312,4.4312,4.4312,4.4312,4.4312,4.4312,4.4312,4.4312,4.4237,4.3993,4.3955,4.3879,4.3653,4.3805,4.3858,4.353,4.3888,4.4073,4.3746,4.3916,4.4067,4.4067,4.3859,4.3727,4.3727,4.354,4.3408,4.3408,4.3532,4.3596,4.3596,4.3513,4.3492,4.3492,4.3428,4.3408,4.3408,4.2996,4.2828,4.2789,4.2453,4.2285,3.9802,4.0694,4.1311,4.1311,4.1311,4.1311,4.1311,4.1311,4.1311,0.0,0.0,0.0,0.0,4.25,4.3062,0.0,0.0,4.5597,0.0,0.0,4.7516,4.8134,0.0,0.0,0.0,0.0,0.0,0.0,0.0,5.0697,5.0801,5.1262,5.1377,5.1104,5.1801,5.198,5.1602,5.2202,5.2615,5.2787,5.2845,5.2895,5.2895,5.2895,5.2895,5.2895,0.0,5.2542,5.2525,5.2275,5.2189,5.2189,5.2189,5.1233,4.9878,4.9878,4.8912,4.7608,4.7845,4.8099,4.8299,4.8299,4.8299,4.8299,4.8299,4.8299,4.8208,4.7717,4.7572,4.7572,4.7572,4.7572,4.7572,4.7572,4.7572,4.7572,4.7572,4.7572,4.7169,4.5825,4.5546,4.5138,4.3822,4.4668,4.4969,4.3264,4.5175,4.6203,4.4504,4.538,4.6131,4.6131,4.502,4.4279,4.4279,4.3191,4.2513,4.2513,4.318,4.3596,4.3596,4.3223,4.3016,4.3016,4.2681,4.2513,4.2513,4.243,4.2389,4.2389,4.2327,4.2285,4.0262,4.0694,4.0757,4.1199,4.1311,4.1311,4.1311,4.1311,0.0,0.0,0.0,0.0,0.0,0.0,4.3781,4.467,0.0,4.629,4.6851,4.744,0.0,0.0,0.0,0.0,0.0,0.0,0.0,0.0,0.0,0.0,5.1204,5.1465,5.1534,5.1361,5.2346,5.2724,5.2329,5.3201,5.3377,5.2895,5.2895,5.2895,5.2895,5.2895,5.2895,5.2895,0.0,5.2895,5.2895,5.2895,5.2895,5.2895,5.2895,5.1963,5.0505,4.9665,4.9432,4.954,4.954,5.0098,5.0794,5.0794,5.0794,5.0794,5.0794,5.0794,5.0794,5.0794,4.9599,4.8299,4.8299,4.8299,4.8299,4.8299,4.8299,4.8299,4.8299,4.8033,4.7593,4.6852,4.6469,4.6059,4.5336,4.5805,4.5974,4.5048,4.6078,4.6611,4.5715,4.6189,4.6594,4.6594,4.5279,4.4401,4.4401,4.3106,4.2285,4.2285,4.2679,4.2909,4.2909,4.2702,4.2578,4.2578,4.2389,4.2285,4.2285,4.2037,4.1912,4.1912,4.1664,4.154,4.0656,4.0846,4.0529,4.1161,4.1311,4.1311,4.1311,4.1311,0.0,0.0,0.0,0.0,0.0,4.3546,0.0,4.5466,4.6198,4.6839,4.7255,0.0,0.0,0.0,0.0,0.0,0.0,0.0,0.0,0.0,0.0,0.0,5.157,5.1596,5.1596,5.1596,5.2666,5.3114,5.2786,5.3858,5.3971,5.317,5.317,5.3118,5.305,5.305,5.2981,5.2895,5.2895,5.2895,5.2895,5.2895,5.2895,5.2895,5.2895,5.2171,5.1005,4.9813,5.0133,5.1145,5.1145,5.1903,5.2895,5.2895,5.2895,5.2895,5.2895,5.2895,5.2895,5.2895,5.1107,4.922,4.9337,4.9384,4.9337,4.922,4.9196,4.915,4.9032,4.8627,4.8205,4.7812,4.7428,4.7016,4.6665,4.6893,4.6969,4.6504,4.704,4.7306,4.6843,4.7103,4.7189,4.682,4.5475,4.4306,4.3648,4.2589,4.1975,4.1975,4.2182,4.2285,4.2285,4.2182,4.214,4.214,4.2016,4.1975,4.1975,4.1622,4.1498,4.1602,4.1229,4.1107,4.0833,4.1261,4.1236,4.1299,4.1311,4.1311,4.1311,4.1311,0.0,4.2029,0.0,0.0,0.0,4.4722,4.5505,4.5583,4.6523,4.7255,0.0,0.0,0.0,0.0,0.0,0.0,0.0,0.0,0.0,0.0,0.0,0.0,5.1596,5.1596,5.1596,5.1596,5.24,5.2819,5.2786,5.3608,5.4014,5.3929,5.3929,5.3759,5.3461,5.3461,5.3256,5.2895,5.2895,5.2895,5.2895,5.2895,5.2895,5.2895,5.2895,5.2843,5.274,5.2594,5.2629,5.2715,5.2715,5.2826,5.2895,5.2895,5.2895,5.2895,5.2895,5.2895,5.2895,5.2895,5.2382,5.1928,5.2435,5.256,5.2435,5.1953,5.1828,5.1679,5.1196,5.1047,5.0577,4.9078,4.8755,4.8267,4.684,4.7782,4.8101,4.6231,4.8334,4.9438,4.7577,4.8543,4.8854,4.7471,4.6008,4.4043,4.1393,4.1055,4.1004,4.1004,4.1809,4.2285,4.2285,4.1871,4.1643,4.1643,4.1211,4.1004,4.1004,4.0962,4.1169,4.1602,4.1581,4.1788,4.0984,4.1311,4.1311,4.1311,4.1311,0.0,0.0,4.1311,4.1468,4.2081,4.2461,0.0,0.0,0.0,4.5714,4.6107,4.6799,4.7438,0.0,0.0,0.0,0.0,0.0,0.0,0.0,0.0,0.0,0.0,0.0,0.0,5.1596,5.1596,5.1596,5.1596,5.2618,5.3179,5.3179,5.4192,5.4671,5.4671,5.4216,5.3929,5.381,5.381,5.3606,5.3273,5.3273,5.3136,5.2895,5.2895,5.2895,5.2895,5.2895,5.2895,5.2895,5.2895,5.2895,5.2895,5.2895,5.2895,5.2895,5.2895,5.2895,5.2895,5.2895,5.2895,5.2837,5.2511,5.226,5.2151,5.2335,5.2176,5.185,5.1649,5.1599,5.1565,5.1339,5.1013,5.0563,4.995,4.9561,4.9149,4.8585,4.8951,4.9076,4.831,4.9166,4.9621,4.8877,4.9267,4.9396,4.8836,4.7458,4.5756,4.3747,4.3574,4.3324,4.2735,4.1896,4.1436,4.1436,4.127,4.1312,4.1602,4.1436,4.1477,4.1767,4.1767,4.185,4.2037,4.2037,4.212,4.1072,4.1311,4.1311,4.1311,0.0,0.0,4.1533,4.1585,4.1742,4.233,4.3023,0.0,0.0,0.0,0.0,0.0,4.7217,4.7713,0.0,0.0,0.0,0.0,0.0,0.0,0.0,0.0,0.0,0.0,0.0,0.0,0.0,5.1596,5.1596,5.1596,5.2772,5.34,5.34,5.4524,5.5099,5.5099,5.457,5.4284,5.414,5.4064,5.381,5.3495,5.3375,5.3153,5.2895,5.2895,5.2895,5.2895,5.2895,5.2895,5.2895,5.2895,5.2895,5.2895,5.2895,5.2895,5.2895,5.2895,5.2895,5.2895,5.2895,5.2787,5.2561,5.2184,5.1833,5.1624,5.18,5.159,5.1264,5.1063,5.1013,5.0971,5.0812,5.0444,5.0167,5.0167,4.9992,4.9866,4.9866,5.0017,5.0134,5.0134,5.0134,5.0134,5.0134,5.0134,4.9954,4.9487,4.8131,4.6822,4.5817,4.5748,4.5455,4.482,4.307,4.1854,4.1371,4.1353,4.1498,4.1809,4.183,4.1975,4.2285,4.2285,4.2368,4.2495,4.2495,4.2557,4.1072,4.1311,4.1311,4.1311,0.0,0.0,4.2055,4.2199,4.2343,4.2905,0.0,4.4878,4.5478,0.0,0.0,4.7202,0.0,0.0,0.0,0.0,0.0,0.0,0.0,0.0,0.0,0.0,0.0,0.0,0.0,0.0,0.0,5.1596,5.1596,5.1596,5.2772,5.34,5.34,5.4524,5.5099,5.5099,5.5099,5.4889,5.4494,5.4157,5.381,5.3478,5.3084,5.2895,5.2895,5.2895,5.2895,5.2895,5.2895,5.2895,5.2895,5.2895,5.2895,5.2895,5.2895,5.2895,5.2895,5.2895,5.2895,5.2895,5.2895,5.2511,5.2126,5.2101,5.1281,5.0553,5.1163,5.1289,5.1163,5.0553,5.0402,5.0252,4.9715,4.9615,4.9615,4.9615,5.0067,5.0402,5.0402,5.0896,5.1289,5.1289,5.1289,5.1289,5.1289,5.1289,5.0729,4.9276,4.7794,4.6934,4.6934,4.6934,4.6957,4.694,4.5497,4.3921,4.2378,4.2304,4.2285,4.2306,4.2306,4.2306,4.2306,4.2306,4.2515,4.2913,4.2913,4.3161,4.1249,4.1311,4.1311,4.1311,0.0,0.0,0.0,4.2199,0.0,0.0,4.4539,4.5374,4.5557,0.0,0.0,0.0,0.0,0.0,0.0,0.0,0.0,0.0,0.0,0.0,0.0,0.0,0.0,0.0,0.0,0.0,0.0,5.1596,5.1779,5.2223,5.2981,5.3583,5.3949,5.4733,5.5099,5.5099,5.5099,5.5049,5.4905,5.4511,5.4157,5.3827,5.3478,5.317,5.2895,5.2895,5.2895,5.2895,5.2895,5.2895,5.2895,5.2895,5.2895,5.2895,5.2895,5.2895,5.2895,5.2895,5.2895,5.2837,5.246,5.2485,5.2511,5.1749,5.1574,5.1548,5.1364,5.1289,5.1264,5.1088,5.1021,5.0987,5.0837,5.0812,5.0812,5.0812,5.0921,5.1021,5.1021,5.1188,5.1289,5.1289,5.1289,5.1289,5.1289,5.1289,5.1139,5.0695,5.0267,4.9989,4.9989,4.9989,4.9677,4.8986,4.7453,4.5761,4.3997,4.2871,4.243,4.2725,4.2725,4.289,4.3201,4.3201,4.3284,4.3389,4.3389,4.3472,4.1311,4.1311,4.1311,4.1311,4.1481,4.1873,4.2683,0.0,0.0,0.0,0.0,4.5661,4.591,4.668,0.0,0.0,0.0,0.0,0.0,0.0,0.0,0.0,0.0,0.0,0.0,0.0,0.0,0.0,0.0,0.0,0.0,5.1596,5.1884,5.2485,5.3086,5.3661,5.4184,5.4811,5.5099,5.5099,5.5099,5.5099,5.5082,5.4679,5.4393,5.4157,5.3717,5.3273,5.2895,5.2895,5.2895,5.2895,5.2895,5.2895,5.2895,5.2895,5.2895,5.2895,5.2895,5.2895,5.2845,5.2661,5.2737,5.2812,5.226,5.2327,5.2435,5.18,5.1699,5.1749,5.1666,5.1615,5.1548,5.1339,5.1289,5.1289,5.1289,5.1289,5.1289,5.1289,5.1465,5.1615,5.1615,5.18,5.1925,5.1925,5.1925,5.1925,5.1925,5.1925,5.1925,5.1925,5.1925,5.1925,5.1925,5.1925,5.1678,5.1065,4.8962,4.7253,4.6114,4.397,4.293,4.3161,4.3182,4.3306,4.3596,4.3596,4.3596,4.3596,4.3596,4.3596,4.1311,4.1311,4.1311,4.1311,4.1794,4.2552,4.365,4.3938,4.4134,4.4682,0.0,4.5858,4.6461,4.7022,4.7556,0.0,0.0,0.0,0.0,0.0,0.0,0.0,0.0,0.0,0.0,0.0,0.0,0.0,0.0,0.0,0.0,5.1596,5.191,5.2563,5.3112,5.3687,5.4288,5.4837,5.5099,5.5099,5.5046,5.502,5.5004,5.4653,5.4494,5.4427,5.381,5.3341,5.2998,5.2964,5.2922,5.2871,5.2837,5.2812,5.2744,5.2744,5.2744,5.2744,5.2744,5.2787,5.2762,5.226,5.246,5.2812,5.226,5.2126,5.2159,5.2109,5.1774,5.1565,5.2051,5.2176,5.2051,5.1548,5.144,5.144,5.144,5.144,5.144,5.144,5.1825,5.2176,5.2176,5.2586,5.2895,5.2895,5.2895,5.2895,5.2895,5.2895,5.2895,5.2895,5.2895,5.2895,5.2895,5.2895,5.2895,5.2895,5.0009,4.8299,4.8299,4.5269,4.3596,4.3596,4.3596,4.3596,4.3596,4.3596,4.3596,4.3596,4.3596,4.3596,4.1311,4.1311,4.1311,4.1311,4.2069,4.3023,4.3755,4.4225,4.4708,4.5296,4.5884,4.6473,4.7034,4.7623,4.8056,0.0,0.0,0.0,0.0,0.0,0.0,0.0,0.0,0.0,0.0,0.0,0.0,0.0,0.0,0.0,5.1596,5.1596,5.2093,5.3164,5.3321,5.387,5.4889,5.5046,5.5099,0.0,5.4628,5.4393,5.4403,5.4471,5.4359,5.4089,5.3963,5.3844,5.3742,5.3478,5.308,5.2641,5.2378,5.2026,5.1624,5.1624,5.1624,5.1624,5.1624,5.1925,5.2234,5.2151,5.246,5.2812,5.226,5.2385,5.2636,5.2226,5.231,5.2586,5.2711,5.2737,5.2711,5.2586,5.2561,5.2561,5.2561,5.2561,5.2561,5.2561,5.2661,5.2737,5.2737,5.2837,5.2895,5.2895,5.2895,5.2895,5.2895,5.2895,5.2895,5.2895,5.2895,5.2895,5.2895,5.2895,5.2895,5.2895,5.0009,4.8299,4.8299,4.5269,4.3596,4.3596,4.3596,4.3596,4.3596,4.3596,4.3596,4.3596,4.3596,4.3596,4.1311,4.1311,4.1442,4.1991,4.2553,4.3219,4.4095,4.4499,4.4956,4.5846,4.6278,4.667,4.7202,4.7806,4.8187,0.0,0.0,0.0,0.0,0.0,0.0,0.0,0.0,0.0,0.0,0.0,0.0,0.0,0.0,5.1596,5.1596,5.1596,5.2145,5.3347,5.34,5.3949,5.5099,5.4811,5.468,5.4654,5.4079,5.3818,5.3802,5.3934,5.3758,5.3426,5.3426,5.3243,5.2926,5.2767,5.2405,5.1967,5.1783,5.1565,5.1289,5.1289,5.1465,5.1674,5.1674,5.2026,5.2435,5.2176,5.246,5.2812,5.226,5.246,5.2845,5.2561,5.2686,5.2895,5.2895,5.2895,5.2895,5.2895,5.2895,5.2895,5.2895,5.2895,5.2895,5.2895,5.2895,5.2895,5.2895,5.2895,5.2895,5.2895,5.2895,5.2895,5.2895,5.2895,5.2895,5.2895,5.2895,5.2895,5.2895,5.2895,5.2895,5.2895,5.0681,4.9397,4.9397,4.6378,4.435,4.3615,4.3596,4.3596,4.3596,4.3596,4.3596,4.3596,4.3596,4.3596,4.1311,4.139,4.1703,4.2736,4.3088,4.3428,4.446,4.4773,4.5179,4.6278,4.6501,4.6696,4.7347,4.7858,4.8187,0.0,0.0,0.0,0.0,0.0,0.0,0.0,0.0,0.0,0.0,0.0,0.0,0.0,0.0,5.1596,5.1596,5.1596,5.2145,5.3347,5.34,5.3949,5.5099,5.4497,5.421,5.4184,5.3556,5.3191,5.3086,5.3086,5.3003,5.291,5.291,5.26,5.2075,5.1943,5.1661,5.1304,5.1171,5.1122,5.1122,5.1122,5.1473,5.1975,5.1975,5.231,5.2686,5.2234,5.246,5.2837,5.236,5.2561,5.2895,5.2895,5.2895,5.2895,5.2895,5.2895,5.2895,5.2895,5.2895,5.2895,5.2895,5.2895,5.2895,5.2895,5.2895,5.2895,5.2895,5.2895,5.2895,5.2895,5.2895,5.2895,5.2895,5.2895,5.2895,5.2895,5.2895,5.2895,5.2895,5.2895,5.2895,5.2895,5.1443,5.0611,5.0611,4.784,4.5583,4.4031,4.3748,4.3596,4.3596,4.3596,4.3596,4.3596,4.3596,4.3596,4.1311,4.1664,4.2238,4.2853,4.3389,4.3951,0.0,0.0,4.5675,0.0,4.6501,4.6827,4.7899,4.8161,4.8187,0.0,0.0,0.0,0.0,0.0,0.0,0.0,0.0,0.0,0.0,0.0,0.0,0.0,5.1596,5.1596,5.1596,5.1596,5.2145,5.3347,5.34,5.3949,5.5099,5.4497,5.421,5.4184,5.3138,5.2354,5.1831,5.1831,5.2391,5.3309,5.3309,5.3286,5.3131,5.2511,5.1925,5.1409,5.0774,5.0503,5.0503,5.0503,5.0896,5.1414,5.1414,5.1749,5.2201,5.2126,5.246,5.2887,5.2795,5.2845,5.2895,5.2895,5.2895,5.2895,5.2895,5.2895,5.2895,5.2895,5.2895,5.2895,5.2895,5.2895,5.2895,5.2895,5.2895,5.2895,5.2895,5.2895,5.2895,5.2895,5.2895,5.2895,5.2895,5.2895,5.2895,5.2895,5.2895,5.2895,5.2895,5.2895,5.2895,5.2895,5.1443,5.0611,5.0611,4.8912,4.7224,4.562,4.4275,4.3596,4.3596,4.3596,4.3596,4.3596,4.3596,4.3596,4.1311,4.1755,4.2317,4.2853,4.3441,4.4029,4.4578,4.5165,4.578,4.6383,4.6734,4.7205,4.8056,4.8187,4.8187,0.0,0.0,0.0,0.0,0.0,0.0,0.0,0.0,0.0,0.0,0.0,0.0,0.0,5.1596,5.1596,5.1596,5.191,5.2485,5.3373,5.3687,5.4262,5.5099,5.421,5.34,5.2746,5.2223,5.1858,5.1596,5.1596,5.1884,5.238,5.238,5.2269,5.2088,5.1743,5.1277,5.0703,5.0693,5.0566,5.0452,5.077,5.1247,5.1749,5.1749,5.2101,5.2561,5.2561,5.2711,5.2895,5.2895,5.2895,5.2895,5.2895,5.2895,5.2895,5.2895,5.2895,5.2895,5.2895,5.2895,5.2895,5.2895,5.2895,5.2895,5.2895,5.2895,5.2895,5.2895,5.2895,5.2895,5.2895,5.2895,5.2895,5.2895,5.2895,5.2895,5.2895,5.2895,5.2895,5.2895,5.2895,5.2895,5.2895,5.2258,5.1886,5.1886,5.0416,4.9271,4.8547,4.6119,4.4464,4.3596,4.3596,4.3596,4.3596,4.3596,4.3596,4.1311,4.1847,4.2487,4.2905,4.3572,4.4199,0.0,0.0,4.5963,0.0,4.7048,4.7661,4.8134,4.8187,4.8187,0.0,0.0,0.0,0.0,0.0,0.0,0.0,0.0,0.0,0.0,0.0,0.0,0.0,5.1596,5.1596,5.1596,5.2171,5.2772,5.3373,5.3922,5.4497,5.5099,5.3975,5.2798,5.1596,5.1596,5.1596,5.1596,5.1596,5.1596,5.1596,5.1596,5.1393,5.1088,5.101,5.0691,5.0325,5.0659,5.0791,5.0879,5.1322,5.185,5.2285,5.2285,5.2561,5.2895,5.2895,5.2895,5.2895,5.2895,5.2895,5.2895,5.2895,5.2895,5.2895,5.2895,5.2895,5.2895,5.2895,5.2895,5.2895,5.2895,5.2895,5.2895,5.2895,5.2895,5.2895,5.2895,5.2895,5.2895,5.2895,5.2895,5.2895,5.2895,5.2895,5.2895,5.2895,5.2895,5.2895,5.2895,5.2895,5.2895,5.2895,5.2895,5.2895,5.2895,5.1799,5.0998,5.0611,4.8294,4.6119,4.4161,4.4161,4.3974,4.3596,4.3596,4.3596,4.1311,4.2121,4.2984,4.2997,4.3833,4.4669,0.0,0.0,4.6461,4.6487,4.7376,4.8161,4.8187,4.8187,4.8187,4.8187,0.0,0.0,0.0,0.0,0.0,0.0,0.0,0.0,0.0,0.0,0.0,0.0,5.1596,5.1596,5.1596,5.2171,5.2772,5.3373,5.3922,5.4497,5.5099,5.3975,5.2798,5.1596,5.1596,5.1596,5.1596,5.1596,5.1596,5.1596,5.1596,5.1393,5.1073,5.0747,5.0713,5.0834,5.055,5.1071,5.2026,5.2051,5.2385,5.2845,5.2845,5.2887,5.2895,5.2895,5.2895,5.2895,5.2895,5.2895,5.2895,5.2895,5.2895,5.2895,5.2895,5.2895,5.2895,5.2895,5.2895,5.2895,5.2895,5.2895,5.2895,5.2895,5.2895,5.2895,5.2895,5.2895,5.2895,5.2895,5.2895,5.2895,5.2895,5.2895,5.2895,5.2895,5.2895,5.2895,5.2895,5.2895,5.2895,5.2895,5.2895,5.2895,5.2895,5.2826,5.2102,5.0628,5.0452,4.8835,4.5788,4.5788,4.5044,4.3596,4.3596,4.3596,4.1781,4.2422,4.3088,4.3467,4.4133,4.4695,4.4695,4.5637,4.6501,4.6501,4.7417,4.8187,4.8187,4.8187,4.8187,4.8187,0.0,0.0,0.0,0.0,0.0,0.0,0.0,0.0,0.0,0.0,0.0,0.0,0.0,5.1596,5.1596,5.2537,5.3164,5.34,5.4288,5.4524,5.4001,5.3609,5.2798,5.1596,5.1596,5.1596,5.1596,5.1596,5.1596,5.1596,5.1596,5.1534,5.1434,5.1698,5.1575,5.1268,5.1892,5.2135,5.2168,5.2775,5.3113,5.329,5.329,5.329,5.3238,5.2981,5.2895,5.2895,5.2895,5.2895,5.2895,5.2895,5.2895,5.2895,5.2895,5.2895,5.2895,5.2895,5.2895,5.2895,5.2895,5.2895,5.2895,5.2895,5.2895,5.2895,5.2895,5.2895,5.2895,5.2895,5.2895,5.2895,5.2895,5.2895,5.2895,5.2895,5.2895,5.2895,5.2895,5.2895,5.2895,5.2895,5.2895,5.2895,5.2895,5.2895,5.2629,5.2085,5.2085,5.054,4.7444,4.6396,4.562,4.5063,4.4069,4.3596,4.2304,0.0,0.0,4.3807,4.4304,4.4695,4.4695,4.5637,4.6501,4.6501,4.7417,4.8187,4.8187,4.8187,4.8187,4.8187,4.8187,0.0,0.0,0.0,0.0,0.0,0.0,0.0,0.0,0.0,0.0,0.0,0.0,0.0,5.1596,5.2746,5.3583,5.3949,5.4707,5.455,5.34,5.34,5.2798,5.1596,5.1596,5.1596,5.1596,5.1596,5.1596,5.1596,5.1805,5.1847,5.1752,5.2169,5.2207,5.2084,5.2852,5.2978,5.2793,5.3317,5.3495,5.3478,5.3341,5.329,5.3256,5.2981,5.2895,5.2895,5.2895,5.2895,5.2895,5.2895,5.2895,5.2895,5.2895,5.2895,5.2895,5.2895,5.2895,5.2895,5.2895,5.2895,5.2895,5.2895,5.2895,5.2895,5.2895,5.2895,5.2895,5.2895,5.2895,5.2895,5.2895,5.2895,5.2895,5.2895,5.2895,5.2895,5.2895,5.2895,5.2895,5.2895,5.2895,5.2895,5.2895,5.2895,5.2895,5.2895,5.2895,5.1893,4.9849,4.824,4.7224,4.6673,4.5639,4.4875,0.0,0.0,0.0,0.0,4.4304,4.4695,4.4695,4.5637,4.6501,4.6501,4.7417,4.8187,4.8187,4.8187,4.8187,4.8187,4.8187,0.0,0.0,0.0,0.0,0.0,0.0,0.0,0.0,0.0,0.0,0.0,5.1596,5.1596,5.1596,5.2746,5.3922,5.5072,5.5099,5.455,5.34,5.34,5.2798,5.1596,5.1596,5.1596,5.1596,5.1596,5.1596,5.1622,5.2223,5.2336,5.2048,5.2048,5.2527,5.3218,5.3243,5.3543,5.3946,5.3648,5.3512,5.3444,5.3067,5.2929,5.2912,5.2895,5.2895,5.2895,5.2895,5.2895,5.2895,5.2895,5.2895,5.2895,5.2895,5.2895,5.2895,5.2895,5.2895,5.2895,5.2895,5.2895,5.2895,5.2895,5.2895,5.2895,5.2895,5.2895,5.2895,5.2895,5.2895,5.2895,5.2895,5.2895,5.2895,5.2895,5.2895,5.2895,5.2895,5.2895,5.2895,5.2895,5.2895,5.2895,5.2895,5.2895,5.2895,5.2895,5.2895,5.2895,5.2895,5.1338,4.9825,4.8371,4.8263,4.7389,4.348,0.0,0.0,0.0,0.0,0.0,4.4695,4.5637,4.6501,4.6501,4.7417,4.8187,4.8187,4.8187,4.8187,4.8187,4.8187,4.8187,0.0,0.0,0.0,0.0,0.0,0.0,0.0,0.0,0.0,0.0,5.1596,5.1596,5.1596,5.2746,5.3922,5.5072,5.5099,5.455,5.34,5.34,5.2798,5.1596,5.1596,5.1596,5.1596,5.1596,5.1596,5.1622,5.2223,5.2698,5.3035,5.3427,5.3579,5.3602,5.3989,5.3927,5.37,5.4098,5.3929,5.3512,5.364,5.3546,5.329,5.2998,5.2895,5.2895,5.2895,5.2895,5.2895,5.2895,5.2895,5.2895,5.2895,5.2895,5.2895,5.2895,5.2895,5.2895,5.2895,5.2895,5.2895,5.2895,5.2895,5.2895,5.2895,5.2895,5.2895,5.2895,5.2895,5.2895,5.2895,5.2895,5.2895,5.2895,5.2895,5.2895,5.2895,5.2895,5.2895,5.2895,5.2895,5.2895,5.2895,5.2895,5.2895,5.2895,5.2895,5.2895,5.2895,5.1338,5.0375,4.9896,4.7645,4.6322,0.0,0.0,0.0,0.0,0.0,0.0,4.4695,4.5637,4.6501,4.6501,4.7417,4.8187,4.8187,4.8187,4.8187,4.8187,4.8187,4.8187,0.0,0.0,0.0,0.0,0.0,0.0,0.0,5.1596,5.1596,5.1596,5.1596,5.1805,5.2328,5.3008,5.3922,5.5072,5.5099,5.4654,5.3739,5.3504,5.2929,5.1962,5.1727,5.1596,5.1596,5.1596,5.1727,5.2014,5.2616,5.3191,5.3766,5.4341,5.446,5.433,5.4625,5.4503,5.4192,5.4241,5.4047,5.3674,5.3572,5.3427,5.3204,5.2981,5.2895,5.2895,5.2895,5.2895,5.2895,5.2895,5.2895,5.2895,5.2895,5.2895,5.2895,5.2895,5.2895,5.2895,5.2895,5.2895,5.2895,5.2895,5.2895,5.2895,5.2895,5.2895,5.2895,5.2895,5.2895,5.2895,5.2895,5.2895,5.2895,5.2895,5.2895,5.2895,5.2895,5.2895,5.2895,5.2895,5.2895,5.2895,5.2895,5.2895,5.2895,5.2895,5.2895,5.2895,5.2895,5.2015,5.1233,5.0558,4.804,4.6544,0.0,0.0,0.0,0.0,0.0,0.0,4.4695,4.5584,4.6409,4.6487,4.735,4.8134,4.8187,4.8187,4.8187,4.8187,4.8187,4.8187,4.8187,0.0,0.0,0.0,0.0,0.0,5.1492,5.1596,5.1596,5.1596,5.1596,5.2093,5.3243,5.3347,5.3896,5.4968,5.5072,5.4811,5.421,5.3661,5.3086,5.2485,5.1884,5.1596,5.1596,5.1675,5.1988,5.2537,5.3191,5.3766,5.4262,5.4863,5.5099,5.5099,5.5099,5.5065,5.4965,5.4351,5.4047,5.3861,5.3256,5.2964,5.2895,5.2895,5.2895,5.2895,5.2895,5.2895,5.2895,5.2895,5.2895,5.2895,5.2895,5.2895,5.2895,5.2895,5.2895,5.2895,5.2895,5.2895,5.2895,5.2895,5.2895,5.2895,5.2895,5.2895,5.2895,5.2895,5.2895,5.2895,5.2895,5.2895,5.2895,5.2895,5.2895,5.2895,5.2895,5.2895,5.2895,5.2895,5.2895,5.2895,5.2895,5.2895,5.2895,5.2895,5.2895,5.2895,5.2895,5.2895,5.2119,5.0576,4.902,4.7444,0.0,0.0,0.0,0.0,0.0,0.0,4.4695,4.5243,4.591,4.6409,4.7022,4.7609,4.8108,4.8187,4.8187,4.8187,4.8187,4.8187,4.8187,4.8187,0.0,0.0,0.0,0.0,5.1492,5.1596,5.1596,5.1596,5.1596,5.191,5.2642,5.3138,5.3687,5.4367,5.4863,5.4811,5.421,5.3661,5.3086,5.2485,5.1884,5.1596,5.1622,5.2093,5.238,5.2563,5.3583,5.4105,5.4262,5.4863,5.5099,5.5099,5.5099,5.4889,5.4628,5.4805,5.4344,5.3631,5.3742,5.3384,5.2895,5.2895,5.2895,5.2895,5.2895,5.2895,5.2895,5.2895,5.2895,5.2895,5.2895,5.2895,5.2895,5.2895,5.2895,5.2895,5.2895,5.2895,5.2895,5.2895,5.2895,5.2895,5.2895,5.2895,5.2895,5.2895,5.2895,5.2895,5.2895,5.2895,5.2895,5.2895,5.2895,5.2895,5.2895,5.2895,5.2895,5.2895,5.2895,5.2895,5.2895,5.2895,5.2895,5.2895,5.2895,5.2895,5.2895,5.2895,5.2119,5.0576,4.902,4.7444,0.0,0.0,0.0,4.4695,0.0,0.0,0.0,4.5165,4.578,4.6383,4.6944,4.7464,4.8082,4.8187,4.8187,4.8187,4.8187,4.8187,4.8187,4.8187,4.8527,0.0,0.0,0.0,5.1126,5.1439,5.1596,5.1596,5.1596,5.1858,5.2459,5.306,5.3635,5.4184,5.4785,5.4968,5.4654,5.3818,5.3243,5.2929,5.2014,5.1596,5.1622,5.2223,5.2668,5.2981,5.3844,5.4367,5.468,5.4968,5.5099,5.5099,5.5099,5.4982,5.4788,5.4604,5.42,5.3708,5.3521,5.3221,5.2895,5.2895,5.2895,5.2947,5.3136,5.3204,5.3153,5.2964,5.2895,5.2895,5.2895,5.2895,5.2895,5.2895,5.2895,5.2895,5.2895,5.2895,5.2895,5.2895,5.2895,5.2895,5.2895,5.2895,5.2895,5.2895,5.2895,5.2895,5.2895,5.2895,5.2895,5.2895,5.2895,5.2895,5.2895,5.2895,5.2895,5.2895,5.2895,5.2895,5.2895,5.2895,5.2895,5.2895,5.2895,5.2895,5.2895,5.2895,5.1712,4.9415,4.7845,4.6248,0.0,0.0,0.0,0.0,0.0,4.4695,0.0,0.0,0.0,4.6383,4.6944,0.0,0.0,0.0,0.0,0.0,0.0,0.0,0.0,4.8056,0.0,4.9023,0.0,0.0,5.0749,5.1282,5.1596,5.1596,5.1596,5.1805,5.2302,5.3008,5.3583,5.4027,5.4733,5.5099,5.5099,5.3975,5.34,5.3373,5.2171,5.1648,5.1779,5.2406,5.2981,5.3583,5.4131,5.4654,5.5099,5.5099,5.5099,5.5099,5.5099,5.5099,5.5032,5.4419,5.4132,5.3929,5.3384,5.3136,5.3033,5.3101,5.3067,5.3084,5.3478,5.3495,5.3324,5.3084,5.2964,5.2895,5.2895,5.2895,5.2895,5.2895,5.2895,5.2895,5.2895,5.2895,5.2895,5.2895,5.2895,5.2895,5.2895,5.2895,5.2895,5.2895,5.2895,5.2895,5.2895,5.2895,5.2895,5.2895,5.2895,5.2895,5.2895,5.2895,5.2895,5.2895,5.2895,5.2895,5.2895,5.2895,5.2895,5.2895,5.2895,5.2895,5.2895,5.2594,5.1022,4.8263,4.6967,4.5359,0.0,0.0,0.0,0.0,4.4695,0.0,0.0,0.0,4.578,4.6383,0.0,0.0,0.0,0.0,0.0,0.0,0.0,0.0,4.6841,4.7559,4.8422,4.9023,4.9572,0.0,0.0,5.1282,5.1596,5.1596,5.1596,5.1622,5.1701,5.2772,5.3426,5.3478,5.455,5.5099,5.5099,5.3975,5.34,5.3373,5.2171,5.1884,5.2406,5.3008,5.3583,5.4131,5.4733,5.5046,5.5099,5.5099,5.5099,5.5099,5.5099,5.5099,5.5082,5.4998,5.4553,5.403,5.4241,5.3929,5.3478,5.3776,5.3657,5.3495,5.3844,5.3487,5.3033,5.3341,5.3187,5.2895,5.2895,5.2895,5.2895,5.2895,5.2895,5.2895,5.2895,5.2895,5.2895,5.2895,5.2895,5.2895,5.2895,5.2895,5.2895,5.2895,5.2895,5.2895,5.2895,5.2895,5.2895,5.2895,5.2895,5.2895,5.2895,5.2895,5.2895,5.2895,5.2895,5.2895,5.2895,5.2895,5.2895,5.2895,5.2895,5.2895,5.2895,5.1513,4.9967,4.8299,4.8118,4.6437,0.0,0.0,0.0,0.0,0.0,0.0,4.5741,0.0,4.629,0.0,0.0,0.0,0.0,0.0,0.0,0.0,4.7873,0.0,0.0,0.0,4.8291,0.0,0.0,0.0,0.0,0.0,0.0,0.0,5.1596,5.1596,5.1596,5.2746,5.34,5.34,5.4497,5.5099,5.5099,5.4288,5.3713,5.34,5.2537,5.225,5.2511,5.3112,5.3687,5.4236,5.4837,5.5099,5.5099,5.5099,5.5099,5.5099,5.5099,5.5099,5.5065,5.4839,5.4544,5.4275,5.4224,5.403,5.381,5.3946,5.4047,5.4081,5.403,5.3776,5.3521,5.3512,5.3204,5.2895,5.2895,5.2895,5.2895,5.2895,5.2895,5.2895,5.2895,5.2895,5.2895,5.2895,5.2895,5.2895,5.2895,5.2895,5.2895,5.2895,5.2895,5.2895,5.2895,5.2895,5.2895,5.2895,5.2895,5.2895,5.2895,5.2895,5.2895,5.2895,5.2895,5.2895,5.2895,5.2895,5.2895,5.2895,5.2895,5.2895,5.2895,5.2241,5.1145,4.9593,4.7772,4.6193,4.6501,0.0,0.0,0.0,0.0,0.0,0.0,0.0,0.0,0.0,0.0,0.0,0.0,0.0,0.0,0.0,0.0,4.8082,0.0,0.0,0.0,0.0,0.0,0.0,0.0,0.0,0.0,0.0,0.0,5.1596,5.1596,5.2746,5.34,5.34,5.4497,5.5099,5.5099,5.4497,5.3922,5.34,5.2955,5.2746,5.2772,5.3347,5.3922,5.4471,5.4916,5.5099,5.5099,5.5099,5.5099,5.5099,5.5099,5.5099,5.5065,5.4772,5.4595,5.4494,5.4351,5.4301,5.4301,5.4301,5.4376,5.446,5.4208,5.4081,5.3929,5.3597,5.329,5.305,5.2929,5.2895,5.2895,5.2895,5.2895,5.2895,5.2895,5.2895,5.2895,5.2895,5.2895,5.2895,5.2895,5.2895,5.2895,5.2895,5.2895,5.2895,5.2895,5.2895,5.2895,5.2895,5.2895,5.2895,5.2895,5.2895,5.2895,5.2895,5.2895,5.2895,5.2895,5.2895,5.2895,5.2895,5.2895,5.2895,5.2895,5.2895,5.231,5.118,4.8439,4.6728,0.0,0.0,0.0,4.6501,0.0,0.0,0.0,0.0,4.7281,0.0,0.0,0.0,0.0,0.0,0.0,0.0,0.0,0.0,0.0,0.0,0.0,0.0,0.0,0.0,0.0,0.0,0.0,0.0,0.0,0.0,5.1596,5.2746,5.34,5.34,5.4497,5.5099,5.5099,5.4497,5.3922,5.34,5.3373,5.3373,5.34,5.3922,5.4497,5.5072,5.5099,5.5099,5.5099,5.5099,5.5099,5.5099,5.5099,5.5099,5.5099,5.5082,5.4839,5.4561,5.4948,5.5065,5.5065,5.5065,5.4805,5.4511,5.4494,5.4258,5.3929,5.3597,5.3495,5.3392,5.2998,5.2895,5.2895,5.2895,5.2895,5.2895,5.2895,5.2895,5.2895,5.2895,5.2895,5.2895,5.2895,5.2895,5.2895,5.2895,5.2895,5.2895,5.2895,5.2895,5.2895,5.2895,5.2895,5.2895,5.2895,5.2895,5.2895,5.2895,5.2895,5.2895,5.2895,5.2895,5.2895,5.2895,5.2895,5.2895,5.2895,5.2895,5.2878,5.2792,5.1198,4.8817,0.0,0.0,4.7638,4.7638,0.0,0.0,0.0,0.0,0.0,0.0,0.0,0.0,0.0,0.0,0.0,0.0,0.0,0.0,0.0,0.0,0.0,0.0,0.0,0.0,0.0,0.0,0.0,0.0,0.0,0.0,0.0,5.2746,5.34,5.34,5.4497,5.5099,5.5099,5.4916,5.4341,5.34,5.3766,5.3739,5.3426,5.3949,5.4524,5.5099,5.5099,5.5099,5.5099,5.5099,5.5099,5.5099,5.5099,5.5099,5.5099,5.5099,5.5015,5.4905,5.5049,5.5099,5.5099,5.5099,5.4839,5.4511,5.4511,5.4089,5.3665,5.3529,5.3307,5.3067,5.2947,5.2895,5.2895,5.2895,5.2895,5.2895,5.2895,5.2895,5.2895,5.2895,5.2895,5.2895,5.2895,5.2895,5.2895,5.2895,5.2895,5.2895,5.2895,5.2895,5.2895,5.2895,5.2895,5.2895,5.2895,5.2895,5.2895,5.2895,5.2895,5.2895,5.2895,5.2895,5.2895,5.2895,5.2895,5.2895,5.2895,5.2895,5.2895,5.2895,5.2387,5.1005,4.8187,4.8187,0.0,4.8187,4.8187,0.0,4.8187,0.0,0.0,0.0,0.0,0.0,0.0,0.0,0.0,0.0,0.0,0.0,0.0,4.8187,0.0,0.0,0.0,0.0,0.0,0.0,0.0,0.0,0.0,0.0,0.0,0.0,5.3164,5.34,5.4288,5.4889,5.5099,5.5099,5.4628,5.3687,5.4262,5.4236,5.3687,5.4262,5.4733,5.5099,5.5099,5.5099,5.5099,5.5099,5.5099,5.5099,5.5099,5.5099,5.5099,5.5099,5.5099,5.5099,5.5099,5.5099,5.5082,5.4922,5.4695,5.4477,5.4208,5.3929,5.3631,5.3358,5.3204,5.3084,5.2947,5.2895,5.2895,5.2895,5.2895,5.2895,5.2895,5.2895,5.2895,5.2895,5.2895,5.2895,5.2895,5.2895,5.2895,5.2895,5.2895,5.2895,5.2895,5.2895,5.2895,5.2895,5.2895,5.2895,5.2895,5.2895,5.2895,5.2895,5.2895,5.2895,5.2895,5.2895,5.2895,5.2895,5.2895,5.2895,5.2895,5.2895,5.2895,5.2895,5.2895,5.2387]}]]